[[{"header":{"parameterUnit":"m.s-1","parameterCategory":1,"la1":30.6,"la2":28.766,"lo1":-90.7593,"lo2":-88.6598,"dy":0.0162,"dx":0.0183,"nx":116,"ny":114,"refTime":"2023-03-11T06:00:00:Z","depth":0,"parameterNumber":2,"parameterNumberName":"U-component_of_WINDS"},"data":[0.0,0.0,0.0,0.0,0.0,0.0,0.0,0.0,0.0,0.0,0.0,0.0,0.0,0.0,0.0,0.0,0.0,0.0,0.0,0.0,0.0,0.0,0.0,0.0,0.0,0.0,0.0,0.0,0.0,0.0,0.0,0.0,0.0,0.0,0.0,0.0,0.0,0.0,0.0,0.0,0.0,0.0,0.0,0.0,0.0,0.0,0.0,0.0,0.0,0.0,0.0,0.0,0.0,0.0,0.0,0.0,0.0,0.0,0.0,0.0,0.0,0.0,0.0,0.0,0.0,0.0,0.0,0.0,0.0,0.0,0.0,0.0,0.0,0.0,0.0,0.0,0.0,0.0,0.0,0.0,0.0,0.0,0.0,0.0,0.0,0.0,0.0,0.0,0.0,0.0,0.0,0.0,0.0,0.0,0.0,0.0,0.0,0.0,0.0,0.0,0.0,0.0,0.0,0.0,0.0,0.0,0.0,0.0,0.0,0.0,0.0,0.0,0.0,0.0,0.0,0.0,0.0,0.0,0.0,0.0,0.0,0.0,0.0,0.0,0.0,0.0,0.0,0.0,0.0,0.0,0.0,0.0,0.0,0.0,0.0,0.0,0.0,0.0,0.0,0.0,0.0,0.0,0.0,0.0,0.0,0.0,0.0,0.0,0.0,0.0,0.0,0.0,0.0,0.0,0.0,0.0,0.0,0.0,0.0,0.0,0.0,0.0,0.0,0.0,0.0,0.0,0.0,0.0,0.0,0.0,0.0,0.0,0.0,0.0,0.0,0.0,0.0,0.0,0.0,0.0,0.0,0.0,0.0,0.0,0.0,0.0,0.0,0.0,0.0,0.0,0.0,0.0,0.0,0.0,0.0,0.0,0.0,0.0,0.0,0.0,0.0,0.0,0.0,0.0,0.0,0.0,0.0,0.0,0.0,0.0,0.0,0.0,0.0,0.0,0.0,0.0,0.0,0.0,0.0,0.0,0.0,0.0,0.0,0.0,0.0,0.0,0.0,0.0,0.0,0.0,0.0,0.0,0.0,0.0,0.0,0.0,0.0,0.0,0.0,0.0,0.0,0.0,0.0,0.0,0.0,0.0,0.0,0.0,0.0,0.0,0.0,0.0,0.0,0.0,0.0,0.0,0.0,0.0,0.0,0.0,0.0,0.0,0.0,0.0,0.0,0.0,0.0,0.0,0.0,0.0,0.0,0.0,0.0,0.0,0.0,0.0,0.0,0.0,0.0,0.0,0.0,0.0,0.0,0.0,0.0,0.0,0.0,0.0,0.0,0.0,0.0,0.0,0.0,0.0,0.0,0.0,0.0,0.0,0.0,0.0,0.0,0.0,0.0,0.0,0.0,0.0,0.0,0.0,0.0,0.0,0.0,0.0,0.0,0.0,0.0,0.0,0.0,0.0,0.0,0.0,0.0,0.0,0.0,0.0,0.0,0.0,0.0,0.0,0.0,0.0,0.0,0.0,0.0,0.0,0.0,0.0,0.0,0.0,0.0,0.0,0.0,0.0,0.0,0.0,0.0,0.0,0.0,0.0,0.0,0.0,0.0,0.0,0.0,0.0,0.0,0.0,0.0,0.0,0.0,0.0,0.0,0.0,0.0,0.0,0.0,0.0,0.0,0.0,0.0,0.0,0.0,0.0,0.0,0.0,0.0,0.0,0.0,0.0,0.0,0.0,0.0,0.0,0.0,0.0,0.0,0.0,0.0,0.0,0.0,0.0,0.0,0.0,0.0,0.0,0.0,0.0,0.0,0.0,0.0,0.0,0.0,0.0,0.0,0.0,0.0,0.0,0.0,0.0,0.0,0.0,0.0,0.0,0.0,0.0,0.0,0.0,0.0,0.0,0.0,0.0,0.0,0.0,0.0,0.0,0.0,0.0,0.0,0.0,0.0,0.0,0.0,0.0,0.0,0.0,0.0,0.0,0.0,0.0,0.0,0.0,0.0,0.0,0.0,0.0,0.0,0.0,0.0,0.0,0.0,0.0,0.0,0.0,0.0,0.0,0.0,0.0,0.0,0.0,0.0,0.0,0.0,0.0,0.0,0.0,0.0,0.0,0.0,0.0,0.0,0.0,0.0,0.0,0.0,0.0,0.0,0.0,0.0,0.0,0.0,0.0,0.0,0.0,0.0,0.0,0.0,0.0,0.0,0.0,0.0,0.0,0.0,0.0,0.0,0.0,0.0,0.0,0.0,0.0,0.0,0.0,0.0,0.0,0.0,0.0,0.0,0.0,0.0,0.0,0.0,0.0,0.0,0.0,0.0,0.0,0.0,0.0,0.0,0.0,0.0,0.0,0.0,0.0,0.0,0.0,0.0,0.0,0.0,0.0,0.0,0.0,0.0,0.0,0.0,0.0,0.0,0.0,0.0,0.0,0.0,0.0,0.0,0.0,0.0,0.0,0.0,0.0,0.0,0.0,0.0,0.0,0.0,0.0,0.0,0.0,0.0,0.0,0.0,0.0,0.0,0.0,0.0,0.0,0.0,0.0,0.0,0.0,0.0,0.0,0.0,0.0,0.0,0.0,0.0,0.0,0.0,0.0,0.0,0.0,0.0,0.0,0.0,0.0,0.0,0.0,0.0,0.0,0.0,0.0,0.0,0.0,0.0,0.0,0.0,0.0,0.0,0.0,0.0,0.0,0.0,0.0,0.0,0.0,0.0,0.0,0.0,0.0,0.0,0.0,0.0,0.0,0.0,0.0,0.0,0.0,0.0,0.0,0.0,0.0,0.0,0.0,0.0,0.0,0.0,0.0,0.0,0.0,0.0,0.0,0.0,0.0,0.0,0.0,0.0,0.0,0.0,0.0,0.0,0.0,0.0,0.0,0.0,0.0,0.0,0.0,0.0,0.0,0.0,0.0,0.0,0.0,0.0,0.0,0.0,0.0,0.0,0.0,0.0,0.0,0.0,0.0,0.0,0.0,0.0,0.0,0.0,0.0,0.0,0.0,0.0,0.0,0.0,0.0,0.0,0.0,0.0,0.0,0.0,0.0,0.0,0.0,0.0,0.0,0.0,0.0,0.0,0.0,0.0,0.0,0.0,0.0,0.0,0.0,0.0,0.0,0.0,0.0,0.0,0.0,0.0,0.0,0.0,0.0,0.0,0.0,0.0,0.0,0.0,0.0,0.0,0.0,0.0,0.0,0.0,0.0,0.0,0.0,0.0,0.0,0.0,0.0,0.0,0.0,0.0,0.0,0.0,0.0,0.0,0.0,0.0,0.0,0.0,0.0,0.0,0.0,0.0,0.0,0.0,0.0,0.0,0.0,0.0,0.0,0.0,0.0,0.0,0.0,0.0,0.0,0.0,0.0,0.0,0.0,0.0,0.0,0.0,0.0,0.0,0.0,0.0,0.0,0.0,0.0,0.0,0.0,0.0,0.0,0.0,0.0,0.0,0.0,0.0,0.0,0.0,0.0,0.0,0.0,0.0,0.0,0.0,0.0,0.0,0.0,0.0,0.0,0.0,0.0,0.0,0.0,0.0,0.0,0.0,0.0,0.0,0.0,0.0,0.0,0.0,0.0,0.0,0.0,0.0,0.0,0.0,0.0,0.0,0.0,0.0,0.0,0.0,0.0,0.0,0.0,0.0,0.0,0.0,0.0,0.0,0.0,0.0,0.0,0.0,0.0,0.0,0.0,0.0,0.0,0.0,0.0,0.0,0.0,0.0,0.0,0.0,0.0,0.0,0.0,0.0,0.0,0.0,0.0,0.0,0.0,0.0,0.0,0.0,0.0,0.0,0.0,0.0,0.0,0.0,0.0,0.0,0.0,0.0,0.0,0.0,0.0,0.0,0.0,0.0,0.0,0.0,0.0,0.0,0.0,0.0,0.0,0.0,0.0,0.0,0.0,0.0,0.0,0.0,0.0,0.0,0.0,0.0,0.0,0.0,0.0,0.0,0.0,0.0,0.0,0.0,0.0,0.0,0.0,0.0,0.0,0.0,0.0,0.0,0.0,0.0,0.0,0.0,0.0,0.0,0.0,0.0,0.0,0.0,0.0,0.0,0.0,0.0,0.0,0.0,0.0,0.0,0.0,0.0,0.0,0.0,0.0,0.0,0.0,0.0,0.0,0.0,0.0,0.0,0.0,0.0,0.0,0.0,0.0,0.0,0.0,0.0,0.0,0.0,0.0,0.0,0.0,0.0,0.0,0.0,0.0,0.0,0.0,0.0,0.0,0.0,0.0,0.0,0.0,0.0,0.0,0.0,0.0,0.0,0.0,0.0,0.0,0.0,0.0,0.0,0.0,0.0,0.0,0.0,0.0,0.0,0.0,0.0,0.0,0.0,0.0,0.0,0.0,0.0,0.0,0.0,0.0,0.0,0.0,0.0,0.0,0.0,0.0,0.0,0.0,0.0,0.0,0.0,0.0,0.0,0.0,0.0,0.0,0.0,0.0,0.0,0.0,0.0,0.0,0.0,0.0,0.0,0.0,0.0,0.0,0.0,0.0,0.0,0.0,0.0,0.0,0.0,0.0,0.0,0.0,0.0,0.0,0.0,0.0,0.0,0.0,0.0,0.0,0.0,0.0,0.0,0.0,0.0,0.0,0.0,0.0,0.0,0.0,0.0,0.0,0.0,0.0,0.0,0.0,0.0,0.0,0.0,0.0,0.0,0.0,0.0,0.0,0.0,0.0,0.0,0.0,0.0,0.0,0.0,0.0,0.0,0.0,0.0,0.0,0.0,0.0,0.0,0.0,0.0,0.0,0.0,0.0,0.0,0.0,0.0,0.0,0.0,0.0,0.0,0.0,0.0,0.0,0.0,0.0,0.0,0.0,0.0,0.0,0.0,0.0,0.0,0.0,0.0,0.0,0.0,0.0,0.0,0.0,0.0,0.0,0.0,0.0,0.0,0.0,0.0,0.0,0.0,0.0,0.0,0.0,0.0,0.0,0.0,0.0,0.0,0.0,0.0,0.0,0.0,0.0,0.0,0.0,0.0,0.0,0.0,0.0,0.0,0.0,0.0,0.0,0.0,0.0,0.0,0.0,0.0,0.0,0.0,0.0,0.0,0.0,0.0,0.0,0.0,0.0,0.0,0.0,0.0,0.0,0.0,0.0,0.0,0.0,0.0,0.0,0.0,0.0,0.0,0.0,0.0,0.0,0.0,0.0,0.0,0.0,0.0,0.0,0.0,0.0,0.0,0.0,0.0,0.0,0.0,0.0,0.0,0.0,0.0,0.0,0.0,0.0,0.0,0.0,0.0,0.0,0.0,0.0,0.0,0.0,0.0,0.0,0.0,0.0,0.0,0.0,0.0,0.0,0.0,0.0,0.0,0.0,0.0,0.0,0.0,0.0,0.0,0.0,0.0,0.0,0.0,0.0,0.0,0.0,0.0,0.0,0.0,0.0,0.0,0.0,0.0,0.0,0.0,0.0,0.0,0.0,0.0,0.0,0.0,0.0,0.0,0.0,0.0,0.0,0.0,0.0,0.0,0.0,0.0,0.0,0.0,0.0,0.0,0.0,0.0,0.0,0.0,0.0,0.0,0.0,0.0,0.0,0.0,0.0,0.0,0.0,0.0,0.0,0.0,0.0,0.0,0.0,0.0,0.0,0.0,0.0,0.0,0.0,0.0,0.0,0.0,0.0,0.0,0.0,0.0,0.0,0.0,0.0,0.0,0.0,0.0,0.0,0.0,0.0,0.0,0.0,0.0,0.0,0.0,0.0,0.0,0.0,0.0,0.0,0.0,0.0,0.0,0.0,0.0,0.0,0.0,0.0,0.0,0.0,0.0,0.0,0.0,0.0,0.0,0.0,0.0,0.0,0.0,0.0,0.0,0.0,0.0,0.0,0.0,0.0,0.0,0.0,0.0,0.0,0.0,0.0,0.0,0.0,0.0,0.0,0.0,0.0,0.0,0.0,0.0,0.0,0.0,0.0,0.0,0.0,0.0,0.0,0.0,0.0,0.0,0.0,0.0,0.0,0.0,0.0,0.0,0.0,0.0,0.0,0.0,0.0,0.0,0.0,0.0,0.0,0.0,0.0,0.0,0.0,0.0,0.0,0.0,0.0,0.0,0.0,0.0,0.0,0.0,0.0,0.0,0.0,0.0,0.0,0.0,0.0,0.0,0.0,0.0,0.0,0.0,0.0,6.9258,0.0,0.0,0.0,0.0,0.0,0.0,0.0,0.0,0.0,0.0,0.0,0.0,0.0,0.0,0.0,0.0,0.0,0.0,0.0,0.0,0.0,0.0,0.0,0.0,0.0,0.0,0.0,0.0,0.0,0.0,0.0,0.0,0.0,0.0,0.0,0.0,0.0,0.0,0.0,0.0,0.0,0.0,0.0,0.0,0.0,0.0,0.0,0.0,0.0,0.0,0.0,0.0,0.0,0.0,0.0,0.0,0.0,0.0,0.0,0.0,0.0,0.0,0.0,0.0,0.0,0.0,0.0,0.0,0.0,0.0,0.0,0.0,0.0,0.0,0.0,0.0,0.0,0.0,0.0,0.0,0.0,0.0,0.0,0.0,0.0,0.0,0.0,0.0,0.0,0.0,0.0,0.0,0.0,0.0,0.0,0.0,0.0,0.0,0.0,0.0,0.0,0.0,0.0,0.0,0.0,0.0,0.0,0.0,0.0,0.0,0.0,0.0,0.0,0.0,0.0,0.0,7.0703,0.0,0.0,0.0,0.0,0.0,0.0,0.0,0.0,0.0,0.0,0.0,0.0,0.0,0.0,0.0,0.0,0.0,0.0,0.0,0.0,0.0,0.0,0.0,0.0,0.0,0.0,0.0,0.0,0.0,0.0,0.0,0.0,0.0,0.0,0.0,0.0,0.0,0.0,0.0,0.0,0.0,0.0,0.0,0.0,0.0,0.0,0.0,0.0,0.0,0.0,0.0,0.0,0.0,0.0,0.0,0.0,0.0,0.0,0.0,0.0,0.0,0.0,0.0,0.0,0.0,0.0,0.0,0.0,0.0,0.0,0.0,0.0,0.0,0.0,0.0,0.0,0.0,0.0,0.0,0.0,0.0,0.0,0.0,0.0,0.0,0.0,0.0,0.0,0.0,0.0,0.0,0.0,0.0,0.0,0.0,0.0,0.0,0.0,0.0,0.0,0.0,0.0,0.0,0.0,0.0,0.0,0.0,0.0,0.0,0.0,7.8555,7.8398,7.8398,7.8359,7.5351,7.3515,7.2656,0.0,0.0,0.0,0.0,0.0,0.0,0.0,0.0,0.0,0.0,0.0,0.0,0.0,0.0,0.0,0.0,0.0,0.0,0.0,0.0,0.0,0.0,0.0,0.0,0.0,0.0,0.0,0.0,0.0,0.0,0.0,0.0,0.0,0.0,0.0,0.0,0.0,0.0,0.0,7.7656,7.7656,7.7578,7.7226,0.0,0.0,0.0,0.0,0.0,0.0,0.0,0.0,0.0,0.0,0.0,0.0,0.0,0.0,0.0,0.0,0.0,0.0,0.0,0.0,0.0,0.0,0.0,0.0,0.0,0.0,0.0,0.0,0.0,0.0,0.0,0.0,0.0,0.0,0.0,0.0,0.0,0.0,0.0,0.0,0.0,0.0,0.0,0.0,6.3594,6.5234,0.0,0.0,0.0,0.0,0.0,0.0,0.0,0.0,0.0,0.0,0.0,0.0,0.0,0.0,7.7969,7.7851,7.8984,8.1289,8.1406,8.2304,8.3867,8.3086,8.3164,8.3828,8.2617,0.0,7.5312,7.457,0.0,0.0,0.0,0.0,0.0,0.0,0.0,0.0,0.0,0.0,0.0,0.0,0.0,0.0,0.0,0.0,0.0,0.0,0.0,0.0,0.0,0.0,0.0,0.0,0.0,0.0,0.0,0.0,0.0,0.0,0.0,0.0,0.0,0.0,0.0,0.0,7.8242,8.039,8.2109,8.2109,8.2109,8.1914,7.7773,7.4726,7.2656,7.1523,0.0,0.0,0.0,0.0,0.0,0.0,0.0,0.0,0.0,0.0,0.0,0.0,0.0,0.0,0.0,0.0,0.0,0.0,0.0,0.0,0.0,0.0,0.0,0.0,0.0,0.0,0.0,0.0,0.0,0.0,0.0,0.0,0.0,0.0,0.0,0.0,0.0,0.0,0.0,6.4336,6.5664,6.6914,6.75,6.8086,0.0,0.0,0.0,0.0,0.0,0.0,0.0,0.0,0.0,7.8672,7.9258,8.0586,8.2812,8.332,8.4336,8.5898,8.5898,8.6562,8.7734,8.7383,8.7422,8.7734,8.7344,8.5117,8.1484,7.8633,7.6406,7.4648,0.0,0.0,0.0,0.0,0.0,7.3594,0.0,0.0,0.0,0.0,0.0,0.0,0.0,0.0,0.0,0.0,0.0,0.0,0.0,0.0,0.0,7.6211,0.0,0.0,0.0,0.0,0.0,0.0,0.0,0.0,0.0,0.0,0.0,0.0,8.2383,8.4648,8.6523,8.6523,8.6523,8.6445,8.4023,8.0234,7.5508,7.418,7.2305,0.0,0.0,0.0,0.0,0.0,0.0,0.0,0.0,0.0,0.0,0.0,0.0,0.0,0.0,0.0,0.0,0.0,0.0,0.0,0.0,0.0,0.0,0.0,0.0,0.0,0.0,0.0,0.0,0.0,0.0,0.0,0.0,0.0,0.0,0.0,0.0,0.0,0.0,6.5976,6.7539,6.8398,6.9453,7.0117,0.0,0.0,0.0,0.0,0.0,0.0,7.7109,7.7617,7.9336,8.2578,8.3281,8.4883,8.7461,8.8164,8.8984,9.0039,9.0039,9.0508,9.1328,9.1328,9.1328,9.1328,9.1328,8.9883,8.7148,8.2578,7.918,7.6719,7.4961,7.3906,0.0,7.4062,7.4726,7.539,0.0,0.0,0.0,0.0,0.0,0.0,0.0,0.0,0.0,0.0,0.0,0.0,0.0,0.0,7.9765,8.0625,8.0781,8.082,0.0,0.0,0.0,0.0,0.0,0.0,0.0,0.0,0.0,8.3359,8.5976,8.8515,9.0976,9.0976,9.0976,9.0898,8.9101,8.5898,8.1523,7.6601,7.4922,7.5,0.0,0.0,0.0,0.0,0.0,0.0,0.0,0.0,0.0,0.0,0.0,0.0,0.0,0.0,0.0,0.0,0.0,0.0,0.0,0.0,0.0,0.0,0.0,0.0,0.0,0.0,0.0,0.0,0.0,0.0,0.0,0.0,0.0,0.0,0.0,0.0,0.0,0.0,0.0,6.9258,7.0859,0.0,0.0,0.0,0.0,7.4414,7.7461,7.9726,8.0703,8.2304,8.4414,8.7109,8.7226,8.8476,9.1015,9.1094,9.1953,9.3633,9.3633,9.4101,9.4922,9.4922,9.4922,9.4922,9.4922,9.3476,9.0664,8.5508,8.1875,7.9336,7.7656,7.6992,7.6953,7.6992,7.7031,7.7187,0.0,0.0,0.0,0.0,0.0,0.0,0.0,0.0,0.0,0.0,0.0,0.0,0.0,8.0273,8.3008,8.5,8.5195,8.4726,8.3594,0.0,0.0,0.0,0.0,0.0,0.0,0.0,8.2031,8.6875,9.0078,9.2656,9.4648,9.4648,9.4648,9.457,9.2812,9.0586,8.7734,8.1992,7.8125,7.5625,7.2344,7.0234,0.0,0.0,0.0,0.0,0.0,0.0,0.0,0.0,0.0,0.0,0.0,0.0,0.0,0.0,0.0,0.0,0.0,0.0,0.0,0.0,0.0,0.0,0.0,0.0,0.0,0.0,0.0,0.0,0.0,0.0,0.0,0.0,0.0,0.0,0.0,0.0,0.0,7.3437,7.5586,0.0,0.0,7.7226,7.7773,7.8633,8.1406,8.3672,8.5117,8.625,8.8086,9.0703,9.1328,9.2578,9.4648,9.5156,9.5742,9.6367,9.6367,9.6523,9.6797,9.6797,9.6797,9.6797,9.6797,9.5664,9.3594,9.0625,8.6562,8.2031,8.0312,7.8984,7.8047,7.8047,7.8711,7.9765,0.0,0.0,0.0,0.0,0.0,0.0,0.0,0.0,0.0,0.0,0.0,7.5156,8.0039,8.3672,8.6914,8.9844,8.875,8.7422,8.625,0.0,0.0,0.0,0.0,0.0,0.0,8.1289,8.5429,9.0898,9.3789,9.6054,9.7773,9.7773,9.7617,9.7265,9.582,9.4219,9.2304,8.7734,8.2773,7.7812,7.4883,7.289,7.1289,0.0,0.0,0.0,0.0,0.0,0.0,0.0,0.0,0.0,0.0,0.0,0.0,0.0,0.0,0.0,0.0,0.0,0.0,0.0,0.0,0.0,0.0,0.0,0.0,0.0,0.0,0.0,0.0,0.0,0.0,0.0,0.0,0.0,0.0,0.0,7.5234,7.6992,7.9726,8.1445,8.1445,8.1719,8.2265,8.3125,8.5586,8.7695,8.914,9.0,9.1523,9.3828,9.4492,9.5469,9.6875,9.7422,9.7695,9.7695,9.7695,9.7695,9.7695,9.7695,9.7695,9.7695,9.7695,9.6914,9.5547,9.4375,9.1054,8.6406,8.4101,8.2344,8.1133,8.1445,8.1875,8.2344,0.0,0.0,0.0,0.0,0.0,0.0,0.0,0.0,0.0,0.0,7.2734,7.7617,8.1953,8.7031,9.1562,9.5039,9.1328,8.875,8.8711,8.1445,0.0,0.0,0.0,0.0,8.1015,8.457,8.9297,9.5234,9.6953,9.8633,10.0312,10.0312,9.9883,9.8984,9.8203,9.6875,9.5156,9.3437,8.8828,8.2187,7.6953,7.5312,7.543,0.0,0.0,0.0,0.0,0.0,0.0,0.0,0.0,0.0,0.0,0.0,0.0,0.0,0.0,0.0,0.0,0.0,0.0,0.0,0.0,0.0,0.0,0.0,0.0,0.0,0.0,0.0,0.0,0.0,0.0,0.0,0.0,0.0,6.9648,7.4101,7.8008,7.9765,8.3008,8.5117,8.5156,8.5937,8.6797,8.7617,9.0039,9.1836,9.2695,9.3554,9.4804,9.6484,9.6523,9.6914,9.7695,9.7695,9.7695,9.7695,9.7695,9.7695,9.7695,9.7695,9.7695,9.7695,9.7695,9.7265,9.6523,9.6523,9.5,9.2383,8.8945,8.707,8.6367,8.7187,8.6445,8.4844,0.0,0.0,0.0,0.0,0.0,0.0,0.0,0.0,0.0,0.0,7.3398,7.9648,8.4609,9.0312,9.4883,9.7695,9.3437,9.0039,8.8789,0.0,0.0,0.0,0.0,0.0,8.3711,8.7812,9.1953,9.6133,9.8437,9.9844,10.0312,10.0898,10.0781,9.9961,10.039,9.9219,9.6953,9.5898,9.3242,8.9258,8.3476,7.9765,7.7344,0.0,0.0,0.0,0.0,0.0,0.0,0.0,0.0,0.0,0.0,0.0,0.0,0.0,0.0,0.0,0.0,0.0,0.0,0.0,0.0,0.0,0.0,0.0,0.0,0.0,0.0,0.0,0.0,0.0,0.0,0.0,0.0,7.2461,7.3125,7.7656,8.2226,8.5781,8.8203,8.9804,9.0429,9.1289,9.1601,9.1211,9.3594,9.5156,9.539,9.6211,9.6875,9.7344,9.7383,9.7461,9.7695,9.7695,9.7695,9.7695,9.7695,9.7695,9.7695,9.7695,9.7695,9.7695,9.7695,9.7578,9.7304,9.6758,9.6094,9.5078,9.1601,8.9336,8.7969,8.7617,8.7187,8.6828,0.0,0.0,0.0,0.0,0.0,0.0,0.0,0.0,0.0,0.0,7.4492,8.1367,8.6211,9.2148,9.6484,9.8281,9.375,8.9726,8.7265,0.0,0.0,0.0,0.0,8.2656,8.7461,9.1094,9.5,9.9179,10.0703,10.1797,10.25,10.3008,10.2617,10.1406,10.1914,10.0898,9.875,9.8281,9.6797,9.4375,9.0156,8.5976,8.1797,7.7578,7.5586,7.4765,7.2851,7.2578,7.2695,7.0117,0.0,0.0,0.0,0.0,0.0,0.0,0.0,0.0,0.0,0.0,0.0,0.0,0.0,0.0,0.0,0.0,0.0,0.0,0.0,0.0,0.0,0.0,0.0,0.0,7.4687,7.7851,8.0195,8.3086,8.6445,9.039,9.2109,9.3554,9.5117,9.539,9.5586,9.582,9.7226,9.7929,9.7578,9.8008,9.8086,9.7695,9.8047,9.8086,9.7695,9.8047,9.8242,9.8242,9.8242,9.8437,9.8789,9.8398,9.8242,0.0,9.7851,9.7695,9.7656,9.7187,9.6797,0.0,0.0,0.0,0.0,0.0,8.8474,8.8383,0.0,0.0,0.0,0.0,0.0,0.0,0.0,0.0,0.0,0.0,0.0,8.2422,8.6601,9.2461,9.6445,9.7344,9.2695,8.8203,0.0,0.0,0.0,7.918,8.332,8.7578,9.1797,9.4531,9.832,10.3203,10.3281,10.4101,10.5586,10.5703,10.4883,10.3203,10.3281,10.2383,10.0703,10.0586,9.9648,9.7969,9.6211,9.2461,8.7383,8.2344,8.0859,8.1015,7.7773,7.6172,7.5234,7.2617,0.0,0.0,0.0,0.0,0.0,0.0,0.0,0.0,0.0,0.0,0.0,0.0,0.0,0.0,0.0,0.0,0.0,0.0,0.0,0.0,0.0,0.0,0.0,0.0,7.9648,8.4375,8.8672,8.9531,9.082,9.3828,9.4961,9.6406,9.8789,9.8398,9.8633,10.0195,10.0312,9.9961,9.9179,0.0,0.0,0.0,0.0,9.8789,9.8008,9.875,9.914,9.914,9.914,9.9531,10.0312,9.9492,9.9101,9.8945,9.8164,9.7773,9.7695,9.7695,9.7226,9.6328,9.457,9.3395,9.2482,9.0842,9.0073,0.0,0.0,0.0,0.0,0.0,0.0,0.0,0.0,0.0,0.0,6.7851,7.5078,8.1094,8.4023,8.9726,9.3984,9.5547,9.0976,8.6211,0.0,0.0,8.0547,8.3515,8.7773,9.1758,9.539,9.8672,10.1914,10.5,10.5586,10.6093,10.6484,10.7187,10.6601,10.5,10.5703,10.5,10.3398,10.2695,10.1797,10.0586,9.8203,9.4531,9.0156,8.6367,8.4609,8.3867,8.1797,8.1406,8.1445,7.8828,7.7851,7.7187,7.4062,0.0,0.0,0.0,0.0,0.0,0.0,0.0,0.0,0.0,0.0,0.0,0.0,0.0,0.0,0.0,0.0,0.0,0.0,0.0,0.0,7.9922,8.4023,8.8008,9.2304,9.4648,9.5976,9.5976,9.6719,9.7695,9.8867,9.9492,9.9922,10.0312,10.0312,10.0195,10.0117,10.0,0.0,9.9804,9.9961,9.9961,9.9804,9.9961,10.0,10.0,0.0,0.0,10.0312,10.0117,9.9648,9.8984,9.8828,9.8359,9.7695,9.7695,9.7226,9.6328,9.457,9.3677,9.3214,9.218,9.1204,9.0241,0.0,0.0,0.0,0.0,0.0,0.0,0.0,0.0,0.0,0.0,7.3906,7.8945,8.0234,8.539,8.8242,8.6953,8.3281,0.0,0.0,8.1172,8.3789,8.8554,9.2461,9.6133,9.9648,10.2187,10.4804,10.7383,10.7812,10.8203,10.8711,10.9101,10.8593,10.7383,10.7383,10.6601,10.539,10.4609,10.3398,10.2109,10.0781,9.8515,9.539,9.1523,8.9492,8.8594,8.7265,8.6797,8.6328,8.332,8.2304,8.164,7.7773,7.5351,7.3515,0.0,0.0,0.0,0.0,0.0,0.0,0.0,0.0,0.0,0.0,0.0,0.0,0.0,0.0,7.039,0.0,0.0,8.0,8.4726,8.8789,9.2383,9.539,9.7656,9.8672,9.7851,9.8476,9.9336,10.0195,10.1094,10.1797,10.2187,10.2695,10.25,10.1601,10.1601,10.1211,10.0312,10.0703,10.0703,10.0312,10.0703,10.1015,10.1015,10.1015,10.1015,10.1015,10.1015,10.0195,9.8984,9.8984,9.8515,9.7695,9.7695,9.7461,9.6951,9.5537,9.4408,9.3474,9.2977,9.1817,9.03,0.0,0.0,0.0,0.0,0.0,0.0,0.0,0.0,0.0,0.0,0.0,7.6055,7.6406,8.0469,8.1601,0.0,0.0,0.0,0.0,8.3203,8.7539,9.3594,9.7148,10.0508,10.3789,10.539,10.75,11.0117,10.9883,11.0195,11.0898,11.0898,11.039,10.9492,10.8593,10.8008,10.7383,10.6211,10.5,10.3789,10.3203,10.2109,10.039,9.6406,9.4336,9.3437,9.2226,9.082,8.914,8.6719,8.5351,8.4062,8.0781,7.8906,7.7265,7.3789,7.1797,0.0,0.0,0.0,0.0,0.0,0.0,0.0,0.0,0.0,6.8672,7.0586,7.3008,7.582,7.914,8.2539,8.5976,8.9414,9.332,9.6484,9.8008,9.9726,10.0508,9.9609,10.0312,10.1094,10.1797,10.2812,10.3711,10.4414,10.4883,10.4609,10.3203,10.3008,10.2304,10.0781,10.1484,10.1484,10.0781,10.1484,10.1914,10.1914,10.1914,10.1914,10.1797,10.1719,10.0781,9.9492,9.914,9.8515,9.7695,9.7695,9.7687,9.7563,9.6696,9.5363,9.3859,9.3477,9.2245,9.0591,0.0,0.0,0.0,0.0,0.0,0.0,0.0,0.0,0.0,0.0,0.0,0.0,0.0,0.0,0.0,0.0,0.0,0.0,8.3008,8.6992,9.1992,9.8008,10.1601,10.4687,10.7383,10.8398,11.0195,11.2812,11.1992,11.1718,11.1797,11.1797,11.1289,11.039,10.9492,10.9492,11.0,10.7617,10.6914,10.7187,10.4101,10.2812,10.2304,9.9492,9.789,9.6836,9.4453,9.1094,8.7969,8.9062,8.6914,8.3789,8.4101,8.2539,7.9883,7.6484,0.0,7.0312,6.8555,6.6914,6.5898,6.6445,6.6601,6.7383,0.0,0.0,7.3281,7.582,7.8359,8.0976,8.3672,8.6992,9.0429,9.3906,9.6797,9.8906,9.9883,10.1484,10.2304,10.1406,10.2109,10.2617,10.2695,10.4219,10.5195,10.5312,10.4687,10.4297,10.4101,10.3281,10.2812,10.2617,10.2695,10.2695,10.2617,10.2695,10.2812,10.2812,10.2812,10.2812,10.2695,10.1992,10.1484,10.1211,9.9687,9.8515,9.7695,9.7695,9.7591,9.7413,9.7283,9.644,9.5016,9.3441,9.2595,9.1902,0.0,0.0,0.0,0.0,0.0,0.0,0.0,0.0,0.0,0.0,0.0,0.0,0.0,0.0,0.0,0.0,0.0,0.0,8.1797,8.8008,9.4414,10.1015,10.4101,10.7109,11.0195,11.1093,11.2383,11.3984,11.4101,11.3593,11.2695,11.3203,11.289,11.2109,11.1211,11.1015,11.1289,10.9609,10.8593,10.789,10.6406,10.5,10.3398,10.0781,9.7969,9.5234,9.3125,9.0586,0.0,0.0,8.6172,8.5078,8.4961,8.3125,8.0429,7.75,7.3828,0.0,6.8047,6.7617,0.0,0.0,7.0273,7.2656,7.457,7.7226,7.9765,8.1367,8.4101,8.6875,8.8984,9.1797,9.4414,0.0,9.8828,10.0781,10.1719,10.2383,10.2617,10.1719,10.2383,10.289,10.289,10.4492,10.5508,10.5508,10.5586,10.5508,10.5,10.4101,10.3398,10.289,10.289,10.289,10.289,10.289,10.289,10.289,10.289,10.2617,10.2109,10.2304,10.1797,10.0703,9.8984,9.7971,9.7553,9.7553,9.7386,9.7147,9.7003,9.6557,9.5865,9.4172,9.3095,9.221,0.0,0.0,0.0,0.0,0.0,0.0,0.0,0.0,0.0,0.0,0.0,0.0,0.0,0.0,0.0,0.0,0.0,0.0,0.0,8.7148,9.4609,10.2187,10.5195,10.8398,11.2187,11.3086,11.4101,11.5195,11.5508,11.5,11.3593,11.4218,11.3984,11.3203,11.1992,11.1797,11.2187,11.0586,10.9297,10.8281,10.7617,10.5781,10.3086,9.9804,9.5859,9.1953,9.0429,8.7851,0.0,0.0,8.2539,8.2578,8.2187,8.0937,7.9101,7.6523,7.3047,6.9648,6.8047,0.0,0.0,7.168,7.4844,7.8008,7.9375,8.2617,8.5664,8.6797,8.9375,9.1875,9.3398,9.5586,9.7539,9.8594,10.0781,10.25,10.3203,10.3281,10.2695,10.1094,10.1211,10.1484,10.1484,10.3711,10.5312,10.5781,10.6211,10.6211,10.5898,10.5,10.4219,10.3281,10.3281,10.3086,10.289,10.289,10.289,10.289,10.289,10.2383,10.1601,10.1992,10.1312,9.9768,9.8519,9.7712,9.7285,9.7318,9.7124,9.6888,9.6685,9.6557,9.6288,9.4631,9.348,9.2556,0.0,0.0,0.0,0.0,0.0,0.0,0.0,0.0,0.0,0.0,0.0,0.0,0.0,0.0,0.0,0.0,0.0,0.0,0.0,8.4258,9.1836,10.1211,10.4883,10.8711,11.3086,11.3984,11.5312,11.6914,11.6093,11.5312,11.4492,11.4492,11.3984,11.3086,11.1406,11.1601,11.289,10.9492,10.8515,10.8984,10.6601,10.3984,10.1094,9.6015,9.1445,8.7578,8.6679,0.0,0.0,0.0,7.5078,7.3828,7.4648,7.543,0.0,7.293,7.0312,0.0,0.0,0.0,7.293,7.7187,8.0195,8.2773,8.5351,8.7929,9.0273,9.1992,9.3789,9.5312,9.6211,9.7773,9.9492,10.1211,10.3008,10.4101,10.4219,10.4219,10.289,9.9492,9.8359,9.7851,0.0,10.1719,10.4883,10.6484,10.6015,10.5898,10.6601,10.5898,10.5117,10.4219,10.4219,10.3789,10.289,10.289,10.289,10.289,10.289,10.2383,10.1601,10.0781,9.9774,9.8744,9.8667,9.8051,9.7032,9.7015,9.6863,9.6594,9.6596,9.648,9.6095,9.4364,9.3672,9.3287,0.0,0.0,0.0,0.0,0.0,0.0,0.0,0.0,0.0,0.0,0.0,0.0,0.0,0.0,0.0,0.0,0.0,0.0,0.0,8.2851,9.0469,9.707,10.2812,10.7695,11.1406,11.2304,11.3593,11.5312,11.5586,11.5,11.3593,11.3593,11.3203,11.2304,11.1093,11.0898,11.1406,10.9609,10.9414,10.9804,10.5508,10.289,10.1015,9.5234,8.8594,8.1992,0.0,0.0,0.0,0.0,0.0,0.0,7.1562,0.0,0.0,6.8359,0.0,0.0,0.0,0.0,7.875,8.1953,8.5547,8.8633,9.0117,9.2461,9.4336,9.4336,9.4336,9.4258,9.3945,9.5312,9.7031,9.875,10.1406,10.3711,10.4883,10.4609,10.2695,9.8633,9.8906,0.0,0.0,0.0,0.0,10.3984,10.4492,10.5,10.5898,10.5586,10.5117,10.4219,10.4219,10.3789,10.289,10.289,10.289,10.289,10.289,10.2383,10.1601,10.0509,9.9541,9.8671,9.7902,9.7273,9.6731,9.6741,9.6596,9.6403,9.6403,9.6365,9.6095,9.4326,9.371,9.3403,0.0,0.0,0.0,0.0,0.0,0.0,0.0,0.0,0.0,0.0,0.0,0.0,0.0,0.0,0.0,0.0,0.0,0.0,0.0,0.0,8.4804,9.125,9.5781,10.0,10.4101,10.4687,10.6015,10.8086,10.9492,10.9804,10.9101,10.9687,10.9492,10.8711,10.8086,10.8008,10.8203,10.6719,10.6015,10.5508,10.039,9.7031,9.4531,8.8828,8.2226,0.0,0.0,0.0,0.0,0.0,0.0,0.0,0.0,0.0,0.0,0.0,0.0,0.0,0.0,7.9375,8.3633,8.6836,9.0195,9.2929,9.3789,9.5273,9.6172,9.4961,9.3554,9.2226,9.1367,9.1367,9.2578,9.582,9.7969,10.0508,10.4101,10.3281,10.1289,9.8515,9.8359,9.7617,0.0,0.0,0.0,10.2617,10.3711,10.4687,10.5898,10.6211,10.5898,10.4687,10.4687,10.4101,10.289,10.289,10.289,10.289,10.249,10.2178,10.1891,10.0108,9.9178,9.8788,9.7479,9.6711,9.648,9.648,9.6403,9.6288,9.6288,9.6095,9.5672,9.421,9.3518,9.3056,0.0,0.0,0.0,0.0,0.0,0.0,0.0,0.0,0.0,0.0,0.0,0.0,0.0,0.0,0.0,0.0,0.0,0.0,0.0,0.0,0.0,8.4023,8.4648,8.7109,9.2148,9.2304,9.3594,9.6172,9.8594,10.0195,10.1015,10.2695,10.3008,10.2187,10.2109,10.2617,10.3203,10.0703,9.8633,9.6719,9.1562,8.707,8.289,7.7773,0.0,0.0,0.0,0.0,0.0,0.0,0.0,0.0,0.0,0.0,0.0,0.0,0.0,7.3711,7.9687,8.3945,8.7656,9.1758,9.4101,9.5586,9.6328,9.6445,9.5859,9.4023,9.1484,8.9297,0.0,0.0,8.6836,9.2734,9.3359,9.539,10.2109,10.0898,9.9258,0.0,0.0,0.0,0.0,0.0,0.0,10.2695,0.0,10.4883,10.6601,10.7617,10.7304,10.5586,10.5586,10.4687,10.3008,10.3005,10.2886,10.2884,10.1828,10.1597,10.2328,9.9539,9.8595,9.898,9.7288,9.648,9.6288,9.6288,9.6288,9.6249,9.6249,9.5711,9.4826,9.3903,9.3095,9.2287,0.0,0.0,0.0,0.0,0.0,0.0,0.0,0.0,0.0,0.0,0.0,0.0,0.0,0.0,0.0,0.0,0.0,0.0,0.0,0.0,0.0,0.0,0.0,8.4492,0.0,0.0,0.0,9.164,9.2304,9.2734,9.2969,9.2734,9.2539,9.2304,9.1679,9.1562,9.1679,9.0351,8.9922,8.9648,0.0,8.207,8.1172,0.0,0.0,0.0,0.0,0.0,0.0,0.0,0.0,0.0,0.0,0.0,6.7617,0.0,0.0,7.8906,8.4375,8.9297,9.332,9.5078,9.6797,9.7773,9.6719,9.5508,9.3711,9.0664,8.6953,8.3633,0.0,0.0,0.0,9.0312,9.5664,0.0,10.4297,10.4297,0.0,10.0312,0.0,10.0195,9.8203,9.9804,0.0,0.0,10.4414,10.4883,10.6601,10.8086,10.8203,10.6406,10.6406,10.5898,10.4804,10.3997,10.3589,10.3589,10.2397,10.1313,10.0288,9.9386,9.8349,9.7211,9.6634,9.6365,9.6288,9.6288,9.5903,9.5326,9.5326,9.4788,9.3826,9.2364,9.171,9.1325,0.0,0.0,0.0,0.0,0.0,0.0,0.0,0.0,0.0,0.0,0.0,0.0,0.0,0.0,0.0,0.0,0.0,0.0,0.0,0.0,0.0,0.0,0.0,0.0,0.0,0.0,0.0,0.0,0.0,0.0,8.4922,8.4062,8.3633,8.3633,8.3594,8.375,8.4023,8.3164,0.0,0.0,0.0,0.0,0.0,0.0,0.0,0.0,0.0,0.0,0.0,0.0,0.0,6.6367,6.8476,7.0,7.1914,7.6601,0.0,8.3789,8.9375,9.3515,9.6523,9.7383,9.8008,9.7578,9.4375,9.2304,8.9687,8.4687,8.082,0.0,0.0,0.0,0.0,0.0,0.0,0.0,10.33,10.3709,10.3084,0.0,10.2421,0.0,10.0703,10.1806,10.3491,0.0,10.5497,10.6015,10.7695,10.8789,10.8711,10.7304,10.6914,10.6297,10.5299,10.3901,10.3367,10.3599,10.2508,10.12,9.9942,9.9326,9.825,9.698,0.0,9.6288,9.6288,9.5903,9.5441,9.4941,9.4557,9.3903,9.3056,9.2133,9.1287,9.0479,0.0,0.0,0.0,0.0,0.0,0.0,0.0,0.0,0.0,0.0,0.0,0.0,0.0,0.0,0.0,0.0,0.0,0.0,0.0,0.0,0.0,0.0,0.0,0.0,0.0,0.0,0.0,0.0,0.0,0.0,7.6953,7.6172,7.582,7.5859,7.6601,7.7344,7.7969,0.0,0.0,0.0,0.0,0.0,0.0,0.0,0.0,0.0,0.0,0.0,0.0,0.0,6.9528,6.9492,7.2187,7.4375,7.6953,8.1875,8.5156,8.8437,9.4023,9.6836,9.8359,9.8867,9.8242,9.6172,9.1015,8.8161,8.4713,7.8035,0.0,7.25,7.1601,7.2734,7.6154,8.3355,0.0,9.3059,10.1012,10.1511,10.1977,10.4199,10.3283,10.2498,10.281,10.2709,10.3806,10.6633,10.6994,10.7791,10.9287,10.9407,10.89,10.7884,10.6986,10.6091,10.5216,10.3483,10.279,10.329,10.2213,10.1173,10.0289,9.9288,9.8327,9.7442,0.0,0.0,9.6249,9.5365,9.4903,9.4749,9.3864,9.3018,9.2326,9.221,9.1133,8.971,0.0,0.0,0.0,0.0,0.0,0.0,0.0,0.0,0.0,0.0,6.3164,6.293,0.0,0.0,0.0,0.0,0.0,0.0,0.0,0.0,0.0,0.0,0.0,0.0,0.0,0.0,0.0,0.0,0.0,0.0,0.0,6.875,6.8672,6.8672,6.8828,6.8984,6.9101,0.0,0.0,0.0,0.0,0.0,0.0,0.0,0.0,0.0,0.0,0.0,0.0,0.0,7.2728,7.4062,7.7344,8.0547,8.3828,8.7578,9.0508,9.3242,9.6406,9.9062,10.0586,9.9336,9.7851,9.5351,9.0117,8.5302,0.0,0.0,7.172,6.9648,6.8789,7.2969,7.8269,8.361,0.0,0.0,0.0,0.0,10.3096,0.0,0.0,0.0,0.0,0.0,0.0,0.0,0.0,0.0,10.9601,10.9715,10.8975,10.7416,10.6498,10.5922,10.5793,10.3885,10.2982,10.3098,10.1904,10.0904,10.0096,9.9211,9.8327,9.7442,0.0,0.0,9.6249,9.5365,9.4557,9.3826,9.3018,9.2172,9.1325,9.0633,8.9748,8.8825,0.0,0.0,0.0,0.0,0.0,0.0,0.0,0.0,6.4375,6.6094,6.6367,6.6211,6.5703,6.5234,0.0,0.0,0.0,0.0,0.0,0.0,0.0,0.0,0.0,0.0,0.0,0.0,0.0,0.0,0.0,0.0,0.0,0.0,0.0,0.0,0.0,0.0,0.0,0.0,0.0,0.0,0.0,0.0,0.0,0.0,0.0,0.0,0.0,0.0,0.0,0.0,7.3297,7.6381,8.068,8.4395,8.7737,9.0426,9.3359,9.6211,9.8437,10.0586,10.1914,10.0117,9.7383,9.3275,8.62,0.0,0.0,0.0,6.7268,6.6396,6.644,7.1065,0.0,8.0792,8.6184,9.2133,9.875,0.0,0.0,0.0,0.0,0.0,0.0,0.0,0.0,0.0,0.0,0.0,11.1008,11.0298,10.8981,10.7285,10.5922,10.5612,10.6386,10.371,10.2713,10.3521,10.1981,10.0596,9.9404,9.8981,9.8096,9.6865,9.648,0.0,9.6249,9.5365,9.448,9.3633,9.2826,9.1979,9.1095,9.021,8.9402,8.8556,0.0,0.0,0.0,0.0,0.0,0.0,0.0,6.5898,6.6758,6.9258,7.0547,7.043,6.8242,6.707,6.6289,0.0,0.0,0.0,0.0,0.0,0.0,0.0,0.0,0.0,0.0,0.0,0.0,0.0,0.0,0.0,0.0,0.0,0.0,0.0,0.0,0.0,0.0,0.0,0.0,0.0,0.0,0.0,0.0,0.0,0.0,0.0,0.0,0.0,0.0,0.0,7.2476,7.6178,8.0722,8.5447,8.9644,9.1437,9.4493,9.7754,9.9824,10.1504,10.2406,10.0805,9.6626,9.0856,8.2823,7.7086,0.0,0.0,6.4012,6.4293,6.5148,0.0,7.3627,0.0,8.1823,8.7204,9.5288,9.7057,9.9135,0.0,0.0,0.0,0.0,0.0,0.0,0.0,0.0,0.0,11.1483,11.0294,10.8793,10.7098,10.5366,10.5097,10.6213,10.3097,10.2212,10.3289,10.202,10.0519,9.9058,9.8904,9.798,9.6557,9.6365,0.0,0.0,9.5057,9.421,9.3364,9.2556,9.1787,9.1095,9.021,8.9402,8.8556,0.0,0.0,0.0,0.0,0.0,0.0,0.0,6.6797,6.8515,7.3398,7.3476,7.2656,7.164,7.0117,6.8515,0.0,0.0,0.0,0.0,0.0,0.0,0.0,0.0,0.0,0.0,0.0,0.0,0.0,0.0,0.0,0.0,0.0,0.0,0.0,0.0,0.0,0.0,0.0,0.0,0.0,0.0,0.0,0.0,0.0,0.0,0.0,0.0,0.0,0.0,0.0,0.0,7.1898,7.4714,8.1937,8.9601,9.0571,0.0,0.0,10.0105,10.1426,10.1911,10.0994,9.5236,8.8365,8.2857,0.0,0.0,6.5524,6.473,6.4985,6.5866,0.0,0.0,0.0,0.0,8.4362,9.1902,9.5595,9.825,10.0289,0.0,0.0,0.0,0.0,0.0,0.0,0.0,0.0,0.0,10.9098,10.8213,10.6521,10.4789,10.3982,10.4212,10.2289,10.1404,10.152,10.1404,10.0789,9.9942,9.9173,9.8288,9.7365,0.0,0.0,0.0,9.4172,9.3326,9.2518,9.1672,9.1287,9.1095,9.021,8.9402,8.8556,0.0,0.0,0.0,0.0,0.0,0.0,6.6367,6.6914,6.875,7.3906,7.5195,7.5117,7.3711,7.2969,7.1055,0.0,0.0,0.0,0.0,0.0,0.0,0.0,0.0,0.0,0.0,0.0,0.0,0.0,0.0,0.0,0.0,0.0,0.0,0.0,0.0,0.0,0.0,0.0,0.0,0.0,0.0,0.0,0.0,0.0,0.0,0.0,0.0,0.0,0.0,0.0,0.0,0.0,7.0591,7.5322,0.0,0.0,9.0416,9.4682,9.8933,10.1478,10.2508,10.1107,9.5012,8.7861,8.2111,0.0,6.8976,6.5422,6.4666,6.4936,6.5807,6.7295,0.0,0.0,0.0,0.0,8.6017,8.8286,9.1479,9.7788,10.0404,0.0,0.0,0.0,0.0,0.0,0.0,0.0,0.0,10.8906,10.8098,10.6521,10.4789,10.3905,10.3905,10.2212,10.1289,10.1289,10.0789,9.9865,9.8519,9.8173,9.7288,9.598,0.0,0.0,0.0,9.3826,9.321,9.2479,9.2133,9.1325,9.0325,8.9479,8.8632,8.7752,0.0,0.0,0.0,0.0,0.0,6.289,6.6367,6.7539,6.9609,7.4023,7.5898,7.625,7.4765,7.3711,7.1601,6.7969,0.0,0.0,0.0,0.0,0.0,0.0,0.0,0.0,0.0,0.0,0.0,0.0,0.0,0.0,0.0,0.0,0.0,0.0,0.0,0.0,0.0,0.0,0.0,0.0,0.0,0.0,0.0,0.0,0.0,0.0,0.0,0.0,0.0,0.0,0.0,0.0,0.0,0.0,0.0,0.0,8.6603,9.1487,9.6828,10.0327,10.2097,10.0596,9.4244,8.689,0.0,0.0,6.8681,6.559,6.4974,6.5166,6.5782,6.6359,6.7782,7.0937,0.0,7.3976,8.1747,8.3708,8.7055,0.0,0.0,0.0,0.0,0.0,0.0,0.0,0.0,0.0,0.0,10.8406,10.7521,10.6097,10.4597,10.3712,10.3097,10.1712,10.0789,10.0596,9.9981,9.8942,9.7519,9.7519,9.6596,9.498,0.0,0.0,0.0,9.3364,9.2864,9.2095,9.1825,9.0979,8.9787,8.8709,8.7795,8.6926,0.0,0.0,0.0,0.0,0.0,0.0,0.0,6.9023,7.1601,7.4258,7.5351,7.5586,7.4687,7.1562,6.9492,6.9375,0.0,0.0,0.0,0.0,0.0,0.0,0.0,0.0,0.0,0.0,6.8203,6.8203,6.9883,0.0,0.0,0.0,0.0,0.0,0.0,0.0,0.0,0.0,0.0,0.0,0.0,0.0,0.0,0.0,0.0,0.0,0.0,0.0,0.0,0.0,0.0,0.0,0.0,0.0,0.0,0.0,8.2785,8.8556,9.3672,9.7557,9.9904,9.9019,9.2441,8.5016,0.0,0.0,6.7936,6.6244,6.5897,6.5897,6.5897,6.5897,6.6744,6.9321,7.1091,7.4284,8.0285,8.3978,8.7055,0.0,0.0,0.0,0.0,0.0,0.0,0.0,0.0,0.0,0.0,10.729,10.602,10.5097,10.4289,10.3097,10.1289,10.0481,9.9673,9.8827,9.8827,9.8365,9.7519,9.7519,9.6596,0.0,0.0,0.0,0.0,9.2518,9.2018,9.1133,9.0287,8.994,8.971,8.8017,8.7004,8.6265,0.0,0.0,0.0,0.0,0.0,0.0,0.0,6.4922,6.6601,6.9805,7.0469,7.0976,7.1836,7.043,6.9219,6.8633,0.0,0.0,0.0,0.0,0.0,0.0,0.0,0.0,0.0,0.0,6.7832,6.8878,6.9401,7.0195,7.1162,0.0,0.0,0.0,0.0,0.0,0.0,0.0,0.0,0.0,0.0,0.0,0.0,0.0,0.0,0.0,0.0,0.0,0.0,0.0,0.0,0.0,0.0,0.0,0.0,0.0,0.0,0.0,8.5401,8.8825,9.1095,8.9671,8.5055,8.0092,7.7015,7.2668,6.8629,6.6359,6.632,6.6551,6.6013,6.6859,6.8436,7.0975,7.236,0.0,0.0,0.0,0.0,0.0,0.0,0.0,0.0,0.0,0.0,0.0,0.0,0.0,0.0,10.6713,10.602,10.5097,10.3212,10.1597,10.0481,9.9635,9.875,9.7904,9.7904,9.7173,9.5788,9.5788,0.0,0.0,0.0,0.0,0.0,9.0979,9.0556,9.0248,8.9402,8.8457,8.7465,8.6929,8.5914,8.476,0.0,0.0,0.0,0.0,0.0,0.0,0.0,6.3359,6.4648,6.6484,6.6992,6.7851,6.957,6.8398,6.7656,6.8164,0.0,0.0,0.0,0.0,0.0,0.0,0.0,0.0,0.0,6.6775,6.7553,6.9076,6.9412,7.0323,7.1824,7.1312,7.036,0.0,0.0,0.0,0.0,0.0,0.0,0.0,0.0,0.0,6.5897,0.0,0.0,0.0,0.0,0.0,0.0,0.0,0.0,0.0,0.0,0.0,0.0,0.0,0.0,0.0,0.0,8.3593,8.6132,8.4747,8.1208,0.0,0.0,0.0,6.8167,6.6282,6.6551,6.6859,6.6051,6.7013,6.8436,0.0,0.0,0.0,0.0,0.0,0.0,0.0,0.0,0.0,0.0,0.0,0.0,0.0,0.0,0.0,0.0,0.0,10.4212,10.3712,10.2097,10.0596,9.9135,9.8596,9.7865,9.7057,9.7057,9.6326,9.498,9.498,0.0,0.0,0.0,0.0,0.0,8.9787,8.944,8.9329,8.8265,8.7274,8.6341,8.5785,8.4826,8.372,0.0,0.0,0.0,0.0,0.0,0.0,0.0,0.0,6.5039,6.4219,6.4805,6.5937,6.7578,6.5625,6.5195,6.7695,0.0,0.0,0.0,0.0,0.0,0.0,0.0,0.0,0.0,6.6531,6.7299,6.8777,6.9717,7.0892,7.2304,7.2409,7.1514,6.9744,6.8821,0.0,0.0,0.0,0.0,0.0,0.0,0.0,0.0,0.0,0.0,0.0,0.0,0.0,0.0,0.0,0.0,0.0,0.0,0.0,0.0,0.0,0.0,0.0,0.0,8.0823,8.367,8.2747,0.0,0.0,0.0,0.0,0.0,6.6051,6.6551,6.6859,6.6128,6.6628,6.7244,0.0,0.0,0.0,0.0,0.0,0.0,0.0,0.0,0.0,0.0,0.0,0.0,0.0,0.0,0.0,0.0,0.0,10.1212,10.1019,10.1019,9.9827,9.7519,9.7442,9.7019,9.6211,9.6211,9.5711,9.4826,9.4826,0.0,0.0,0.0,0.0,0.0,8.8906,8.856,8.841,8.6849,8.618,8.6018,8.4637,8.3667,8.3132,0.0,0.0,0.0,0.0,0.0,0.0,0.0,0.0,0.0,0.0,6.25,6.2773,6.3164,6.3281,6.3828,0.0,0.0,0.0,0.0,0.0,0.0,0.0,0.0,0.0,6.6387,6.6415,6.6858,6.7749,6.9232,7.0409,7.1283,7.1937,7.1668,7.0552,6.9052,6.7475,0.0,0.0,0.0,0.0,0.0,0.0,0.0,0.0,0.0,0.0,6.5897,6.6282,0.0,0.0,0.0,0.0,0.0,0.0,0.0,0.0,6.9321,0.0,7.1514,0.0,7.3822,7.236,7.0706,6.9321,0.0,0.0,0.0,0.0,0.0,6.7051,6.6859,6.7513,6.8513,0.0,0.0,0.0,0.0,0.0,0.0,0.0,0.0,0.0,0.0,0.0,0.0,0.0,0.0,0.0,0.0,0.0,10.0404,9.8442,9.7788,9.748,9.7519,9.6903,9.6134,9.5288,9.5288,9.4518,9.3095,9.3095,0.0,0.0,0.0,0.0,8.9752,8.7734,8.6927,8.681,8.5296,8.4393,8.3913,8.3563,8.2994,8.2434,0.0,0.0,0.0,0.0,0.0,0.0,0.0,0.0,0.0,0.0,0.0,0.0,0.0,0.0,0.0,0.0,0.0,0.0,0.0,0.0,0.0,0.0,0.0,6.6376,6.6167,6.6244,6.6974,6.8475,6.936,7.0591,7.2091,7.2168,7.1745,7.0821,6.8744,6.709,6.5897,0.0,0.0,0.0,0.0,0.0,0.0,0.0,0.0,0.0,6.5897,6.6167,0.0,6.6551,6.7705,6.9013,0.0,0.0,0.0,0.0,6.9898,7.0244,7.0244,7.0283,7.0129,6.9206,6.8052,6.709,6.709,0.0,0.0,0.0,0.0,0.0,6.6628,0.0,0.0,0.0,0.0,0.0,0.0,0.0,0.0,0.0,0.0,0.0,0.0,0.0,0.0,0.0,0.0,0.0,0.0,0.0,9.875,9.7019,9.6134,9.5903,9.6365,9.5518,9.4864,9.4403,9.4403,9.3749,9.2479,9.2095,0.0,0.0,0.0,0.0,8.7657,8.6312,8.5414,8.4727,8.4016,8.3543,8.3132,8.2853,8.2497,8.2186,0.0,0.0,0.0,0.0,0.0,0.0,0.0,0.0,0.0,0.0,0.0,0.0,0.0,0.0,0.0,0.0,0.0,0.0,0.0,0.0,0.0,0.0,0.0,6.623,6.5897,6.6013,6.7128,6.9283,6.9821,7.1245,7.3514,7.3129,7.2245,7.0783,6.8513,6.6898,6.5936,6.6628,0.0,0.0,6.6628,0.0,0.0,0.0,0.0,0.0,0.0,0.0,0.0,6.5897,6.6936,6.8244,6.8359,0.0,0.0,0.0,0.0,0.0,7.1052,7.0514,6.986,6.9744,6.8398,6.709,6.709,0.0,0.0,0.0,0.0,0.0,0.0,0.0,0.0,0.0,0.0,0.0,0.0,0.0,0.0,0.0,0.0,0.0,0.0,0.0,0.0,0.0,0.0,0.0,0.0,0.0,0.0,9.6134,9.5249,9.4749,9.4595,9.4018,9.3633,9.3518,9.3364,9.2903,9.2056,9.121,0.0,0.0,0.0,0.0,8.5037,8.4605,8.3756,8.2774,8.2818,8.2941,8.2994,8.226,8.2076,8.2186,0.0,0.0,0.0,0.0,0.0,0.0,0.0,0.0,0.0,0.0,0.0,0.0,0.0,0.0,0.0,0.0,0.0,0.0,0.0,0.0,0.0,6.6144,6.6165,6.6051,6.5897,6.5897,6.6436,6.7513,7.0398,7.2399,7.3553,7.5553,7.4514,7.086,6.9783,6.8013,6.5897,6.6013,6.6013,6.5897,6.6013,0.0,0.0,0.0,0.0,0.0,0.0,0.0,0.0,6.5897,6.6513,6.7436,6.8167,0.0,0.0,0.0,0.0,0.0,7.1783,7.136,7.0552,6.986,6.8398,6.709,6.709,0.0,0.0,0.0,0.0,0.0,0.0,0.0,0.0,0.0,0.0,0.0,0.0,0.0,0.0,0.0,0.0,0.0,0.0,0.0,0.0,0.0,0.0,0.0,0.0,0.0,0.0,9.5249,9.4364,9.3557,9.2903,9.3441,9.3364,9.2672,9.1941,9.1133,9.0287,8.944,8.8689,0.0,0.0,8.5067,8.4173,8.227,8.1714,8.2072,8.1514,8.1755,8.227,8.148,8.1636,8.2186,0.0,0.0,0.0,0.0,0.0,0.0,0.0,0.0,0.0,0.0,0.0,0.0,0.0,0.0,0.0,0.0,0.0,0.0,0.0,0.0,0.0,6.6115,6.6013,6.5936,6.5897,6.6782,6.7898,6.9129,7.2091,7.4014,7.4861,7.513,7.3707,7.086,7.0052,6.8513,6.6551,6.6551,6.6282,6.5897,0.0,0.0,0.0,0.0,0.0,0.0,0.0,0.0,0.0,0.0,6.6436,6.7167,6.7552,0.0,0.0,0.0,0.0,0.0,7.0167,6.986,6.959,6.9667,6.909,6.8244,6.7321,0.0,0.0,0.0,0.0,0.0,0.0,0.0,0.0,0.0,0.0,0.0,0.0,0.0,0.0,0.0,0.0,0.0,0.0,0.0,0.0,0.0,0.0,0.0,0.0,0.0,0.0,0.0,9.2787,9.1941,9.1095,9.1018,9.1018,9.1095,9.0248,8.9633,8.921,8.8038,8.7043,8.6227,0.0,8.3077,8.1604,8.1045,8.0542,8.017,8.032,8.0571,8.0865,8.0498,8.0571,8.0901,0.0,0.0,0.0,0.0,0.0,0.0,0.0,0.0,0.0,0.0,0.0,0.0,0.0,0.0,0.0,0.0,0.0,0.0,0.0,0.0,6.6307,6.6051,6.6128,6.6167,6.6167,6.7859,6.9629,7.1514,7.4245,7.613,7.713,7.5053,7.3168,7.1475,7.0244,6.8744,6.709,6.709,6.6628,6.5897,0.0,0.0,0.0,0.0,0.0,0.0,0.0,0.0,0.0,0.0,0.0,0.0,0.0,0.0,0.0,6.8552,6.8859,6.9283,6.8821,6.8706,6.8859,6.9513,6.9552,6.9206,6.8475,0.0,0.0,0.0,0.0,0.0,0.0,0.0,0.0,0.0,0.0,0.0,0.0,0.0,0.0,0.0,0.0,0.0,0.0,0.0,0.0,0.0,0.0,0.0,0.0,0.0,0.0,0.0,9.1633,9.0787,8.9902,8.8902,8.8825,8.9633,8.8644,8.807,8.7804,8.6271,8.5056,8.4088,8.2718,8.1065,7.9316,7.9799,7.9394,7.8662,7.9286,7.9507,7.9543,7.9727,7.9653,7.9543,0.0,0.0,0.0,0.0,0.0,0.0,0.0,0.0,0.0,0.0,0.0,0.0,0.0,0.0,0.0,0.0,0.0,0.0,0.0,0.0,6.6269,6.5936,6.6628,6.7013,6.7013,6.8706,7.0821,7.3322,7.6592,7.9092,8.0669,7.7361,7.4938,7.3206,7.0783,6.8744,6.709,6.709,6.6628,6.5897,6.5897,0.0,0.0,0.0,0.0,0.0,0.0,0.0,0.0,0.0,0.0,0.0,0.0,0.0,6.7436,0.0,6.8436,6.8667,6.9398,6.9629,6.9629,6.9667,6.909,0.0,7.1321,7.1206,0.0,0.0,0.0,0.0,0.0,0.0,0.0,0.0,0.0,0.0,0.0,0.0,0.0,0.0,0.0,0.0,0.0,0.0,0.0,0.0,0.0,0.0,0.0,0.0,0.0,0.0,0.0,9.0787,8.9902,8.8286,8.794,8.8786,8.7274,8.6156,8.5393,8.3839,8.2385,8.1045,8.0149,7.9315,7.8639,7.7843,7.799,7.8589,7.8662,7.8699,7.8772,7.9507,7.9323,7.8647,0.0,0.0,0.0,0.0,0.0,0.0,0.0,0.0,0.0,0.0,0.0,0.0,0.0,0.0,0.0,0.0,0.0,0.0,0.0,6.5234,6.5576,6.5897,6.5667,6.6282,6.7859,7.0629,7.3553,7.6592,7.9477,8.0131,7.8669,7.6284,7.3745,7.1091,7.0129,6.8744,6.7128,6.7667,6.7128,6.5897,6.5897,6.5897,0.0,0.0,0.0,0.0,0.0,0.0,0.0,0.0,6.5897,0.0,0.0,0.0,0.0,0.0,0.0,6.7436,6.6705,6.7282,6.7975,6.7475,6.8282,0.0,0.0,0.0,0.0,0.0,0.0,0.0,0.0,0.0,0.0,0.0,0.0,0.0,0.0,0.0,0.0,0.0,0.0,0.0,0.0,0.0,0.0,0.0,0.0,0.0,0.0,0.0,0.0,0.0,0.0,8.844,8.7555,8.6007,8.5131,8.4978,8.486,8.4234,8.2968,8.1996,8.1003,7.9948,7.9274,7.8528,7.7781,7.7451,7.7524,7.7818,7.7818,7.7818,7.7855,7.8148,7.7687,7.6838,0.0,0.0,0.0,0.0,0.0,0.0,0.0,0.0,0.0,0.0,0.0,0.0,0.0,0.0,0.0,0.0,0.0,0.0,6.4397,6.4422,6.473,6.5474,6.5166,6.6205,6.8744,7.2129,7.5284,7.813,8.0939,8.0592,7.7246,7.5515,7.3053,7.0052,6.9821,6.9052,6.7936,6.8282,6.759,6.6244,6.6013,6.6051,0.0,0.0,0.0,0.0,0.0,0.0,0.0,0.0,0.0,0.0,0.0,0.0,0.0,0.0,0.0,0.0,6.4897,6.5243,6.582,0.0,0.0,0.0,7.236,0.0,0.0,0.0,0.0,0.0,0.0,0.0,0.0,0.0,0.0,0.0,0.0,0.0,0.0,0.0,0.0,0.0,0.0,0.0,0.0,0.0,0.0,0.0,0.0,0.0,0.0,0.0,0.0,0.0,8.5427,8.3941,8.2732,8.1679,8.2254,8.199,8.0981,8.0358,7.9611,7.8795,7.8357,7.7855,7.7304,7.7304,7.7304,7.7304,7.7304,7.7118,7.6793,7.6793,7.6197,7.5299,0.0,0.0,0.0,0.0,0.0,0.0,0.0,0.0,0.0,0.0,0.0,0.0,0.0,0.0,0.0,0.0,0.0,0.0,6.3537,6.3575,6.3883,6.4589,6.5436,6.7051,6.9629,7.2937,7.5515,7.7284,8.0631,8.0554,7.7207,7.5476,7.3322,7.0821,7.0052,6.9706,6.9629,6.8783,6.7898,6.7051,6.6244,6.6397,6.7013,0.0,0.0,0.0,0.0,0.0,0.0,0.0,0.0,0.0,0.0,0.0,0.0,0.0,6.5282,6.4589,6.4589,0.0,0.0,0.0,0.0,0.0,0.0,0.0,0.0,0.0,0.0,0.0,0.0,0.0,0.0,0.0,0.0,0.0,0.0,0.0,0.0,0.0,0.0,0.0,0.0,0.0,0.0,0.0,0.0,0.0,0.0,0.0,0.0,0.0,0.0,0.0,8.3864,8.2437,8.0944,7.9481,7.9481,7.9481,7.9464,7.8846,7.8112,7.7304,7.7304,7.7304,7.7304,7.7304,7.7304,7.7304,7.7304,7.6728,7.5787,7.5787,7.512,7.4158,0.0,0.0,0.0,0.0,0.0,0.0,0.0,0.0,0.0,0.0,0.0,0.0,0.0,0.0,0.0,0.0,0.0,0.0,6.3358,6.2882,6.3166,6.4551,6.4282,6.5243,6.7821,7.0591,7.3745,7.7284,7.8861,7.7284,7.2783,7.2899,7.1591,6.9167,7.0129,6.9898,6.8783,6.8513,6.8244,6.7936,6.709,6.7244,6.7936,0.0,0.0,0.0,0.0,0.0,0.0,0.0,0.0,0.0,0.0,0.0,0.0,6.5166,6.4782,6.4359,6.3166,0.0,0.0,0.0,0.0,0.0,0.0,0.0,0.0,0.0,0.0,0.0,0.0,0.0,0.0,0.0,0.0,0.0,0.0,0.0,0.0,0.0,0.0,0.0,0.0,0.0,0.0,0.0,0.0,0.0,0.0,0.0,0.0,0.0,0.0,0.0,8.1521,8.0643,7.9658,7.8644,7.8216,7.7961,7.7961,7.7794,7.7561,7.7304,7.7304,7.7304,7.7304,7.7304,7.7304,7.7304,7.7304,7.6728,7.5787,7.5787,7.4684,7.3171,0.0,0.0,0.0,0.0,0.0,0.0,0.0,0.0,0.0,0.0,6.1719,6.167,0.0,0.0,0.0,0.0,0.0,0.0,0.0,6.2166,6.2704,6.4051,6.3897,6.5166,6.8052,6.9629,7.1706,7.4284,7.5784,7.4591,7.0937,7.2476,7.1822,6.9513,7.186,7.1783,6.9898,6.9552,6.9206,6.8821,6.759,6.7821,6.8783,0.0,0.0,0.0,0.0,0.0,0.0,0.0,0.0,0.0,0.0,0.0,0.0,6.4743,6.4359,6.3858,0.0,0.0,0.0,0.0,0.0,0.0,0.0,0.0,0.0,0.0,0.0,0.0,0.0,0.0,0.0,0.0,0.0,0.0,0.0,0.0,0.0,0.0,0.0,0.0,0.0,0.0,0.0,0.0,0.0,0.0,0.0,0.0,0.0,0.0,0.0,0.0,7.9654,7.8962,7.8348,7.7903,7.751,7.7304,7.7304,7.7304,7.7304,7.7304,7.7304,7.7304,7.7304,7.7304,7.7304,7.7243,7.6856,7.6094,7.512,7.4757,7.3571,7.2193,0.0,0.0,0.0,0.0,0.0,0.0,0.0,0.0,0.0,0.0,6.1677,6.1619,0.0,0.0,0.0,0.0,0.0,0.0,0.0,0.0,6.2474,6.3281,6.4205,6.6167,6.9283,6.936,6.936,6.936,7.1898,7.2322,7.0744,7.3206,7.3168,7.1168,7.4361,7.4437,7.2129,7.1206,7.0398,6.9667,6.8013,6.8282,6.9513,6.7859,0.0,0.0,0.0,0.0,0.0,0.0,0.0,0.0,0.0,0.0,0.0,6.4512,6.3858,0.0,0.0,0.0,0.0,0.0,0.0,0.0,0.0,0.0,0.0,0.0,0.0,0.0,0.0,0.0,0.0,0.0,0.0,0.0,0.0,0.0,0.0,0.0,0.0,0.0,0.0,0.0,0.0,0.0,0.0,0.0,0.0,0.0,0.0,0.0,0.0,0.0,7.82,7.7592,7.7304,0.0,7.7304,7.7304,7.7304,7.7304,7.7304,7.7304,7.7304,7.7304,7.7304,7.7181,7.7181,7.7082,7.6027,7.5048,7.4005,7.309,7.2108,7.1312,0.0,0.0,0.0,0.0,0.0,0.0,0.0,0.0,0.0,0.0,0.0,0.0,0.0,0.0,0.0,0.0,0.0,0.0,0.0,0.0,6.2474,6.3281,6.4782,6.5974,6.6705,6.6705,6.6705,6.6705,6.9283,6.9975,6.8975,7.086,7.1783,7.1975,7.3399,7.336,7.2091,7.0591,7.0206,7.0552,6.9552,6.936,6.959,6.8513,6.7821,0.0,0.0,0.0,0.0,0.0,0.0,0.0,0.0,6.5282,6.4474,6.3782,6.3012,0.0,0.0,0.0,0.0,0.0,0.0,0.0,0.0,0.0,0.0,0.0,0.0,0.0,0.0,0.0,0.0,0.0,0.0,0.0,0.0,0.0,0.0,0.0,0.0,0.0,0.0,0.0,0.0,0.0,0.0,0.0,0.0,0.0,0.0,0.0,0.0,7.751,7.751,7.7365,7.7304,0.0,7.7304,7.7304,7.7304,7.7304,7.7304,7.7304,7.7304,7.7304,7.7243,7.6432,7.6094,7.6027,7.4976,7.4005,7.3125,7.288,7.2108,7.1312,0.0,0.0,0.0,0.0,0.0,0.0,0.0,0.0,0.0,0.0,0.0,0.0,0.0,0.0,0.0,0.0,0.0,0.0,0.0,0.0,6.2627,6.3858,6.5205,6.5897,6.5897,6.5897,6.5897,6.5897,6.7628,6.8436,6.8436,7.0129,7.136,7.2283,7.3937,7.3783,7.2129,7.0821,7.0283,7.0206,6.8975,6.8706,6.8936,6.7667,6.6936,6.6397,6.559,0.0,0.0,0.0,0.0,0.0,0.0,0.0,6.3897,6.3435,0.0,0.0,0.0,0.0,0.0,0.0,0.0,0.0,0.0,0.0,0.0,0.0,0.0,0.0,0.0,0.0,0.0,0.0,0.0,0.0,0.0,0.0,0.0,0.0,0.0,0.0,0.0,0.0,0.0,0.0,0.0,0.0,0.0,0.0,0.0,0.0,7.6677,7.657,7.6166,7.6166,7.6166,7.6166,7.6166,7.635,7.6754,7.7157,7.7304,7.7243,7.6793,7.6563,7.6498,7.551,7.5048,7.4976,7.4005,7.3252,7.2714,7.2279,7.1776,7.1312,0.0,0.0,0.0,0.0,0.0,0.0,0.0,0.0,0.0,0.0,0.0,0.0,0.0,0.0,0.0,0.0,0.0,0.0,0.0,0.0,0.0,6.4551,6.5282,6.5743,6.5897,6.5897,6.5897,6.5897,6.6705,6.7628,6.8667,7.0206,7.136,7.2283,7.4399,7.4091,7.1898,7.1052,7.0206,6.936,6.7744,6.7436,6.7821,6.6244,6.559,6.5359,6.4628,6.4474,6.4705,6.5436,0.0,0.0,0.0,0.0,6.3182,6.3182,0.0,0.0,0.0,0.0,0.0,0.0,0.0,0.0,0.0,0.0,0.0,0.0,0.0,0.0,0.0,0.0,0.0,0.0,0.0,0.0,0.0,0.0,0.0,0.0,0.0,0.0,0.0,0.0,0.0,0.0,0.0,0.0,0.0,0.0,7.6313,7.4955,7.5542,7.5579,7.4918,7.4918,7.4918,7.4918,7.4762,7.5031,7.569,7.6162,7.6527,7.6836,7.5742,7.5292,7.5114,7.407,7.3693,7.354,7.258,7.2271,7.2242,7.143,7.121,7.1312,0.0,0.0,0.0,0.0,0.0,0.0,0.0,0.0,0.0,0.0,6.118,6.1026,0.0,0.0,0.0,0.0,0.0,0.0,0.0,0.0,0.0,6.4551,6.4705,6.5128,6.5859,6.5897,6.5897,6.5897,6.6705,6.7936,6.9552,7.0475,7.136,7.2206,7.2552,7.2091,7.1014,7.0206,6.936,6.8513,6.7513,6.6744,6.6128,6.5166,6.432,6.3628,6.3512,6.3974,6.4628,6.4743,6.5282,0.0,0.0,0.0,0.0,6.2671,0.0,0.0,0.0,0.0,0.0,0.0,0.0,0.0,0.0,0.0,0.0,0.0,0.0,0.0,0.0,0.0,0.0,0.0,0.0,0.0,0.0,0.0,0.0,0.0,0.0,0.0,0.0,0.0,0.0,0.0,0.0,0.0,0.0,7.5175,7.5139,7.4918,7.5028,7.5028,7.4918,7.4918,7.4918,7.4918,7.4097,7.3711,7.3819,7.315,7.3649,7.5014,7.3976,7.315,7.2547,7.1497,7.1062,7.0982,6.9969,7.0018,7.0561,7.0419,7.0737,7.1098,0.0,0.0,0.0,0.0,0.0,0.0,0.0,0.0,0.0,0.0,0.0,6.0896,0.0,0.0,0.0,0.0,0.0,0.0,0.0,0.0,0.0,6.3166,6.4089,6.4782,6.5166,6.5628,6.5897,6.5897,6.6705,6.7975,6.9744,7.1014,7.1822,7.2168,7.1668,7.1014,7.0167,6.9321,6.8475,6.7552,6.6244,6.5474,6.5013,6.3705,6.2974,6.2627,6.2627,6.2858,6.332,6.4282,6.4653,6.4834,6.5293,0.0,0.0,0.0,0.0,0.0,0.0,0.0,0.0,0.0,0.0,0.0,0.0,0.0,0.0,0.0,0.0,0.0,0.0,0.0,0.0,0.0,0.0,0.0,0.0,0.0,0.0,0.0,0.0,0.0,0.0,0.0,0.0,0.0,0.0,0.0,7.3634,7.4404,7.4294,7.2936,7.334,7.334,7.2899,7.2459,7.2202,7.2202,7.1319,7.1123,7.1492,6.9955,7.0729,7.3154,7.1784,7.1189,7.1182,6.9692,6.9336,6.9662,6.9252,6.8863,6.8435,6.8435,6.8235,6.7809,0.0,0.0,0.0,0.0,0.0,0.0,0.0,0.0,0.0,0.0,0.0,0.0,0.0,0.0,0.0,0.0,0.0,0.0,0.0,0.0,0.0,6.2089,6.3281,6.4051,6.4282,6.4897,6.5359,6.5551,6.6397,6.8013,7.036,7.1591,7.2668,7.3437,7.236,7.1168,6.9937,6.909,6.8244,6.7244,6.5359,6.4474,6.4128,6.2627,6.2089,6.205,6.1858,6.205,6.2589,6.3719,6.3963,6.3924,6.4666,6.4022,0.0,0.0,0.0,0.0,0.0,0.0,0.0,0.0,0.0,0.0,0.0,0.0,0.0,0.0,0.0,0.0,0.0,0.0,0.0,0.0,0.0,0.0,0.0,0.0,0.0,0.0,0.0,0.0,0.0,0.0,0.0,0.0,0.0,0.0,7.1982,7.3046,7.2863,7.1064,7.1578,7.1615,7.0991,7.022,6.9558,6.9133,6.8258,6.8048,6.8392,6.6659,6.726,6.9582,6.8812,6.8773,6.8969,6.7588,6.7421,6.7963,6.7671,6.7101,6.6483,6.6204,6.5738,6.5183,0.0,0.0,0.0,0.0,0.0,0.0,0.0,0.0,0.0,0.0,0.0,0.0,6.0781,6.0781,6.0781,6.0781,6.0781,6.0781,6.0781,6.0819,6.1243,6.205,6.2166,0.0,6.3358,6.3435,6.3858,6.4666,6.5551,6.8052,7.2052,7.2168,7.3937,7.6938,7.5245,7.3129,7.0783,6.9975,6.9129,6.8129,6.5628,6.4128,6.3281,6.2397,6.2089,6.1973,6.1166,6.1897,6.3194,6.2844,6.3192,6.3861,6.4289,6.3496,6.2449,0.0,0.0,0.0,0.0,0.0,0.0,0.0,0.0,0.0,0.0,0.0,0.0,0.0,0.0,0.0,0.0,0.0,0.0,0.0,0.0,0.0,0.0,0.0,0.0,0.0,0.0,0.0,0.0,0.0,0.0,0.0,0.0,0.0,7.0293,7.0293,7.0293,7.0183,7.0183,7.0183,7.0146,6.9376,6.8162,6.6559,6.5661,6.4841,6.4109,6.3102,6.2775,6.2978,6.5047,6.5508,6.4898,6.4783,6.4783,6.4735,6.3544,6.3903,6.491,6.3735,6.4127,6.4984,0.0,0.0,0.0,0.0,0.0,0.0,0.0,0.0,0.0,0.0,0.0,0.0,0.0,6.0781,6.0781,6.0781,6.0781,6.0781,6.0781,6.0781,6.0935,6.1243,6.1781,6.2204,6.2512,6.3051,6.3474,6.3782,6.4628,6.6397,6.8975,7.1168,7.286,7.4014,7.3976,7.3129,7.1591,6.9667,6.8359,6.7398,6.5397,6.4397,6.3974,6.2627,6.2089,6.2026,0.0,0.0,0.0,6.2715,6.2897,6.2972,6.3634,6.3319,6.2556,6.204,6.1449,6.0896,6.0379,0.0,0.0,0.0,0.0,0.0,0.0,0.0,0.0,0.0,0.0,0.0,0.0,0.0,0.0,0.0,0.0,0.0,0.0,0.0,0.0,0.0,0.0,0.0,0.0,0.0,0.0,0.0,0.0,0.0,6.8605,6.8531,6.8311,6.7797,6.7797,6.725,6.6183,6.5892,6.5163,6.4081,6.3154,6.2579,6.2264,6.1313,6.0926,6.096,6.1772,6.2516,6.3193,6.3193,6.2993,6.2731,6.2736,6.2133,6.1154,6.0704,6.0609,6.0524,0.0,0.0,0.0,0.0,0.0,0.0,0.0,0.0,0.0,6.0781,0.0,0.0,0.0,0.0,6.0781,6.0781,6.0781,6.0781,6.0781,6.0781,6.0781,6.0781,6.1358,6.1666,6.1666,6.2474,6.2897,6.2897,6.3743,6.5166,6.7128,6.9557,7.1112,7.1918,7.2264,7.2323,7.2052,7.009,6.859,6.7398,6.5498,6.4526,6.4064,6.3386,6.2682,0.0,0.0,0.0,0.0,6.256,6.2579,6.2426,6.3103,6.3294,6.3135,6.2585,6.2218,6.1887,6.1374,6.0419,0.0,0.0,0.0,0.0,0.0,0.0,0.0,0.0,0.0,0.0,0.0,0.0,0.0,0.0,0.0,0.0,0.0,0.0,0.0,0.0,0.0,0.0,0.0,0.0,0.0,0.0,0.0,0.0,6.6953,6.688,6.6406,6.5313,6.4767,6.3852,6.2471,6.2471,6.1914,6.0826,6.021,5.9771,5.9563,5.8885,5.8761,5.8998,5.8556,5.9641,6.1603,6.129,6.0932,6.0619,6.0304,5.9497,5.8355,5.7993,5.78,5.7782,0.0,0.0,0.0,0.0,0.0,0.0,0.0,0.0,6.0819,6.0819,0.0,0.0,0.0,0.0,0.0,6.0858,6.0858,6.0858,6.0819,6.0819,6.0819,6.0781,6.0781,6.0781,6.0781,6.1627,6.205,6.205,6.2858,6.4487,6.6949,6.7309,6.8869,7.1231,7.0472,7.0853,7.1986,7.114,6.9833,6.8191,6.5979,6.4393,6.3476,0.0,0.0,0.0,6.3359,6.3245,0.0,6.2358,6.2278,6.2376,6.2708,6.3392,6.409,6.409,6.3503,6.2879,0.0,0.0,0.0,0.0,0.0,0.0,0.0,0.0,0.0,0.0,0.0,0.0,0.0,0.0,0.0,0.0,0.0,0.0,0.0,0.0,0.0,0.0,0.0,0.0,0.0,0.0,0.0,0.0,0.0,6.5946,6.5176,6.5139,6.4347,6.2779,6.1319,6.0154,5.9348,5.9348,5.8536,5.6859,5.6859,5.6469,5.5646,5.5646,5.6018,5.6588,5.553,5.6877,5.9793,5.8781,5.8378,5.8134,5.591,5.5752,5.6738,5.562,5.5957,5.693,0.0,0.0,0.0,0.0,0.0,0.0,0.0,6.1204,6.1012,0.0,0.0,0.0,6.205,6.2397,6.2627,6.2627,6.2627,6.2358,6.1781,6.1743,6.1435,6.0819,6.0781,6.0781,6.0781,6.105,6.1166,6.1166,6.167,0.0,0.0,0.0,6.6025,6.7314,6.8337,6.8601,6.8329,6.7833,6.773,6.7661,6.5848,6.5047,0.0,0.0,0.0,0.0,0.0,6.2553,6.2395,0.0,6.2645,6.2671,6.2781,6.3392,6.409,6.409,6.4347,6.4604,6.4604,0.0,0.0,0.0,0.0,0.0,0.0,0.0,0.0,0.0,0.0,0.0,0.0,0.0,0.0,0.0,0.0,0.0,0.0,0.0,0.0,0.0,0.0,0.0,0.0,0.0,0.0,0.0,6.3162,6.2095,6.1824,6.0771,5.9946,5.9501,5.9112,5.8446,5.7618,5.7583,5.7101,5.6065,5.6065,5.5545,5.4542,5.4542,5.427,5.3746,5.3434,5.3837,5.4756,5.5992,5.5933,5.5184,5.5034,5.4635,5.4231,5.4381,5.4331,5.4206,0.0,0.0,0.0,0.0,0.0,0.0,6.2012,6.1935,6.2012,0.0,0.0,0.0,6.2589,6.3974,6.4474,6.3397,6.332,6.2974,6.2127,6.2089,6.1704,6.0819,6.0781,6.0781,6.0781,6.1166,6.108,6.0508,0.0,0.0,0.0,0.0,0.0,0.0,6.553,6.5977,6.5489,6.5313,0.0,0.0,6.504,0.0,0.0,6.4404,6.3539,0.0,0.0,0.0,6.3173,6.3283,6.3576,0.0,0.0,6.442,6.5081,6.5081,6.5411,6.5815,6.5815,6.4861,6.387,6.387,0.0,0.0,0.0,6.1484,0.0,0.0,0.0,0.0,0.0,0.0,0.0,0.0,0.0,0.0,0.0,0.0,0.0,0.0,0.0,0.0,0.0,0.0,0.0,0.0,6.0949,5.9889,5.9558,5.8025,5.7183,5.7183,5.6597,5.6021,5.5475,5.5475,5.5009,5.4142,5.4142,5.3573,5.2541,5.2541,5.2398,5.214,5.166,5.1656,5.1922,5.2151,5.2568,5.3028,5.3009,5.2597,5.1975,5.2387,5.2223,5.1739,0.0,0.0,0.0,0.0,0.0,0.0,6.2204,6.2858,6.332,0.0,6.3551,6.3705,6.3974,6.5859,6.6244,6.4051,6.3705,6.3243,6.2435,6.2281,6.1858,6.0973,6.0935,6.0935,6.0935,6.1642,6.1428,6.0217,0.0,0.0,0.0,0.0,0.0,0.0,0.0,6.317,6.3282,6.3356,0.0,6.4866,6.3937,6.3686,0.0,0.0,6.3663,6.2183,6.4091,6.4561,6.4209,6.4118,6.464,0.0,0.0,0.0,0.0,6.6512,6.6623,6.6769,6.6769,6.6256,6.5705,6.5595,0.0,0.0,6.2879,6.2328,6.1777,0.0,0.0,0.0,0.0,0.0,0.0,0.0,0.0,0.0,0.0,0.0,0.0,0.0,0.0,0.0,0.0,6.075,6.0224,6.0139,5.9305,5.8478,5.773,5.6307,5.5548,5.5548,5.4256,5.3416,5.3348,5.3348,5.28,5.1776,5.1776,5.1229,5.0242,5.0242,5.0515,5.1009,4.9792,4.9712,5.015,4.7867,4.8768,5.1352,5.0244,4.9794,4.9825,4.9911,4.9775,4.9391,6.0781,0.0,0.0,0.0,0.0,0.0,0.0,6.3205,6.3551,6.4243,6.4974,6.6167,6.8244,6.7628,6.7167,6.7398,6.6167,6.5013,6.4166,6.3474,6.2704,6.1858,6.1858,6.1858,6.1858,6.1644,6.1411,6.1162,0.0,0.0,0.0,0.0,0.0,0.0,0.0,0.0,0.0,0.0,0.0,6.3855,6.368,0.0,6.4086,6.4621,6.3928,6.2778,6.3861,6.3763,6.3221,6.3897,6.464,6.5301,0.0,0.0,0.0,6.6512,6.743,6.8421,6.8421,6.8311,6.8054,0.0,0.0,0.0,6.3282,6.3209,6.3062,0.0,0.0,0.0,0.0,0.0,0.0,0.0,0.0,0.0,0.0,0.0,0.0,0.0,0.0,0.0,0.0,5.9905,5.9189,5.858,5.6652,5.5243,5.4456,5.4156,5.3955,5.3955,5.3619,5.311,5.2241,5.2241,5.1704,5.0703,5.0703,5.0165,4.9135,4.9135,4.8769,4.8031,4.6815,4.6342,4.6369,4.4874,4.6121,4.8756,4.76,4.7359,4.7754,4.8359,4.7749,4.6588,6.0781,6.0781,6.0781,0.0,0.0,0.0,0.0,6.4051,6.5051,6.632,6.7975,6.8859,6.8436,6.8398,6.8052,6.7244,6.6397,6.5359,6.4051,6.3551,6.2935,6.2127,6.2089,6.1977,6.1785,6.1516,6.095,6.0066,0.0,0.0,0.0,0.0,0.0,0.0,0.0,0.0,0.0,0.0,6.2855,6.3844,6.3844,0.0,6.4472,6.4472,6.3763,6.2879,6.3282,6.3723,6.4214,6.5337,6.6049,0.0,0.0,6.6769,6.7173,0.0,6.8274,6.9009,0.0,0.0,0.0,6.9009,0.0,0.0,0.0,6.4347,6.3613,0.0,0.0,0.0,0.0,0.0,0.0,0.0,0.0,0.0,0.0,0.0,0.0,0.0,0.0,0.0,0.0,5.8519,5.7593,5.644,5.5269,5.4264,5.3551,5.3518,5.3518,5.3518,5.2939,5.2454,5.1921,5.1377,5.0627,4.9615,4.9615,4.9085,4.8072,4.7387,4.6812,4.6255,4.5024,4.4442,4.4349,4.3122,4.3639,4.5327,4.563,4.5723,4.5705,4.6431,4.5411,4.3626,6.0781,6.0781,6.0781,6.0781,0.0,0.0,0.0,6.4628,6.632,6.8167,7.0206,7.0552,6.809,6.8783,6.8821,6.7244,6.6359,6.5436,6.4359,6.3666,6.2935,6.2127,6.2156,6.2015,6.1658,6.1469,6.0705,5.9421,0.0,0.0,0.0,0.0,0.0,0.0,0.0,0.0,0.0,0.0,0.0,6.4127,0.0,6.4574,6.4633,6.4217,6.3576,6.2805,6.2805,6.3796,6.5257,6.6648,6.7222,6.752,6.7773,6.7757,0.0,0.0,0.0,0.0,0.0,0.0,0.0,0.0,0.0,6.8091,0.0,0.0,0.0,0.0,0.0,0.0,0.0,0.0,0.0,0.0,0.0,0.0,0.0,0.0,0.0,0.0,0.0,0.0,0.0,5.7015,5.5928,5.4695,5.4482,5.4106,5.3484,5.328,5.3179,5.3179,5.217,5.1525,5.1303,5.0474,4.9536,4.8512,4.8232,4.7673,4.6931,4.5598,4.5024,4.4932,4.3693,4.3122,4.3026,4.1465,4.1051,4.1619,4.3371,4.3804,4.3381,4.3624,4.2524,4.0763,6.0781,6.0781,6.0781,6.0781,6.1589,0.0,6.3205,6.4128,6.5628,6.809,6.8667,6.9244,7.036,6.9321,6.936,7.1321,6.8052,6.6436,6.7744,6.4974,6.2935,6.2127,6.2355,6.2536,6.2437,6.1657,6.1487,6.1954,6.0055,0.0,0.0,0.0,0.0,0.0,6.0493,0.0,0.0,0.0,6.3319,0.0,6.5632,6.539,0.0,6.4141,6.3576,6.2805,6.2805,6.3429,6.4412,0.0,6.6371,6.6838,0.0,6.8097,6.7724,6.7797,0.0,0.0,0.0,0.0,0.0,0.0,7.1027,0.0,0.0,0.0,0.0,0.0,0.0,0.0,0.0,0.0,0.0,0.0,0.0,0.0,0.0,0.0,0.0,0.0,0.0,0.0,0.0,0.0,5.4757,5.4572,5.3977,5.3618,5.3518,5.2627,5.2065,5.2065,5.108,5.0087,4.9135,4.9054,4.846,4.7452,4.6314,4.575,4.5598,4.4256,4.3693,4.3598,4.235,4.1789,4.1591,3.9005,3.8031,3.8176,3.9249,3.9864,4.0194,3.9314,3.8839,3.8358,6.0704,6.0781,6.0781,6.0781,6.1512,6.2204,6.2551,6.5436,6.759,6.7628,7.0206,7.1937,7.1668,7.1014,0.0,7.0744,0.0,6.6821,0.0,0.0,6.3166,6.282,6.2672,6.2687,6.2914,6.1766,6.123,6.1246,5.99,0.0,0.0,0.0,0.0,0.0,6.1594,0.0,6.2622,0.0,6.4751,0.0,0.0,0.0,0.0,6.4787,6.398,6.2805,6.2805,6.3686,6.4875,0.0,6.633,0.0,0.0,0.0,0.0,0.0,0.0,0.0,0.0,0.0,0.0,0.0,0.0,0.0,6.8825,0.0,6.7026,0.0,0.0,0.0,0.0,0.0,0.0,0.0,0.0,0.0,0.0,0.0,0.0,0.0,0.0,0.0,0.0,0.0,0.0,0.0,0.0,5.2146,5.1152,5.1075,5.1005,5.1005,5.0009,4.9215,4.881,4.7443,4.6637,4.6166,4.4932,4.4256,4.4256,4.3026,4.1906,4.1036,3.9803,3.8797,3.7829,3.668,3.6271,3.6231,3.5915,3.6724,3.8068,3.8168,3.7626,3.6539,6.0627,6.0781,6.0781,6.0781,6.132,6.1897,6.2358,6.5782,6.809,6.7513,7.0667,0.0,7.2245,7.2206,0.0,0.0,7.036,6.8282,0.0,0.0,6.3705,6.3012,6.2595,0.0,6.3124,6.1936,6.1217,6.108,6.0272,6.0272,0.0,0.0,0.0,0.0,0.0,6.3503,6.4163,0.0,0.0,6.6476,6.6109,6.5705,6.5264,6.4787,6.4016,6.3172,6.3172,6.409,6.5338,6.5727,6.6522,0.0,6.7789,0.0,0.0,0.0,0.0,0.0,7.0477,0.0,0.0,0.0,0.0,0.0,0.0,0.0,0.0,0.0,0.0,0.0,0.0,0.0,6.112,5.9618,0.0,0.0,0.0,0.0,0.0,0.0,0.0,0.0,0.0,0.0,0.0,0.0,5.0641,5.0416,4.9202,4.9496,4.9723,4.9723,4.8522,4.7897,4.7897,4.5871,4.4932,4.484,4.3598,4.2807,4.2366,4.1041,3.9676,3.8258,3.7299,3.6271,3.5288,3.4847,3.4382,3.3935,3.2847,3.3161,3.4185,3.5501,3.5026,3.3513,6.0627,6.0781,6.0781,6.0781,0.0,0.0,0.0,0.0,0.0,0.0,0.0,0.0,0.0,0.0,0.0,0.0,0.0,7.1668,7.0706,0.0,6.4705,6.2243,6.1939,6.222,0.0,6.2101,6.1924,6.2732,6.1924,6.1924,0.0,0.0,0.0,0.0,0.0,6.4053,6.42,6.5778,6.6476,6.6549,6.732,6.6696,6.5118,0.0,6.3392,6.4053,6.4053,0.0,0.0,6.6786,6.6926,0.0,0.0,0.0,0.0,0.0,0.0,0.0,0.0,0.0,0.0,7.0367,0.0,0.0,0.0,0.0,6.8421,0.0,0.0,0.0,0.0,6.2728,6.184,6.2506,6.0081,0.0,0.0,0.0,0.0,0.0,0.0,0.0,0.0,0.0,0.0,4.8643,4.8464,4.8464,4.8432,4.8074,4.7849,4.7849,4.6369,4.5479,4.5479,4.4256,4.3598,4.3598,4.2252,4.0915,3.9473,3.8251,3.6811,3.5398,3.5398,3.5288,3.5178,3.3733,3.2219,3.0703,2.9665,2.85,2.763,2.9671,2.955,2.8427,5.9781,6.0396,6.0781,6.0781,0.0,0.0,0.0,6.4205,0.0,0.0,0.0,0.0,0.0,7.7592,7.7476,0.0,0.0,7.363,7.1052,6.936,0.0,0.0,0.0,6.3653,0.0,6.2398,6.1998,6.2805,6.1998,6.1998,0.0,0.0,0.0,0.0,0.0,6.4897,0.0,0.0,0.0,0.0,0.0,6.6586,6.5925,0.0,0.0,6.4163,6.4714,6.5411,0.0,6.6588,6.7016,6.7373,6.7856,6.7863,6.7687,6.7687,6.8274,0.0,0.0,0.0,7.044,7.0183,0.0,0.0,0.0,0.0,0.0,0.0,0.0,0.0,0.0,6.3105,6.1564,5.9267,5.7981,5.6808,0.0,0.0,0.0,0.0,0.0,0.0,0.0,0.0,0.0,4.6862,4.7132,4.6889,0.0,4.5627,4.5545,4.5545,4.4652,4.4163,4.4163,4.2834,4.2279,4.2279,3.9931,3.8589,3.8146,3.668,3.5288,3.3733,3.2633,3.1606,3.0587,2.9046,2.8098,2.7519,2.7194,2.6297,2.5607,2.7744,2.837,2.8032,5.9858,6.0396,0.0,0.0,0.0,0.0,0.0,0.0,0.0,0.0,7.4053,0.0,8.0285,0.0,7.9708,0.0,7.8169,7.5668,7.1629,7.1437,0.0,6.7205,6.6097,0.0,0.0,6.3326,6.2498,6.2805,6.2291,6.2438,0.0,0.0,0.0,0.0,0.0,0.0,6.5411,0.0,6.7687,0.0,0.0,6.6072,0.0,0.0,6.4273,6.4604,0.0,6.5815,6.6549,6.6843,6.7247,6.7687,6.7687,6.7687,6.7687,6.7687,6.8054,6.8458,6.8458,6.9045,0.0,6.9302,6.9245,0.0,6.8587,0.0,0.0,0.0,0.0,0.0,0.0,6.2,6.0253,5.7717,5.6297,5.4805,0.0,5.1776,0.0,0.0,0.0,0.0,0.0,0.0,4.7303,4.5141,4.5026,4.4529,0.0,0.0,4.347,4.347,4.3062,4.2506,4.185,4.0711,3.9829,3.9093,3.744,3.6487,3.5922,3.4958,3.3374,3.1321,3.0238,2.8947,2.7452,2.647,2.5619,2.5146,2.5274,2.4164,2.2855,2.5535,2.6021,2.5055,6.0781,0.0,0.0,0.0,6.1473,0.0,0.0,0.0,6.9321,0.0,7.4553,7.7092,7.9708,7.9939,8.0246,8.1093,8.0362,0.0,7.2899,7.4014,0.0,0.0,6.7676,6.7525,6.6976,6.4795,6.3391,6.2928,6.2842,0.0,0.0,0.0,0.0,0.0,6.5007,0.0,6.5485,6.7026,6.7687,6.754,6.5999,6.5375,6.5264,6.442,0.0,6.5264,6.5338,6.5852,6.6623,6.743,6.7687,6.7687,6.7687,6.7687,6.7687,6.765,6.7614,6.7614,6.7577,6.8128,6.8477,6.7707,0.0,0.0,0.0,0.0,6.4941,0.0,0.0,0.0,0.0,0.0,5.787,5.7766,5.5033,5.231,5.057,0.0,0.0,0.0,0.0,0.0,0.0,4.6098,4.4986,4.328,4.2111,0.0,0.0,0.0,4.1562,4.1498,4.1416,4.043,3.8592,3.7774,3.6447,3.4594,3.4955,3.4403,3.2943,3.2943,3.1206,2.8289,2.817,2.7314,2.5863,2.5741,2.4778,2.3355,2.3651,2.1773,1.9421,2.2869,2.2311,1.9634,6.0666,6.0781,6.0781,0.0,6.0973,6.182,0.0,0.0,0.0,0.0,7.6284,7.9092,8.2285,8.2054,8.1747,8.1977,8.1246,0.0,0.0,0.0,0.0,7.2899,7.1236,6.9485,6.7483,6.5564,6.448,6.4299,0.0,0.0,6.4971,0.0,0.0,0.0,0.0,0.0,6.6256,6.7247,6.7687,6.7614,6.6586,6.6182,0.0,0.0,6.4237,6.4567,6.5778,6.6329,6.6623,6.743,6.7687,6.7687,6.7687,6.7687,6.7577,6.699,6.6806,6.6659,6.6072,6.5588,6.5234,6.5017,6.4471,6.4055,0.0,0.0,0.0,0.0,0.0,0.0,0.0,0.0,0.0,5.4573,5.2491,5.0589,4.9407,0.0,0.0,0.0,0.0,0.0,4.4431,4.3814,4.2669,4.0887,4.049,0.0,0.0,0.0,0.0,3.8711,3.8216,3.7372,3.6233,3.5962,3.5659,3.5109,3.4115,3.2788,3.1242,3.014,2.8509,2.6591,2.5391,2.4548,2.4178,2.2827,2.1308,1.9776,1.9851,1.8865,1.7432,1.8594,1.8528,1.7809,6.0781,0.0,0.0,6.182,0.0,0.0,6.5474,0.0,0.0,7.3553,7.6399,0.0,8.0631,8.1708,8.217,8.1823,8.1362,0.0,7.8823,0.0,0.0,7.4861,7.3875,7.1931,6.8793,6.6786,0.0,6.4301,0.0,0.0,6.4787,0.0,0.0,0.0,0.0,6.6512,0.0,6.7357,6.7687,6.7577,6.6439,0.0,0.0,6.4163,6.3539,6.3686,6.4971,6.5668,6.6035,6.6512,6.688,6.71,6.6769,6.6659,6.6549,6.6109,6.5713,6.5314,6.4822,6.4101,6.3442,6.3442,6.2825,6.231,6.2698,6.1562,6.0532,0.0,0.0,0.0,0.0,0.0,0.0,5.1508,4.9852,4.8522,0.0,0.0,0.0,0.0,0.0,0.0,4.0732,4.1128,4.074,3.9074,0.0,0.0,0.0,0.0,0.0,3.5968,3.584,3.5222,3.4076,3.345,3.2889,3.2025,3.0605,2.9517,2.8555,2.7776,2.647,2.4901,2.3931,2.2812,2.1294,2.0309,1.8896,1.7356,1.665,1.6077,1.5524,1.4921,1.5283,1.5839,0.0,0.0,0.0,0.0,0.0,0.0,0.0,6.7975,0.0,7.3476,0.0,7.7784,7.7784,8.04,8.1862,8.117,0.0,8.0169,7.7938,7.9746,7.9208,7.5361,7.5592,7.4098,7.0342,6.8033,6.5871,0.0,0.0,0.0,0.0,0.0,0.0,0.0,0.0,0.0,0.0,6.7173,6.754,0.0,6.5925,6.5301,6.5118,6.3466,6.2805,6.2915,6.3649,6.4457,6.5154,6.5264,6.5778,6.6219,6.5521,6.5249,6.5108,6.4998,6.4366,6.3617,6.3437,6.2796,6.2139,6.2033,6.125,6.0739,6.1481,5.9166,5.69,5.7009,5.5172,0.0,0.0,0.0,0.0,4.8346,0.0,0.0,0.0,0.0,0.0,0.0,0.0,0.0,0.0,3.8083,0.0,0.0,0.0,0.0,0.0,0.0,0.0,3.3237,3.3656,0.0,3.1534,0.0,2.9212,2.7552,2.6559,2.5863,2.5741,2.5481,2.4501,2.2937,2.2673,2.0903,1.8116,1.8116,1.7076,1.5434,1.3992,1.3661,1.3807,1.2166,1.261,1.3737,0.0,0.0,0.0,0.0,0.0,6.7051,6.9821,7.2629,7.4976,7.6438,7.8861,8.0439,8.0439,8.0977,8.1246,8.1093,8.1093,0.0,0.0,0.0,0.0,7.79,7.5976,7.364,7.0853,6.825,6.637,0.0,0.0,0.0,0.0,0.0,0.0,0.0,0.0,0.0,6.5558,6.6366,0.0,6.6623,6.5705,6.5301,6.5118,6.3466,6.2805,6.2842,6.2989,6.3576,6.442,6.5081,6.5411,6.5485,6.5338,6.4821,6.4106,6.3454,6.2628,6.1707,6.0487,5.946,5.8681,5.8119,5.6644,5.5462,5.5576,5.4503,5.347,5.3466,5.3132,5.222,5.0442,0.0,0.0,0.0,0.0,0.0,0.0,0.0,0.0,0.0,0.0,0.0,0.0,0.0,0.0,0.0,0.0,0.0,0.0,0.0,0.0,0.0,0.0,0.0,0.0,0.0,2.6661,2.6248,2.6073,2.5253,2.3931,2.2491,2.0989,1.9267,1.7837,1.6937,1.6302,1.6302,1.5265,1.3621,1.2255,1.1739,1.1685,1.1667,1.177,1.2086,0.0,0.0,0.0,0.0,0.0,0.0,0.0,7.6438,0.0,7.6784,7.7707,7.8438,7.8438,8.0054,8.1093,8.1093,8.1093,8.1093,8.1093,8.0708,7.9862,7.8554,7.6938,0.0,7.0975,6.8704,6.6484,6.4294,0.0,0.0,0.0,0.0,0.0,0.0,0.0,6.5521,0.0,0.0,0.0,6.6439,6.5632,6.5044,6.453,6.3282,6.2805,6.2755,6.2324,6.2474,6.2927,6.3768,6.3978,6.393,6.3529,6.2815,6.1962,6.1211,6.0423,5.9488,5.8394,5.7015,5.5919,5.5547,5.4369,5.3343,5.3343,5.2189,5.1014,5.031,4.9474,4.8369,4.6698,4.524,0.0,0.0,0.0,0.0,0.0,0.0,0.0,0.0,0.0,0.0,0.0,0.0,0.0,0.0,0.0,0.0,0.0,0.0,0.0,0.0,0.0,0.0,0.0,0.0,0.0,2.4778,2.3003,2.1756,2.0916,1.9091,1.7953,1.7087,1.6302,1.5394,1.4493,1.3587,1.2732,1.2052,1.1481,1.1219,1.1321,1.1552,1.1653,1.1549,0.0,6.3205,0.0,0.0,7.0667,0.0,7.5168,7.8361,7.9708,7.74,7.7092,7.7092,7.7092,7.9477,8.1093,8.1093,8.1093,8.1093,8.1093,8.0746,7.9939,7.8554,7.7361,7.4947,7.1094,6.9163,6.6634,0.0,0.0,0.0,0.0,0.0,0.0,0.0,0.0,0.0,0.0,0.0,6.6072,6.6182,6.5181,6.4396,6.3737,6.2652,6.2271,6.2219,6.1604,6.1235,6.124,6.1822,6.2096,6.1954,6.1307,6.0463,5.9549,5.8976,5.8014,5.702,5.6265,5.4858,5.3498,5.3334,5.2501,5.1709,5.1403,5.0092,4.8596,4.7347,4.5772,4.4163,4.2876,4.2393,0.0,0.0,0.0,0.0,0.0,0.0,0.0,0.0,0.0,0.0,0.0,0.0,0.0,0.0,0.0,2.6714,2.57,2.4488,0.0,0.0,0.0,2.3992,2.4377,0.0,2.1909,0.0,1.9255,1.7988,1.7859,1.6172,1.5394,1.5265,1.5005,1.397,1.2676,1.1247,1.0819,1.0833,1.098,1.1141,1.1166,1.0575,1.0964,1.163,0.0,0.0,0.0,0.0,0.0,0.0,0.0,7.6592,7.9208,8.0477,8.0631,8.0631,8.0631,8.09,8.1093,8.1093,8.1093,8.1093,8.1093,7.9631,7.8669,7.8515,7.6207,7.3799,7.1384,6.9285,6.704,0.0,0.0,0.0,0.0,0.0,0.0,0.0,0.0,0.0,0.0,6.431,6.4751,6.5286,6.3693,6.298,6.2779,6.12,6.064,6.058,6.0519,6.0058,5.9515,5.9574,5.9645,5.9621,5.955,5.8475,5.7225,5.7155,5.5825,5.4295,5.3566,5.2594,5.1591,5.0903,4.9963,4.8883,4.7728,4.6637,4.5446,4.4219,4.2861,4.1538,4.0007,3.8827,3.7536,0.0,0.0,0.0,0.0,0.0,0.0,0.0,0.0,0.0,0.0,0.0,0.0,0.0,0.0,2.4139,2.4044,2.3933,2.3327,2.2326,0.0,1.9889,1.89,1.734,0.0,1.6679,1.6302,1.6172,1.6043,1.4362,1.3578,1.3456,1.1894,1.1108,1.0982,1.0738,1.0705,1.0717,1.0744,1.0901,1.076,0.7526,0.8518,1.1663,0.0,0.0,0.0,0.0,0.0,0.0,0.0,7.763,7.8938,8.0169,8.0323,8.0516,8.1054,8.1093,8.1093,8.1093,8.1093,8.09,8.0362,7.9669,7.8823,7.7823,7.5961,7.3849,7.143,6.8935,6.6469,0.0,0.0,0.0,0.0,0.0,0.0,0.0,0.0,6.409,6.4127,6.4074,6.393,6.3693,6.2557,6.1771,6.1248,6.0661,6.0397,6.03,5.9306,5.8765,5.8288,5.6679,5.6943,5.7786,5.7136,5.6167,5.4992,5.395,5.3114,5.241,5.162,5.0657,4.9609,4.8553,4.7552,4.6403,4.5154,4.4571,4.3882,4.2641,4.064,3.8693,3.7252,3.6549,3.5727,0.0,0.0,0.0,0.0,0.0,0.0,0.0,0.0,2.365,0.0,0.0,0.0,0.0,0.0,0.0,2.2476,2.0744,1.9596,1.9361,0.0,1.7021,1.6807,1.6131,1.5913,1.5913,1.4884,1.4362,1.4232,1.2545,1.1762,1.1769,1.0996,1.0738,1.0744,1.0638,0.9496,0.7542,0.7511,0.8911,1.0792,0.9746,1.034,1.1567,6.8013,0.0,6.9475,0.0,7.4245,7.5014,7.74,7.7746,7.8092,7.8938,7.9054,7.9477,8.0592,8.0708,8.0708,8.0708,8.0939,8.0823,8.0208,7.9544,7.8634,7.7445,7.5812,0.0,7.1294,6.8891,6.6482,6.4105,6.3223,0.0,0.0,0.0,0.0,0.0,6.3429,6.3731,6.3706,6.3382,6.2969,6.2319,6.1282,6.0375,5.9706,5.9453,5.9184,5.8841,5.7362,5.6748,5.62,5.4088,5.405,5.4907,5.4414,5.3691,5.278,5.1495,5.0976,5.0533,4.9567,4.8584,4.7498,4.6197,4.5364,4.4414,4.2656,4.2269,4.1781,4.0109,3.8146,3.6379,3.4958,3.414,3.3295,3.1991,0.0,0.0,0.0,0.0,0.0,0.0,2.2436,2.1595,2.0329,0.0,0.0,0.0,0.0,0.0,1.9496,1.7479,0.0,0.0,0.0,0.0,0.0,1.4586,1.4362,1.4362,1.3062,1.2545,1.2545,1.1247,1.0731,1.0731,1.0758,1.0085,0.9267,1.0303,0.9166,0.6773,0.4614,0.5395,0.7652,0.8015,0.8136,0.8127,7.0206,7.086,7.1937,7.5361,7.5976,7.5976,7.6015,7.6015,7.6322,7.7207,7.7323,7.7938,7.9631,7.9823,7.9823,7.9823,8.0592,8.1093,8.1093,7.8968,7.7721,0.0,0.0,7.3237,7.1056,6.9341,6.7406,6.5264,0.0,0.0,6.2805,0.0,6.2805,6.2805,6.2805,6.2798,6.2759,6.1965,6.1637,6.1494,5.9822,5.8695,5.7971,5.7119,5.6359,5.5646,5.4575,5.3676,5.2902,5.192,5.1051,5.0602,5.1307,5.1051,5.0429,5.0429,4.9615,4.8564,4.7292,4.6256,4.5115,4.3882,4.3504,4.278,4.0083,3.9473,3.865,3.5899,3.5398,3.4847,3.3417,3.1584,2.9928,2.8692,0.0,0.0,0.0,0.0,0.0,0.0,2.0888,2.043,1.7313,0.0,0.0,0.0,0.0,0.0,0.0,0.0,0.0,1.4801,1.36,0.0,1.2925,1.1556,1.0717,1.0717,1.0717,1.0717,1.0724,1.0744,1.0751,1.0758,1.0658,0.875,0.5774,0.9319,1.0731,0.9882,0.2845,0.0144,0.0146,0.0146,0.0148,0.0152,7.0706,7.136,7.2129,7.3206,7.4361,7.513,7.513,7.563,7.6322,7.7169,7.6784,7.6823,7.7977,7.9131,7.9823,0.0,8.0592,8.0427,0.0,7.8101,7.7036,7.546,7.3763,7.2294,7.1056,6.9013,6.7104,6.5301,0.0,0.0,0.0,6.2805,6.2515,6.2005,6.2549,6.2197,6.1116,6.0282,5.9657,5.902,5.7432,5.661,5.6336,5.5347,5.4848,5.4402,5.29,5.2159,5.1746,5.0168,4.8903,4.7943,4.7452,4.7673,4.7882,4.7212,4.6168,4.5092,4.4698,4.4386,4.3571,4.1308,4.0711,4.0007,3.7252,3.6633,3.6094,3.4181,3.288,3.1586,3.0159,2.8381,2.6976,2.6542,2.4849,0.0,0.0,0.0,0.0,1.8071,1.7387,1.6533,0.0,1.5449,0.0,0.0,0.0,0.0,0.0,0.0,0.0,0.0,1.2098,0.0,1.1425,1.0955,1.0717,1.0717,1.0738,1.0758,1.0645,1.0652,0.9419,0.7245,0.9582,1.0059,0.8764,0.494,0.3345,0.313,0.0857,-0.0,-0.0,-0.0,-0.0,-0.0,7.1321,7.2091,7.2706,7.2706,7.4053,7.5091,7.4745,7.5438,7.6207,7.6746,7.6322,7.6207,7.6746,7.8054,0.0,7.8861,7.9467,7.9194,7.7798,7.6688,7.5437,7.4018,7.2311,7.1028,7.0249,0.0,0.0,6.5301,6.3868,6.2887,6.2324,6.2023,6.1604,6.1149,6.1386,6.0736,5.944,5.8646,5.7635,5.6472,5.5501,5.4734,5.407,5.3367,5.2943,5.2498,5.104,5.0182,4.9571,4.8072,4.6694,4.5486,4.4875,4.4818,4.4915,4.4691,4.4163,4.3286,4.2242,4.195,4.1334,3.857,3.7839,3.7098,3.4183,3.3106,3.2313,3.0703,2.9615,2.8555,2.7674,2.5827,2.4579,2.4588,2.2423,2.0648,2.0441,0.0,0.0,0.0,0.0,0.0,0.0,1.392,0.0,0.0,0.0,0.0,0.0,0.0,0.0,1.2024,1.1069,0.0,1.0731,1.0744,1.0751,1.0618,0.9401,0.8734,0.875,1.013,0.9472,0.7323,0.6888,0.6681,0.6379,0.18,-0.0,-0.0,-0.0,-0.0,-0.0,-0.0,-0.0,-0.0,7.1937,7.2745,0.0,0.0,7.4707,0.0,7.4745,7.5399,7.6015,7.6015,7.6015,7.6015,7.6015,7.6707,7.7207,7.7139,0.0,0.0,0.0,7.4862,7.333,7.3168,7.1082,0.0,6.8825,6.7247,6.5999,6.5066,6.2604,6.1404,6.1368,6.0618,6.0194,6.0158,5.9416,5.8605,5.7665,5.6936,5.5586,5.3922,5.3856,5.2867,5.1435,5.1357,5.0863,4.9977,4.8973,4.7722,4.6518,4.5602,4.4442,4.3313,4.3286,4.2323,4.1591,4.2807,4.319,4.249,3.9804,3.9166,3.8466,3.579,3.4958,3.4026,3.0991,2.9164,2.7776,2.6332,2.583,2.583,2.5846,2.3972,2.2438,2.2748,1.9585,1.7206,1.7206,0.0,0.0,0.0,0.0,0.0,0.0,1.2383,1.1673,0.0,0.0,0.0,0.0,0.0,1.0247,1.0514,1.067,1.0618,1.0345,1.0378,1.0398,1.0672,0.7393,0.5499,0.5098,0.851,0.9968,0.9525,0.285,-0.0,-0.0,-0.0,-0.0,-0.0,-0.0,-0.0,-0.0,-0.0,-0.0,-0.0,0.0,0.0,7.1514,7.1514,7.2937,7.4014,7.3822,7.5053,7.6015,7.6015,7.6015,7.6015,7.6015,7.6169,7.6125,7.5646,7.688,7.6764,7.4535,7.3789,7.2681,7.0954,6.9191,6.8164,6.7981,6.6402,6.4563,6.2549,6.0719,5.9585,5.9015,5.884,5.8325,5.7701,5.759,5.6539,5.4968,5.4233,5.3247,5.2114,5.1488,5.1013,5.0575,4.9756,4.8708,4.763,4.6549,4.5421,4.4265,4.4041,4.3122,4.1861,4.0737,3.9548,3.8693,4.0032,3.9625,3.8564,3.6741,3.631,3.5899,3.4047,3.1761,2.9554,2.7502,2.6713,2.6253,2.604,2.4801,2.3871,2.4132,2.1408,1.9094,1.9157,1.6903,1.5277,1.5277,1.3842,0.0,0.0,1.2009,1.1232,1.0904,1.087,1.0628,0.0,0.0,0.0,0.0,0.6485,0.7877,1.0598,1.0638,0.9424,0.6706,0.6711,0.8076,1.0699,0.9868,0.6602,0.1345,0.2177,0.2466,0.2474,0.0692,-0.0,-0.0,-0.0,-0.0,-0.0,-0.0,-0.0,-0.0,-0.0,-0.0,-0.0,7.0898,7.1206,7.1475,7.1475,7.2899,7.4053,7.4053,7.5168,7.6015,7.6015,7.6015,7.5917,7.5616,7.5239,7.4698,7.3859,7.4857,7.4762,7.2969,7.1538,7.0302,6.91,6.7467,6.6439,6.6035,6.449,6.2513,6.0131,5.885,5.8,5.7614,5.669,5.6097,5.5585,5.476,5.3838,5.29,5.2107,5.1173,5.0199,4.9166,4.8522,4.7973,4.6867,4.5961,4.5306,4.4691,4.3693,4.2544,4.1852,4.0789,3.9521,3.7992,3.7062,3.6464,3.6479,3.6526,3.6162,3.4736,3.369,3.2633,3.0451,2.861,2.6832,2.5253,2.4759,2.4558,2.3885,2.2281,2.1091,2.1267,1.8814,1.6741,1.6741,1.4882,1.3526,1.3526,1.2172,0.0,1.137,1.0785,1.0412,1.0487,1.039,0.9714,0.8059,0.0,0.0,0.7243,0.6007,0.6321,0.8205,0.9856,0.9722,0.7809,0.4565,0.3897,0.5796,0.5796,0.3782,-0.0,-0.0,-0.0,-0.0,-0.0,-0.0,-0.0,-0.0,-0.0,-0.0,-0.0,-0.0,-0.0,-0.0,-0.0,-0.0,7.0898,7.1514,7.2014,7.2014,7.3283,7.4322,7.4322,7.5053,7.5562,7.5503,7.5503,7.5194,7.4482,7.3798,7.2924,7.1749,7.1937,7.1944,7.1541,6.9126,6.7577,6.7357,6.5673,6.4412,6.3716,6.1914,5.9924,5.786,5.6843,5.6257,5.6088,5.4362,5.3508,5.3475,5.2017,5.1261,5.1072,5.0231,4.9264,4.8232,4.6894,4.5872,4.5024,4.3882,4.3286,4.2876,4.2876,4.1906,4.0438,3.9216,3.8097,3.6918,3.5398,3.4825,3.427,3.2809,3.3127,3.3669,3.2695,3.1166,2.9245,2.6315,2.5619,2.513,2.3296,2.2783,2.2256,2.069,1.9127,1.807,1.8104,1.6308,1.4883,1.4883,1.3179,1.1856,1.1856,0.0,1.0107,1.0263,1.0412,1.0568,1.0744,1.0524,0.9252,0.646,0.7544,0.8761,0.0,0.6439,0.4577,0.4559,0.7545,0.9058,0.9058,0.3096,-0.0,-0.0,-0.0,-0.0,-0.0,-0.0,-0.0,-0.0,-0.0,-0.0,-0.0,-0.0,-0.0,-0.0,-0.0,-0.0,-0.0,-0.0,-0.0,-0.0147,7.0898,7.1014,7.1091,7.1091,7.1937,7.2591,7.2591,7.3322,7.3706,7.3204,7.3132,7.2653,7.1405,7.1176,7.0592,6.9211,6.8502,6.824,6.8378,6.7924,6.71,6.5742,6.3456,6.2241,6.2096,5.9122,5.7137,5.6175,5.443,5.3318,5.2649,5.148,5.0948,5.0948,5.0698,5.0089,4.9128,4.7973,4.6837,4.581,4.4571,4.3948,4.3787,4.3598,4.2048,3.9981,3.9981,3.8362,3.6248,3.6008,3.5813,3.5398,3.3957,3.2427,3.1011,2.9554,2.8372,2.7741,2.8865,2.7896,2.6315,2.4409,2.3931,2.3171,2.003,1.9096,1.8482,1.7044,1.6285,1.6084,1.6271,1.4671,1.3269,1.3269,1.1479,1.0179,1.0179,0.0,0.9988,1.0156,1.031,1.0471,1.0645,1.0658,1.0385,0.9977,0.4696,0.3895,0.946,0.4039,0.0807,0.0807,0.1346,0.1615,0.1615,0.0538,-0.0,-0.0,-0.0,-0.0,-0.0,-0.0,-0.0,-0.0,-0.0,-0.0,-0.0,-0.0,-0.0,-0.0,-0.0,-0.0,-0.0,-0.0,-0.0,-0.1039,7.036,7.0244,7.0244,7.0244,7.0345,7.057,7.103,7.1216,7.1169,7.0914,7.0498,6.9891,6.8946,6.8077,6.6971,6.5588,6.4765,6.3978,6.3305,6.4383,6.4375,6.2765,6.1262,5.9849,5.858,5.6606,5.4991,5.3687,5.2815,5.1925,5.108,5.0009,4.9153,4.8491,4.7973,4.704,4.5902,4.5335,4.4818,4.4163,4.2118,4.1334,4.1136,3.96,3.8258,3.7252,3.7252,3.6418,3.5068,3.3311,3.2726,3.2385,2.9966,2.8692,2.7961,2.7297,2.6591,2.5984,2.5879,2.5269,2.4039,2.1532,2.0916,2.0144,1.772,1.7,1.669,1.6022,1.5058,1.4382,1.4474,1.2976,1.1629,1.1545,1.0578,0.0,0.0,0.9968,1.0129,1.0174,0.871,0.8546,1.0545,1.0699,0.9058,0.5255,0.1884,0.1346,0.4313,0.1616,-0.0,-0.0,-0.0,-0.0,-0.0,-0.0,-0.0,-0.0,-0.0,-0.0,-0.0,-0.0,-0.0,-0.0,-0.0,-0.0,-0.0,-0.0,-0.0,-0.0,-0.0,-0.0,-0.0,-0.0,-0.2812,-0.7315,6.9244,6.8998,6.8866,6.8712,6.8196,6.8088,6.8769,6.8526,6.8222,6.8103,6.7575,6.68,6.5821,6.4614,6.3284,6.1909,6.122,6.0311,5.8911,6.0449,6.1006,5.9996,5.8801,5.7081,5.4926,5.4049,5.2943,5.1525,5.1303,5.0639,4.9552,4.8533,4.7297,4.6079,4.5302,4.4442,4.3504,4.278,4.256,4.2269,3.9575,3.8466,3.8258,3.6117,3.5068,3.4714,3.4229,3.3853,3.3162,3.0276,2.937,2.8997,2.6679,2.5676,2.5497,2.5497,2.4869,2.3993,2.2798,2.2438,2.1672,1.8617,1.7859,1.7474,1.5654,1.5226,1.5187,1.4679,1.3648,1.2612,1.2612,1.1475,1.0446,1.031,0.0,0.0,0.0,0.9215,0.9233,1.0032,0.8143,0.6996,0.8102,0.8241,0.593,0.0404,-0.0,-0.0,-0.0,-0.0,-0.0,-0.0,-0.0,-0.0,-0.0,-0.0,-0.0,-0.0,-0.0,-0.0,-0.0,-0.0,-0.0,-0.0,-0.0,-0.0,-0.0,-0.0,-0.0,-0.0,-0.0,-0.1169,-0.2934,-0.2963,-0.6422,-1.1177,6.7475,6.6921,6.6414,6.565,6.5137,6.4857,6.4932,6.4896,6.4671,6.4182,6.4102,6.3288,6.1224,6.0883,6.025,5.865,5.8485,5.8094,5.7127,5.7242,5.7654,5.8343,5.5963,5.3889,5.2203,5.1229,5.0627,5.0474,4.9536,4.8419,4.7091,4.6108,4.4995,4.376,4.3693,4.3598,4.3286,4.0811,3.9677,3.9473,3.6717,3.5595,3.5595,3.5398,3.4403,3.2993,3.1236,2.9756,2.8278,2.6127,2.5662,2.5948,2.5727,2.477,2.3822,2.3822,2.1532,1.9012,1.8884,1.8884,1.8372,1.656,1.6043,1.5654,1.384,1.344,1.2805,1.1279,1.0767,1.0767,1.0767,1.063,1.0453,1.0465,0.0,0.0,0.9876,0.7222,0.6435,0.9527,1.0066,0.7828,0.1346,0.0807,0.0538,-0.0,-0.0,-0.0,-0.0,-0.0,-0.0,-0.0,-0.0,-0.0,-0.0,-0.0,-0.0,-0.0,-0.0,-0.0,-0.0,-0.0,-0.0,-0.0,-0.0,-0.0,-0.0,-0.0,-0.0,-0.0,-0.0,-0.4706,-1.1656,-1.1514,-0.9521,-0.7358,6.5322,6.4985,6.4496,6.336,6.2749,6.2438,6.2438,6.2151,6.1715,6.1068,6.053,5.9743,5.8407,5.781,5.6922,5.5424,5.4765,5.3886,5.2558,5.1932,5.2638,5.4943,5.2964,5.1573,5.1005,5.0627,4.971,4.8214,4.7829,4.6634,4.479,4.4414,4.304,4.0911,4.0911,3.9803,3.7873,3.6859,3.6438,3.6227,3.4251,3.3698,3.369,3.1572,3.0447,2.9719,2.7755,2.6707,2.5912,2.414,2.3732,2.3588,2.2527,2.1271,2.0052,1.9066,1.7851,1.6477,1.5445,1.5957,1.6381,1.4716,1.4262,1.3655,1.1996,1.156,1.1228,1.0507,1.0365,1.0392,1.037,1.039,1.0514,1.0616,0.0,0.7816,0.9503,0.879,0.6881,0.4001,0.3892,0.2961,0.0269,-0.0,-0.0,-0.0,-0.0,-0.0,-0.0,-0.0,-0.0,-0.0,-0.0,-0.0,-0.0,-0.0,-0.0,-0.0,-0.0,-0.0,-0.0,-0.0,-0.0,-0.0,-0.0,-0.0,-0.0,-0.0,-0.0,-0.0438,-0.5253,-0.9296,-1.2444,-1.2515,-1.1573,-1.0321,6.3169,6.2786,6.2281,6.1129,6.0289,5.9832,5.9841,5.9318,5.8746,5.8215,5.7676,5.6954,5.5809,5.5024,5.394,5.2326,5.143,5.0454,4.9468,4.8115,4.8615,5.1456,4.9791,4.8797,4.8937,4.8128,4.7031,4.561,4.561,4.4328,4.1973,4.1973,4.0551,3.7886,3.7886,3.6696,3.4549,3.4117,3.3639,3.305,3.14,3.0737,3.0273,2.7955,2.7052,2.6883,2.4862,2.415,2.3885,2.17,2.1033,2.0745,1.9089,1.7919,1.703,1.5415,1.4836,1.4468,1.2706,1.308,1.3761,1.267,1.237,1.2024,1.0746,1.046,1.0385,1.0249,1.0222,1.0256,1.0256,0.9423,0.9211,1.0521,0.8716,0.7017,0.6736,0.6758,0.5062,0.0538,-0.0,-0.0,-0.0,-0.0,-0.0,-0.0,-0.0,-0.0,-0.0,-0.0,-0.0,-0.0,-0.0,-0.0,-0.0,-0.0,-0.0,-0.0,-0.0,-0.0,-0.0,-0.0,-0.0,-0.0,-0.0,-0.0,-0.0146,-0.2625,-0.3648,-0.4085,-0.8179,-1.0791,-1.248,-1.2414,-1.2395,-1.2553,6.0963,6.0265,5.9685,5.8825,5.7661,5.6812,5.6906,5.6227,5.5682,5.5638,5.5688,5.4979,5.3243,5.2467,5.1362,4.9576,4.8743,4.8327,4.8327,4.6265,4.6027,4.8221,4.6186,4.5357,4.5848,4.3222,4.2048,4.2685,4.2685,4.126,3.8542,3.8642,3.7248,3.4549,3.4549,3.4527,3.4419,3.3005,3.1523,2.9941,2.8029,2.6416,2.5128,2.5128,2.5128,2.4845,2.2867,2.2165,2.1656,1.8089,1.7138,1.7097,1.554,1.5207,1.5132,1.3403,1.2901,1.2523,1.0777,1.0276,1.0317,1.046,1.0493,1.0493,1.0493,1.0385,1.0243,1.0114,1.0086,0.9968,0.9857,0.7355,0.6545,1.0012,1.0643,0.8066,0.1056,-0.0,-0.0,-0.0,-0.0,-0.0,-0.0,-0.0,-0.0,-0.0,-0.0,-0.0,-0.0,-0.0,-0.0,-0.0,-0.0,-0.0,-0.0,-0.0,-0.0,-0.0,-0.0,-0.0,-0.0,-0.0,-0.0,-0.0,-0.0,-0.0,-0.0729,-0.8484,-1.1596,-1.1292,-0.7425,-0.8411,-1.2251,-1.2251,-1.2271,-1.2501,5.944,5.8721,5.8058,5.7507,5.6237,5.5243,5.5294,5.4652,5.3956,5.3474,5.2814,5.2004,5.0926,5.0007,4.9044,4.8047,4.6403,4.4558,4.2519,4.1795,4.1284,4.0944,4.2164,4.2817,4.3016,4.1297,4.0094,3.9355,3.8405,3.702,3.5409,3.5409,3.4388,3.2533,3.1449,3.0299,2.8959,2.7492,2.659,2.6119,2.5594,2.5256,2.4978,2.3573,2.2402,2.116,1.9259,1.788,1.6678,1.5688,1.5353,1.5199,1.3667,1.3269,1.2978,1.15,1.0951,1.0731,1.0239,1.0002,1.0069,1.0432,1.0493,1.05,1.039,1.0364,1.0263,0.9903,0.8057,0.7176,0.9381,0.9136,0.7293,0.3794,0.3191,0.2418,0.0268,-0.0,-0.0,-0.0,-0.0,-0.0,-0.0,-0.0,-0.0,-0.0,-0.0,-0.0,-0.0,-0.0,-0.0,-0.0,-0.0,-0.0,-0.0,-0.0,-0.0,-0.0,-0.0,-0.0,-0.0,-0.0,-0.0,-0.0,-0.0,-0.3063,-0.8334,-1.0699,-1.1583,-1.1418,-1.0348,-1.0791,-1.2244,-1.2081,-1.2257,-1.2501,5.7291,5.6712,5.6181,5.5677,5.4538,5.3583,5.3207,5.2532,5.1741,5.0913,5.0326,4.948,4.8125,4.7202,4.6205,4.4843,4.3345,4.1481,3.9251,3.8631,3.7768,3.6421,3.7441,3.8402,3.9081,3.7591,3.6553,3.6057,3.523,3.3776,3.1934,3.1934,3.0884,2.8848,2.7902,2.6897,2.5743,2.4822,2.4138,2.355,2.3422,2.2782,2.1744,2.0639,1.9155,1.7599,1.6408,1.5429,1.448,1.3885,1.3287,1.2595,1.1622,1.1417,1.1195,1.0329,1.0046,0.9978,0.9868,0.9915,0.9494,0.8603,0.9337,1.0426,1.052,0.9497,0.8676,0.9593,0.8215,0.6602,0.6076,0.5913,0.4568,0.0658,-0.0,-0.0,-0.0,-0.0,-0.0,-0.0,-0.0,-0.0,-0.0,-0.0,-0.0,-0.0,-0.0,-0.0,-0.0,-0.0,-0.0,-0.0,-0.0,-0.0,-0.0,-0.0,-0.0,-0.0,-0.0,-0.0,-0.0,-0.0,-0.1751,-0.4525,-0.4525,-0.6421,-0.9496,-1.097,-1.1549,-1.1536,-1.1653,-1.1782,-1.1993,-1.1979,-1.2162,-1.242,5.4834,5.4445,5.4173,5.3441,5.2571,5.1668,5.0803,4.991,4.9093,4.8329,4.8061,4.7145,4.5122,4.4176,4.2919,4.0924,4.0013,3.8898,3.7391,3.6337,3.511,3.359,3.2519,3.2544,3.3846,3.2667,3.2228,3.2694,3.2487,3.0937,2.8308,2.8435,2.7032,2.4431,2.4317,2.4203,2.4203,2.3975,2.3043,2.1641,2.1233,1.9265,1.6844,1.6844,1.5784,1.4361,1.4361,1.4242,1.4004,1.2457,1.102,0.9822,0.9822,0.9822,0.9829,0.9856,0.9612,0.9368,0.9394,0.9634,0.9093,0.6027,0.7633,1.0042,1.0566,0.8171,0.6515,0.8493,0.889,0.7065,0.1137,-0.0,-0.0,-0.0,-0.0,-0.0,-0.0,-0.0,-0.0,-0.0,-0.0,-0.0,-0.0,-0.0,-0.0,-0.0,-0.0,-0.0,-0.0,-0.0,-0.0,-0.0,-0.0,-0.0,-0.0,-0.0,-0.0,-0.0,-0.0,-0.0292,-0.1021,-0.1021,-0.467,-1.1141,-1.1438,-0.9641,-0.6536,-1.0185,-1.1653,-1.1647,-1.1626,-1.1708,-1.183,-1.1843,-1.204,-1.2291,5.3937,5.3193,5.2536,5.1683,5.0317,4.912,4.825,4.7415,4.6888,4.666,4.5179,4.4001,4.3528,4.1897,4.063,4.0166,3.8145,3.5893,3.3632,3.3261,3.2018,2.9476,2.91,2.8086,2.6227,2.8105,2.9076,2.9177,2.6933,2.5551,2.4906,2.4906,2.459,2.3937,2.2699,2.226,2.2017,1.9707,1.844,1.7972,1.6609,1.5773,1.5074,1.5074,1.4123,1.2689,1.2689,1.1856,1.0778,1.0422,1.0058,0.9822,0.9842,0.9849,0.9856,0.9761,0.8011,0.59,0.5908,0.7867,0.9619,0.8871,0.7551,0.7268,1.0055,1.0088,0.8108,0.3154,0.2147,0.1642,0.0249,-0.0,-0.0,-0.0,-0.0,-0.0,-0.0,-0.0,-0.0,-0.0,-0.0,-0.0,-0.0,-0.0,-0.0,-0.0,-0.0,-0.0,-0.0,-0.0,-0.0,-0.0,-0.0,-0.0,-0.0,-0.0,-0.0,-0.0,-0.0,-0.321,-0.9076,-0.9076,-0.8324,-0.7276,-1.0227,-1.1102,-1.048,-1.1214,-1.1647,-1.1626,-1.1619,-1.1708,-1.1843,-1.1965,-1.2128,-1.2305,5.1451,5.0841,5.0145,4.8928,4.8035,4.6841,4.5144,4.4775,4.4123,4.2546,4.1666,4.09,4.0376,3.8787,3.7325,3.6362,3.5064,3.3116,3.0512,3.0305,2.9036,2.6154,2.6064,2.5318,2.3822,2.3817,2.4556,2.6064,2.4565,2.3487,2.2702,2.2702,2.2009,2.0516,1.9726,1.9034,1.8093,1.6598,1.5902,1.5784,1.4955,1.4123,1.3407,1.3407,1.2457,1.102,1.102,1.0543,0.9822,0.9836,0.9836,0.9842,0.9747,0.8751,0.7755,0.929,0.8541,0.6539,0.3448,0.6093,0.9804,0.9854,0.623,0.3258,0.5178,0.5597,0.4582,0.0752,-0.0,-0.0,-0.0,-0.0,-0.0,-0.0,-0.0,-0.0,-0.0,-0.0,-0.0,-0.0,-0.0,-0.0,-0.0,-0.0,-0.0,-0.0,-0.0,-0.0,-0.0,-0.0,-0.0,-0.0,-0.3539,-0.556,-0.5489,-0.3747,-0.2745,-0.2765,-0.4665,-0.6712,-0.8905,-1.0686,-1.0517,-0.8724,-1.0787,-1.1667,-1.164,-1.1708,-1.1694,-1.1633,-1.1775,-1.1789,-1.1755,-1.1979,-1.2155,-1.2311,4.8624,4.8178,4.7668,4.5936,4.5588,4.4622,4.2055,4.1932,4.1208,3.8587,3.8196,3.7898,3.6964,3.5451,3.3837,3.194,3.1561,3.0278,2.7766,2.7324,2.6098,2.35,2.3406,2.3087,2.267,2.0144,2.0259,2.3007,2.2445,2.1654,2.0415,2.0415,1.9034,1.6609,1.6609,1.5902,1.4599,1.4361,1.4242,1.4123,1.3885,1.2928,1.1736,1.1736,1.102,0.9822,0.9822,0.9822,0.9829,0.9856,0.949,0.9117,0.9652,0.7905,0.6039,0.7675,0.8184,0.6931,0.1482,0.3959,0.8082,0.8082,0.4088,-0.0,-0.0,-0.0,-0.0,-0.0,-0.0,-0.0,-0.0,-0.0,-0.0,-0.0,-0.0,-0.0,-0.0,-0.0,-0.0,-0.0,-0.0,-0.0,-0.0,-0.0,-0.0,-0.0,-0.0,-0.0,-0.0,-0.0,-0.0567,-0.2009,-0.8203,-1.1613,-1.159,-0.8454,-0.6829,-0.6829,-1.0082,-0.9942,-0.6994,-1.0245,-1.1728,-1.1721,-1.1694,-1.1687,-1.1701,-1.1796,-1.1775,-1.1721,-1.1965,-1.1911,-1.1728,-1.1999,-1.2196,-1.2345,4.6871,4.656,4.5865,4.3777,4.3015,4.1978,3.973,3.9116,3.8697,3.8228,3.6485,3.5175,3.5022,3.2954,3.0964,2.9607,2.8348,2.7094,2.5522,2.4246,2.3013,2.1582,2.1486,2.0372,1.799,1.7535,1.8093,1.9786,1.7149,1.5762,1.5537,1.5537,1.53,1.4955,1.4955,1.4837,1.448,1.3168,1.2577,1.2457,1.102,1.0301,1.0058,1.0058,0.9937,0.9822,0.9822,0.9836,0.9856,0.9767,0.7894,0.6031,0.8922,0.9432,0.8055,0.2839,0.1358,0.1111,0.0247,0.0617,0.1358,0.1358,0.0624,-0.0,-0.0,-0.0,-0.0,-0.0,-0.0,-0.0,-0.0,-0.0,-0.0,-0.0,-0.0,-0.0,-0.0,-0.0,-0.0,-0.0,-0.0,-0.0,-0.0,-0.0,-0.0,-0.0,-0.0,-0.0,-0.0,-0.0,-0.3014,-0.978,-1.1115,-1.1563,-1.1563,-1.1115,-1.08,-1.0775,-1.1365,-1.1438,-1.1104,-1.1557,-1.1918,-1.1999,-1.1864,-1.1877,-1.1993,-1.1877,-1.1898,-1.2006,-1.2047,-1.204,-1.202,-1.2196,-1.2352,-1.2474,4.3738,4.3376,4.2785,4.0699,4.0095,3.9106,3.6497,3.6181,3.5479,3.3533,3.2575,3.213,3.213,3.0105,2.7923,2.5732,2.5209,2.4298,2.2749,2.2352,2.1471,1.9907,1.9239,1.8224,1.7079,1.5182,1.4697,1.5258,1.4816,1.4599,1.4599,1.4599,1.4123,1.3287,1.3287,1.2808,1.1856,1.114,1.0899,1.0778,1.0058,0.9829,0.9842,0.9842,0.9849,0.9747,0.9747,0.8622,0.7383,0.9161,0.8793,0.7291,0.5063,0.4324,0.3704,0.0864,-0.0,-0.0,-0.0,-0.0,-0.0,-0.0,-0.0,-0.0,-0.0,-0.0,-0.0,-0.0,-0.0,-0.0,-0.0,-0.0,-0.0,-0.0,-0.0,-0.0,-0.0,-0.0,-0.0,-0.0,-0.0,-0.0,-0.0,-0.0,-0.0,-0.0,-0.0,-0.1837,-0.6297,-0.649,-0.711,-0.8309,-1.051,-1.1543,-1.1529,-1.1667,-1.1653,-1.1633,-1.1714,-1.1789,-1.1857,-1.1857,-1.1932,-1.206,-1.1986,-1.1999,-1.206,-1.2081,-1.2074,-1.2081,-1.2244,-1.2311,-1.2305,-1.2291,-1.2379,-1.2501]},{"header":{"parameterUnit":"m.s-1","parameterCategory":1,"la1":30.6,"la2":28.766,"lo1":-90.7593,"lo2":-88.6598,"dy":0.0162,"dx":0.0183,"nx":116,"ny":114,"refTime":"2023-03-11T06:00:00:Z","depth":0,"parameterNumber":3,"parameterNumberName":"V-component_of_WINDS"},"data":[0.0,0.0,0.0,0.0,0.0,0.0,0.0,0.0,0.0,0.0,0.0,0.0,0.0,0.0,0.0,0.0,0.0,0.0,0.0,0.0,0.0,0.0,0.0,0.0,0.0,0.0,0.0,0.0,0.0,0.0,0.0,0.0,0.0,0.0,0.0,0.0,0.0,0.0,0.0,0.0,0.0,0.0,0.0,0.0,0.0,0.0,0.0,0.0,0.0,0.0,0.0,0.0,0.0,0.0,0.0,0.0,0.0,0.0,0.0,0.0,0.0,0.0,0.0,0.0,0.0,0.0,0.0,0.0,0.0,0.0,0.0,0.0,0.0,0.0,0.0,0.0,0.0,0.0,0.0,0.0,0.0,0.0,0.0,0.0,0.0,0.0,0.0,0.0,0.0,0.0,0.0,0.0,0.0,0.0,0.0,0.0,0.0,0.0,0.0,0.0,0.0,0.0,0.0,0.0,0.0,0.0,0.0,0.0,0.0,0.0,0.0,0.0,0.0,0.0,0.0,0.0,0.0,0.0,0.0,0.0,0.0,0.0,0.0,0.0,0.0,0.0,0.0,0.0,0.0,0.0,0.0,0.0,0.0,0.0,0.0,0.0,0.0,0.0,0.0,0.0,0.0,0.0,0.0,0.0,0.0,0.0,0.0,0.0,0.0,0.0,0.0,0.0,0.0,0.0,0.0,0.0,0.0,0.0,0.0,0.0,0.0,0.0,0.0,0.0,0.0,0.0,0.0,0.0,0.0,0.0,0.0,0.0,0.0,0.0,0.0,0.0,0.0,0.0,0.0,0.0,0.0,0.0,0.0,0.0,0.0,0.0,0.0,0.0,0.0,0.0,0.0,0.0,0.0,0.0,0.0,0.0,0.0,0.0,0.0,0.0,0.0,0.0,0.0,0.0,0.0,0.0,0.0,0.0,0.0,0.0,0.0,0.0,0.0,0.0,0.0,0.0,0.0,0.0,0.0,0.0,0.0,0.0,0.0,0.0,0.0,0.0,0.0,0.0,0.0,0.0,0.0,0.0,0.0,0.0,0.0,0.0,0.0,0.0,0.0,0.0,0.0,0.0,0.0,0.0,0.0,0.0,0.0,0.0,0.0,0.0,0.0,0.0,0.0,0.0,0.0,0.0,0.0,0.0,0.0,0.0,0.0,0.0,0.0,0.0,0.0,0.0,0.0,0.0,0.0,0.0,0.0,0.0,0.0,0.0,0.0,0.0,0.0,0.0,0.0,0.0,0.0,0.0,0.0,0.0,0.0,0.0,0.0,0.0,0.0,0.0,0.0,0.0,0.0,0.0,0.0,0.0,0.0,0.0,0.0,0.0,0.0,0.0,0.0,0.0,0.0,0.0,0.0,0.0,0.0,0.0,0.0,0.0,0.0,0.0,0.0,0.0,0.0,0.0,0.0,0.0,0.0,0.0,0.0,0.0,0.0,0.0,0.0,0.0,0.0,0.0,0.0,0.0,0.0,0.0,0.0,0.0,0.0,0.0,0.0,0.0,0.0,0.0,0.0,0.0,0.0,0.0,0.0,0.0,0.0,0.0,0.0,0.0,0.0,0.0,0.0,0.0,0.0,0.0,0.0,0.0,0.0,0.0,0.0,0.0,0.0,0.0,0.0,0.0,0.0,0.0,0.0,0.0,0.0,0.0,0.0,0.0,0.0,0.0,0.0,0.0,0.0,0.0,0.0,0.0,0.0,0.0,0.0,0.0,0.0,0.0,0.0,0.0,0.0,0.0,0.0,0.0,0.0,0.0,0.0,0.0,0.0,0.0,0.0,0.0,0.0,0.0,0.0,0.0,0.0,0.0,0.0,0.0,0.0,0.0,0.0,0.0,0.0,0.0,0.0,0.0,0.0,0.0,0.0,0.0,0.0,0.0,0.0,0.0,0.0,0.0,0.0,0.0,0.0,0.0,0.0,0.0,0.0,0.0,0.0,0.0,0.0,0.0,0.0,0.0,0.0,0.0,0.0,0.0,0.0,0.0,0.0,0.0,0.0,0.0,0.0,0.0,0.0,0.0,0.0,0.0,0.0,0.0,0.0,0.0,0.0,0.0,0.0,0.0,0.0,0.0,0.0,0.0,0.0,0.0,0.0,0.0,0.0,0.0,0.0,0.0,0.0,0.0,0.0,0.0,0.0,0.0,0.0,0.0,0.0,0.0,0.0,0.0,0.0,0.0,0.0,0.0,0.0,0.0,0.0,0.0,0.0,0.0,0.0,0.0,0.0,0.0,0.0,0.0,0.0,0.0,0.0,0.0,0.0,0.0,0.0,0.0,0.0,0.0,0.0,0.0,0.0,0.0,0.0,0.0,0.0,0.0,0.0,0.0,0.0,0.0,0.0,0.0,0.0,0.0,0.0,0.0,0.0,0.0,0.0,0.0,0.0,0.0,0.0,0.0,0.0,0.0,0.0,0.0,0.0,0.0,0.0,0.0,0.0,0.0,0.0,0.0,0.0,0.0,0.0,0.0,0.0,0.0,0.0,0.0,0.0,0.0,0.0,0.0,0.0,0.0,0.0,0.0,0.0,0.0,0.0,0.0,0.0,0.0,0.0,0.0,0.0,0.0,0.0,0.0,0.0,0.0,0.0,0.0,0.0,0.0,0.0,0.0,0.0,0.0,0.0,0.0,0.0,0.0,0.0,0.0,0.0,0.0,0.0,0.0,0.0,0.0,0.0,0.0,0.0,0.0,0.0,0.0,0.0,0.0,0.0,0.0,0.0,0.0,0.0,0.0,0.0,0.0,0.0,0.0,0.0,0.0,0.0,0.0,0.0,0.0,0.0,0.0,0.0,0.0,0.0,0.0,0.0,0.0,0.0,0.0,0.0,0.0,0.0,0.0,0.0,0.0,0.0,0.0,0.0,0.0,0.0,0.0,0.0,0.0,0.0,0.0,0.0,0.0,0.0,0.0,0.0,0.0,0.0,0.0,0.0,0.0,0.0,0.0,0.0,0.0,0.0,0.0,0.0,0.0,0.0,0.0,0.0,0.0,0.0,0.0,0.0,0.0,0.0,0.0,0.0,0.0,0.0,0.0,0.0,0.0,0.0,0.0,0.0,0.0,0.0,0.0,0.0,0.0,0.0,0.0,0.0,0.0,0.0,0.0,0.0,0.0,0.0,0.0,0.0,0.0,0.0,0.0,0.0,0.0,0.0,0.0,0.0,0.0,0.0,0.0,0.0,0.0,0.0,0.0,0.0,0.0,0.0,0.0,0.0,0.0,0.0,0.0,0.0,0.0,0.0,0.0,0.0,0.0,0.0,0.0,0.0,0.0,0.0,0.0,0.0,0.0,0.0,0.0,0.0,0.0,0.0,0.0,0.0,0.0,0.0,0.0,0.0,0.0,0.0,0.0,0.0,0.0,0.0,0.0,0.0,0.0,0.0,0.0,0.0,0.0,0.0,0.0,0.0,0.0,0.0,0.0,0.0,0.0,0.0,0.0,0.0,0.0,0.0,0.0,0.0,0.0,0.0,0.0,0.0,0.0,0.0,0.0,0.0,0.0,0.0,0.0,0.0,0.0,0.0,0.0,0.0,0.0,0.0,0.0,0.0,0.0,0.0,0.0,0.0,0.0,0.0,0.0,0.0,0.0,0.0,0.0,0.0,0.0,0.0,0.0,0.0,0.0,0.0,0.0,0.0,0.0,0.0,0.0,0.0,0.0,0.0,0.0,0.0,0.0,0.0,0.0,0.0,0.0,0.0,0.0,0.0,0.0,0.0,0.0,0.0,0.0,0.0,0.0,0.0,0.0,0.0,0.0,0.0,0.0,0.0,0.0,0.0,0.0,0.0,0.0,0.0,0.0,0.0,0.0,0.0,0.0,0.0,0.0,0.0,0.0,0.0,0.0,0.0,0.0,0.0,0.0,0.0,0.0,0.0,0.0,0.0,0.0,0.0,0.0,0.0,0.0,0.0,0.0,0.0,0.0,0.0,0.0,0.0,0.0,0.0,0.0,0.0,0.0,0.0,0.0,0.0,0.0,0.0,0.0,0.0,0.0,0.0,0.0,0.0,0.0,0.0,0.0,0.0,0.0,0.0,0.0,0.0,0.0,0.0,0.0,0.0,0.0,0.0,0.0,0.0,0.0,0.0,0.0,0.0,0.0,0.0,0.0,0.0,0.0,0.0,0.0,0.0,0.0,0.0,0.0,0.0,0.0,0.0,0.0,0.0,0.0,0.0,0.0,0.0,0.0,0.0,0.0,0.0,0.0,0.0,0.0,0.0,0.0,0.0,0.0,0.0,0.0,0.0,0.0,0.0,0.0,0.0,0.0,0.0,0.0,0.0,0.0,0.0,0.0,0.0,0.0,0.0,0.0,0.0,0.0,0.0,0.0,0.0,0.0,0.0,0.0,0.0,0.0,0.0,0.0,0.0,0.0,0.0,0.0,0.0,0.0,0.0,0.0,0.0,0.0,0.0,0.0,0.0,0.0,0.0,0.0,0.0,0.0,0.0,0.0,0.0,0.0,0.0,0.0,0.0,0.0,0.0,0.0,0.0,0.0,0.0,0.0,0.0,0.0,0.0,0.0,0.0,0.0,0.0,0.0,0.0,0.0,0.0,0.0,0.0,0.0,0.0,0.0,0.0,0.0,0.0,0.0,0.0,0.0,0.0,0.0,0.0,0.0,0.0,0.0,0.0,0.0,0.0,0.0,0.0,0.0,0.0,0.0,0.0,0.0,0.0,0.0,0.0,0.0,0.0,0.0,0.0,0.0,0.0,0.0,0.0,0.0,0.0,0.0,0.0,0.0,0.0,0.0,0.0,0.0,0.0,0.0,0.0,0.0,0.0,0.0,0.0,0.0,0.0,0.0,0.0,0.0,0.0,0.0,0.0,0.0,0.0,0.0,0.0,0.0,0.0,0.0,0.0,0.0,0.0,0.0,0.0,0.0,0.0,0.0,0.0,0.0,0.0,0.0,0.0,0.0,0.0,0.0,0.0,0.0,0.0,0.0,0.0,0.0,0.0,0.0,0.0,0.0,0.0,0.0,0.0,0.0,0.0,0.0,0.0,0.0,0.0,0.0,0.0,0.0,0.0,0.0,0.0,0.0,0.0,0.0,0.0,0.0,0.0,0.0,0.0,0.0,0.0,0.0,0.0,0.0,0.0,0.0,0.0,0.0,0.0,0.0,0.0,0.0,0.0,0.0,0.0,0.0,0.0,0.0,0.0,0.0,0.0,0.0,0.0,0.0,0.0,0.0,0.0,0.0,0.0,0.0,0.0,0.0,0.0,0.0,0.0,0.0,0.0,0.0,0.0,0.0,0.0,0.0,0.0,0.0,0.0,0.0,0.0,0.0,0.0,0.0,0.0,0.0,0.0,0.0,0.0,0.0,0.0,0.0,0.0,0.0,0.0,0.0,0.0,0.0,0.0,0.0,0.0,0.0,0.0,0.0,0.0,0.0,0.0,0.0,0.0,0.0,0.0,0.0,0.0,0.0,0.0,0.0,0.0,0.0,0.0,0.0,0.0,0.0,0.0,0.0,0.0,0.0,0.0,0.0,0.0,0.0,0.0,0.0,0.0,0.0,0.0,0.0,0.0,0.0,0.0,0.0,0.0,0.0,0.0,0.0,0.0,0.0,0.0,0.0,0.0,0.0,0.0,0.0,0.0,0.0,0.0,0.0,0.0,0.0,0.0,0.0,0.0,0.0,0.0,0.0,0.0,0.0,0.0,0.0,0.0,0.0,0.0,0.0,0.0,0.0,0.0,0.0,0.0,0.0,0.0,0.0,0.0,0.0,0.0,0.0,0.0,0.0,0.0,0.0,0.0,0.0,0.0,0.0,0.0,0.0,0.0,0.0,0.0,0.0,0.0,0.0,0.0,0.0,0.0,0.0,0.0,0.0,0.0,0.0,0.0,0.0,0.0,0.0,0.0,0.0,0.0,0.0,0.0,0.0,0.0,0.0,0.0,0.0,0.0,0.0,0.0,0.0,0.0,0.0,0.0,0.0,0.0,0.0,0.0,0.0,0.0,0.0,0.0,0.0,0.0,0.0,0.0,0.0,0.0,0.0,0.0,0.0,0.0,0.0,0.0,0.0,0.0,0.0,0.0,0.0,0.0,0.0,0.0,0.0,0.0,0.0,0.0,0.0,0.0,0.0,0.0,0.0,0.0,0.0,0.0,0.0,0.0,0.0,0.0,0.0,0.0,0.0,0.0,0.0,0.0,0.0,0.0,0.0,0.0,0.0,0.0,0.0,0.0,0.0,0.0,0.0,0.0,0.0,0.0,0.0,0.0,0.0,0.0,0.0,0.0,0.0,0.0,0.0,0.0,0.0,0.0,0.0,0.0,0.0,0.0,0.0,0.0,0.0,0.0,0.0,0.0,0.0,0.0,0.0,0.0,0.0,0.0,0.0,0.0,0.0,0.0,0.0,0.0,0.0,0.0,0.0,0.0,0.0,0.0,0.0,0.0,0.0,0.0,0.0,0.0,0.0,0.0,0.0,0.0,0.0,0.0,0.0,0.0,0.0,0.0,0.0,0.0,0.0,0.0,0.0,0.0,0.0,0.0,0.0,0.0,0.0,0.0,0.0,0.0,0.0,0.0,0.0,0.0,0.0,0.0,0.0,0.0,0.0,0.0,0.0,0.0,0.0,0.0,0.0,0.0,0.0,0.0,0.0,0.0,0.0,0.0,0.0,0.0,0.0,0.0,0.0,0.0,0.0,0.0,0.0,0.0,0.0,0.0,0.0,0.0,0.0,0.0,0.0,0.0,0.0,0.0,0.0,0.0,0.0,0.0,0.0,0.0,0.0,0.0,0.0,0.0,0.0,0.0,0.0,0.0,0.0,0.0,0.0,0.0,0.0,0.0,0.0,0.0,0.0,0.0,0.0,0.0,0.0,0.0,0.0,0.0,0.0,0.0,0.0,0.0,0.0,0.0,0.0,0.0,0.0,0.0,0.0,0.0,0.0,0.0,0.0,0.0,0.0,0.0,0.0,0.0,0.0,0.0,0.0,0.0,0.0,0.0,0.0,0.0,0.0,0.0,0.0,0.0,0.0,0.0,0.0,0.0,0.0,0.0,0.0,0.0,0.0,0.0,0.0,0.0,0.0,0.0,0.0,0.0,0.0,0.0,0.0,0.0,0.0,0.0,0.0,0.0,0.0,0.0,0.0,0.0,0.0,0.0,0.0,0.0,0.0,0.0,0.0,0.0,0.0,0.0,0.0,0.0,0.0,0.0,0.0,0.0,0.0,0.0,0.0,0.0,0.0,0.0,0.0,0.0,0.0,0.0,0.0,0.0,0.0,0.0,0.0,0.0,0.0,0.0,0.0,0.0,0.0,0.0,0.0,0.0,0.0,0.0,0.0,0.0,0.0,0.0,0.0,0.0,0.0,0.0,0.0,0.0,0.0,0.0,0.0,0.0,0.0,0.0,0.0,0.0,0.0,0.0,0.0,0.0,0.0,0.0,0.0,0.0,0.0,0.0,0.0,0.0,0.0,0.0,0.0,0.0,0.0,0.0,0.0,0.0,0.0,0.0,0.0,0.0,0.0,0.0,0.0,0.0,0.0,0.0,0.0,0.0,0.0,0.0,0.0,0.0,0.0,0.0,0.0,0.0,0.0,0.0,0.0,0.0,0.0,0.0,0.0,0.0,0.0,0.0,0.0,0.0,0.0,0.0,0.0,0.0,0.0,0.0,0.0,0.0,0.0,0.0,0.0,0.0,0.0,0.0,0.0,0.0,0.0,0.0,0.0,0.0,0.0,0.0,0.0,0.0,0.0,0.0,0.0,0.0,0.0,0.0,0.0,0.0,0.0,0.0,0.0,0.0,0.0,0.0,0.0,0.0,0.0,0.0,0.0,0.0,0.0,0.0,0.0,0.0,0.0,0.0,0.0,0.0,0.0,0.0,0.0,0.0,0.0,0.0,0.0,0.0,0.0,0.0,0.0,0.0,0.0,0.0,0.0,0.0,0.0,0.0,0.0,0.0,0.0,0.0,0.0,0.0,0.0,0.0,0.0,0.0,0.0,0.0,0.0,0.0,0.0,0.0,0.0,0.0,0.0,0.0,0.0,0.0,0.0,0.0,0.0,0.0,0.0,0.0,0.0,0.0,0.0,0.0,0.0,0.0,0.0,0.0,0.0,0.0,0.0,0.0,0.0,0.0,0.0,0.0,0.0,0.0,0.0,0.0,0.0,0.0,0.0,0.0,0.0,0.0,0.0,0.0,0.0,0.0,0.0,0.0,0.0,0.0,0.0,0.0,0.0,0.0,0.0,0.0,0.0,0.0,0.0,0.0,0.0,0.0,0.0,0.0,0.0,0.0,0.0,0.0,0.0,0.0,0.0,0.0,0.0,0.0,0.0,0.0,0.0,0.0,0.0,0.0,0.0,0.0,0.0,0.0,0.0,0.0,0.0,0.0,0.0,0.0,0.0,0.0,0.0,0.0,0.0,0.0,0.0,0.0,0.0,0.0,0.0,0.0,0.0,0.0,0.0,0.0,0.0,0.0,0.0,0.0,0.0,0.0,0.0,0.0,0.0,0.0,0.0,0.0,0.0,0.0,0.0,0.0,0.0,0.0,0.0,0.0,0.0,0.0,0.0,0.0,0.0,0.0,0.0,0.0,0.0,0.0,0.0,0.0,0.0,0.0,0.0,0.0,0.0,0.0,0.0,0.0,0.0,0.0,0.0,0.0,0.0,0.0,0.0,0.0,0.0,0.0,0.0,0.0,0.0,0.0,0.0,0.0,0.0,0.0,0.0,0.0,0.0,0.0,0.0,0.0,0.0,0.0,0.0,0.0,0.0,0.0,0.0,0.0,0.0,0.0,0.0,0.0,0.0,0.0,0.0,0.0,0.0,0.0,0.0,0.0,0.0,0.0,0.0,0.0,0.0,0.0,0.0,0.0,0.0,0.0,0.0,0.0,0.0,0.0,0.0,0.0,0.0,0.0,0.0,0.0,0.0,0.0,0.0,0.0,0.0,0.0,0.0,0.0,0.0,0.0,0.0,0.0,0.0,0.0,0.0,0.0,0.0,0.0,0.0,0.0,0.0,0.0,0.0,0.0,0.0,0.0,0.0,0.0,0.0,0.0,0.0,0.0,0.0,0.0,0.0,0.0,0.0,0.0,0.0,0.0,0.0,0.0,0.0,0.0,0.0,0.0,0.0,0.0,0.0,0.0,0.0,0.0,0.0,0.0,0.0,0.0,0.0,0.0,0.0,0.0,0.0,0.0,0.0,0.0,0.0,0.0,0.0,0.0,0.0,0.0,0.0,0.0,0.0,0.0,0.0,0.0,0.0,0.0,0.0,0.0,0.0,0.0,0.0,0.0,0.0,0.0,0.0,0.0,0.0,0.0,0.0,0.0,0.0,0.0,0.0,0.0,0.0,0.0,0.0,0.0,0.0,0.0,0.0,0.0,0.0,0.0,0.0,0.0,0.0,0.0,0.0,0.0,0.0,0.0,0.0,0.0,0.0,0.0,0.0,0.0,0.0,0.0,0.0,0.0,0.0,0.0,0.0,0.0,0.0,0.0,0.0,0.0,0.0,0.0,0.0,0.0,0.0,0.0,0.0,0.0,0.0,0.0,0.0,0.0,0.0,0.0,0.0,0.0,0.0,0.0,0.0,0.0,0.0,0.0,0.0,0.0,0.0,0.0,0.0,0.0,0.0,0.0,0.0,0.0,0.0,0.0,0.0,0.0,0.0,0.0,0.0,0.0,0.0,0.0,0.0,0.0,0.0,0.0,0.0,0.0,0.0,0.0,0.0,0.0,0.0,0.0,0.0,0.0,0.0,0.0,0.0,0.0,0.0,0.0,0.0,0.0,0.0,0.0,0.0,0.0,0.0,0.0,0.0,0.0,0.0,0.0,0.0,0.0,0.0,0.0,0.0,0.0,0.0,0.0,0.0,0.0,0.0,0.0,0.0,0.0,0.0,0.0,0.0,0.0,0.0,0.0,0.0,0.0,0.0,0.0,0.0,0.0,0.0,0.0,0.0,0.0,0.0,0.0,0.0,0.0,0.0,0.0,0.0,0.0,0.0,0.0,0.0,0.0,0.0,0.0,0.0,0.0,0.0,0.0,0.0,0.0,0.0,0.0,0.0,0.0,0.0,0.0,0.0,0.0,0.0,0.0,0.0,0.0,0.0,0.0,0.0,0.0,0.0,0.0,0.0,0.0,0.0,0.0,0.0,0.0,0.0,0.0,0.0,0.0,0.0,0.0,0.0,0.0,0.0,0.0,0.0,0.0,0.0,0.0,0.0,0.0,0.0,0.0,0.0,0.0,0.0,0.0,0.0,0.0,0.0,0.0,0.0,0.0,0.0,0.0,0.0,0.0,0.0,0.0,0.0,0.0,0.0,0.0,0.0,0.0,0.0,0.0,0.0,0.0,0.0,0.0,0.0,0.0,0.0,0.0,0.0,0.0,0.0,0.0,0.0,0.0,0.0,0.0,0.0,0.0,0.0,0.0,0.0,0.0,0.0,0.0,0.0,0.0,0.0,0.0,0.0,0.0,0.0,0.0,0.0,0.0,0.0,0.0,0.0,0.0,0.0,0.0,0.0,0.0,0.0,0.0,0.0,0.0,0.0,0.0,0.0,0.0,0.0,0.0,0.0,0.0,0.0,0.0,0.0,0.0,0.0,0.0,0.0,0.0,0.0,0.0,0.0,0.0,0.0,0.0,0.0,0.0,0.0,0.0,0.0,0.0,0.0,0.0,0.0,0.0,0.0,0.0,0.0,0.0,0.0,0.0,0.0,0.0,0.0,0.0,0.0,0.0,0.0,0.0,0.0,0.0,0.0,0.0,-0.0,0.0,0.0,0.0,0.0,0.0,0.0,0.0,0.0,0.0,0.0,0.0,0.0,0.0,0.0,0.0,0.0,0.0,0.0,0.0,0.0,0.0,0.0,0.0,0.0,0.0,0.0,0.0,0.0,0.0,0.0,0.0,0.0,0.0,0.0,0.0,0.0,0.0,0.0,0.0,0.0,0.0,0.0,0.0,0.0,0.0,0.0,0.0,0.0,0.0,0.0,0.0,0.0,0.0,0.0,0.0,0.0,0.0,0.0,0.0,0.0,0.0,0.0,0.0,0.0,0.0,0.0,0.0,0.0,0.0,0.0,0.0,0.0,0.0,0.0,0.0,0.0,0.0,0.0,0.0,0.0,0.0,0.0,0.0,0.0,0.0,0.0,0.0,0.0,0.0,0.0,0.0,0.0,0.0,0.0,0.0,0.0,0.0,0.0,0.0,0.0,0.0,0.0,0.0,0.0,0.0,0.0,0.0,0.0,0.0,0.0,0.0,0.0,0.0,0.0,0.0,-0.1137,0.0,0.0,0.0,0.0,0.0,0.0,0.0,0.0,0.0,0.0,0.0,0.0,0.0,0.0,0.0,0.0,0.0,0.0,0.0,0.0,0.0,0.0,0.0,0.0,0.0,0.0,0.0,0.0,0.0,0.0,0.0,0.0,0.0,0.0,0.0,0.0,0.0,0.0,0.0,0.0,0.0,0.0,0.0,0.0,0.0,0.0,0.0,0.0,0.0,0.0,0.0,0.0,0.0,0.0,0.0,0.0,0.0,0.0,0.0,0.0,0.0,0.0,0.0,0.0,0.0,0.0,0.0,0.0,0.0,0.0,0.0,0.0,0.0,0.0,0.0,0.0,0.0,0.0,0.0,0.0,0.0,0.0,0.0,0.0,0.0,0.0,0.0,0.0,0.0,0.0,0.0,0.0,0.0,0.0,0.0,0.0,0.0,0.0,0.0,0.0,0.0,0.0,0.0,0.0,0.0,0.0,0.0,0.0,0.0,0.0,0.0,0.0,0.0,0.0,-0.2703,-0.715,0.0,0.0,0.0,0.0,0.0,0.0,0.0,0.0,0.0,0.0,0.0,0.0,0.0,0.0,0.0,0.0,0.0,0.0,0.0,0.0,0.0,0.0,0.0,0.0,0.0,0.0,0.0,0.0,0.0,0.0,0.0,0.0,0.0,0.0,0.0,0.0,0.0,0.0,0.0,0.0,0.0,0.0,0.0,0.0,0.0,0.0,0.0,0.0,0.0,0.0,0.0,0.0,0.0,0.0,0.0,0.0,0.0,0.0,0.0,0.0,0.0,0.0,0.0,0.0,0.0,0.0,0.0,0.0,0.0,0.0,0.0,0.0,0.0,0.0,0.0,0.0,0.0,0.0,0.0,0.0,0.0,0.0,0.0,0.0,0.0,0.0,0.0,0.0,0.0,0.0,0.0,0.0,0.0,0.0,0.0,0.0,0.0,0.0,0.0,0.0,0.0,0.0,0.0,0.0,0.0,0.0,0.0,0.0,0.0,0.0,0.0,-0.0815,-0.1816,-0.1784,-0.7089,0.0,0.0,0.0,0.0,0.0,0.0,0.0,0.0,0.0,0.0,0.0,0.0,0.0,0.0,0.0,0.0,0.0,0.0,0.0,0.0,0.0,0.0,0.0,0.0,0.0,0.0,0.0,0.0,0.0,0.0,0.0,0.0,0.0,0.0,0.0,0.0,0.0,0.0,0.0,0.0,0.0,0.0,0.0,0.0,0.0,0.0,0.0,0.0,0.0,0.0,0.0,0.0,0.0,0.0,0.0,0.0,0.0,0.0,0.0,0.0,0.0,0.0,0.0,0.0,0.0,0.0,0.0,0.0,0.0,0.0,0.0,0.0,0.0,0.0,0.0,0.0,0.0,0.0,0.0,0.0,0.0,0.0,0.0,0.0,0.0,0.0,0.0,0.0,0.0,0.0,0.0,0.0,0.0,0.0,0.0,0.0,0.0,0.0,0.0,0.0,0.0,0.0,0.0,0.0,0.0,0.0,0.0,0.0,0.0,0.0,0.0,0.0,-0.5319,-1.2893,-1.2955,-1.14,-0.9883,0.0,0.0,0.0,0.0,0.0,0.0,0.0,0.0,0.0,0.0,0.0,0.0,0.0,0.0,0.0,0.0,0.0,0.0,0.0,0.0,0.0,0.0,0.0,0.0,0.0,0.0,0.0,0.0,0.0,0.0,0.0,0.0,0.0,0.0,0.0,0.0,0.0,0.0,0.0,0.0,0.0,0.0,0.0,0.0,0.0,0.0,0.0,0.0,0.0,0.0,0.0,0.0,0.0,0.0,0.0,0.0,0.0,0.0,0.0,0.0,0.0,0.0,0.0,0.0,0.0,0.0,0.0,0.0,0.0,0.0,0.0,0.0,0.0,0.0,0.0,0.0,0.0,0.0,0.0,0.0,0.0,0.0,0.0,0.0,0.0,0.0,0.0,0.0,0.0,0.0,0.0,0.0,0.0,0.0,0.0,0.0,0.0,0.0,0.0,0.0,0.0,0.0,0.0,0.0,0.0,0.0,0.0,0.0,0.0,-0.0635,-0.6262,-1.1592,-1.6062,-1.6185,-1.4337,-1.2289,0.0,0.0,0.0,0.0,0.0,0.0,0.0,0.0,0.0,0.0,0.0,0.0,0.0,0.0,0.0,0.0,0.0,0.0,0.0,0.0,0.0,0.0,0.0,0.0,0.0,0.0,0.0,0.0,0.0,0.0,0.0,0.0,0.0,0.0,0.0,0.0,0.0,0.0,0.0,0.0,0.0,0.0,0.0,0.0,0.0,0.0,0.0,0.0,0.0,0.0,0.0,0.0,0.0,0.0,0.0,0.0,0.0,0.0,0.0,0.0,0.0,0.0,0.0,0.0,0.0,0.0,0.0,0.0,0.0,0.0,0.0,0.0,0.0,0.0,0.0,0.0,0.0,0.0,0.0,0.0,0.0,0.0,0.0,0.0,0.0,0.0,0.0,0.0,0.0,0.0,0.0,0.0,0.0,0.0,0.0,0.0,0.0,0.0,0.0,0.0,0.0,0.0,0.0,0.0,0.0,0.0,0.0,0.0,-0.1279,-0.426,-1.3375,-1.6601,-1.6128,-1.6272,-1.6058,-1.577,0.0,0.0,0.0,0.0,0.0,0.0,0.0,0.0,0.0,0.0,0.0,0.0,0.0,0.0,0.0,0.0,0.0,0.0,0.0,0.0,0.0,0.0,0.0,0.0,0.0,0.0,0.0,0.0,0.0,0.0,0.0,0.0,0.0,0.0,0.0,0.0,0.0,0.0,0.0,0.0,0.0,0.0,0.0,0.0,0.0,0.0,0.0,0.0,0.0,0.0,0.0,0.0,0.0,0.0,0.0,0.0,0.0,0.0,0.0,0.0,0.0,0.0,0.0,0.0,0.0,0.0,0.0,0.0,0.0,0.0,0.0,0.0,0.0,0.0,0.0,0.0,0.0,0.0,0.0,0.0,0.0,0.0,0.0,0.0,0.0,0.0,0.0,0.0,0.0,0.0,0.0,0.0,0.0,0.0,0.0,0.0,0.0,0.0,0.0,0.0,0.0,0.0,0.0,0.0,0.0,0.0,0.0,0.0,-0.5969,-1.5211,-1.6498,-1.6788,-1.654,-1.6476,-1.6327,-1.6205,0.0,0.0,0.0,0.0,0.0,0.0,0.0,0.0,0.0,0.0,0.0,0.0,0.0,0.0,0.0,0.0,0.0,0.0,0.0,0.0,0.0,0.0,0.0,0.0,0.0,0.0,0.0,0.0,0.0,0.0,0.0,0.0,0.0,0.0,0.0,0.0,0.0,0.0,0.0,0.0,0.0,0.0,0.0,0.0,0.0,0.0,0.0,0.0,0.0,0.0,0.0,0.0,0.0,0.0,0.0,0.0,0.0,0.0,0.0,0.0,0.0,0.0,0.0,0.0,0.0,0.0,0.0,0.0,0.0,0.0,0.0,0.0,0.0,0.0,0.0,0.0,0.0,0.0,0.0,0.0,0.0,0.0,0.0,0.0,0.0,0.0,0.0,0.0,0.0,0.0,0.0,0.0,0.0,0.0,0.0,0.0,0.0,0.0,0.0,0.0,0.0,0.0,0.0,0.0,0.0,-0.3849,-0.9823,-0.9823,-1.0666,-1.2359,-1.5798,-1.7026,-1.6904,-1.6605,-1.6415,-1.6259,0.0,0.0,0.0,0.0,0.0,0.0,0.0,0.0,0.0,0.0,0.0,0.0,0.0,0.0,0.0,0.0,0.0,0.0,0.0,0.0,0.0,0.0,0.0,0.0,0.0,0.0,0.0,0.0,0.0,0.0,0.0,0.0,0.0,0.0,0.0,0.0,0.0,0.0,0.0,0.0,0.0,0.0,0.0,0.0,0.0,0.0,0.0,0.0,0.0,0.0,0.0,0.0,0.0,0.0,0.0,0.0,0.0,0.0,0.0,0.0,0.0,0.0,0.0,0.0,0.0,0.0,0.0,0.0,0.0,0.0,0.0,0.0,0.0,0.0,0.0,0.0,0.0,0.0,0.0,0.0,0.0,0.0,0.0,0.0,0.0,0.0,0.0,0.0,0.0,0.0,0.0,0.0,0.0,0.0,0.0,0.0,0.0,0.0,0.0,0.0,0.0,0.0,-0.1768,-0.4792,-0.4732,-0.8549,-1.4756,-1.6286,-1.4515,-1.1253,-1.5313,-1.7026,-1.6978,-1.6473,-1.6483,-1.632,0.0,0.0,0.0,0.0,0.0,0.0,0.0,0.0,0.0,0.0,0.0,0.0,0.0,0.0,0.0,0.0,0.0,0.0,0.0,0.0,0.0,0.0,0.0,0.0,0.0,0.0,0.0,0.0,0.0,0.0,0.0,0.0,0.0,0.0,0.0,0.0,0.0,0.0,0.0,0.0,0.0,0.0,0.0,0.0,0.0,0.0,0.0,0.0,0.0,0.0,0.0,0.0,0.0,0.0,0.0,0.0,0.0,0.0,0.0,0.0,0.0,0.0,0.0,0.0,0.0,0.0,0.0,0.0,0.0,0.0,0.0,0.0,0.0,0.0,0.0,0.0,0.0,0.0,0.0,0.0,0.0,0.0,0.0,0.0,0.0,0.0,0.0,0.0,0.0,0.0,0.0,0.0,0.0,0.0,0.0,0.0,0.0,0.0,0.0,0.0,0.0,0.0,-0.6102,-1.6524,-1.6511,-1.3562,-0.913,-1.4715,-1.6862,-1.6815,-1.7032,-1.7012,-1.6944,-1.6639,-1.6517,-1.6449,0.0,0.0,0.0,0.0,0.0,0.0,0.0,0.0,0.0,0.0,0.0,0.0,0.0,0.0,0.0,0.0,0.0,0.0,0.0,0.0,0.0,0.0,0.0,0.0,0.0,0.0,0.0,0.0,0.0,0.0,0.0,0.0,0.0,0.0,0.0,0.0,0.0,0.0,0.0,0.0,0.0,0.0,0.0,0.0,0.0,0.0,0.0,0.0,0.0,0.0,0.0,0.0,0.0,0.0,0.0,0.0,0.0,0.0,0.0,0.0,0.0,0.0,0.0,0.0,0.0,0.0,0.0,0.0,0.0,0.0,0.0,0.0,0.0,0.0,0.0,0.0,0.0,0.0,0.0,0.0,0.0,0.0,0.0,0.0,0.0,0.0,0.0,0.0,0.0,0.0,0.0,0.0,0.0,0.0,0.0,0.0,0.0,0.0,0.0,0.0,-0.0222,-0.791,-1.3326,-1.6955,-1.7043,-1.5842,-1.4241,-1.6189,-1.7032,-1.6998,-1.6998,-1.6992,-1.6944,-1.6632,-1.6524,-1.6469,0.0,0.0,0.0,0.0,0.0,0.0,0.0,0.0,0.0,0.0,0.0,0.0,0.0,0.0,0.0,0.0,0.0,0.0,0.0,0.0,0.0,0.0,0.0,0.0,0.0,0.0,0.0,0.0,0.0,0.0,0.0,0.0,0.0,0.0,0.0,0.0,0.0,0.0,0.0,0.0,0.0,0.0,0.0,0.0,0.0,0.0,0.0,0.0,0.0,0.0,0.0,0.0,0.0,0.0,0.0,0.0,0.0,0.0,0.0,0.0,0.0,0.0,0.0,0.0,0.0,0.0,0.0,0.0,0.0,0.0,0.0,0.0,0.0,0.0,0.0,0.0,0.0,0.0,0.0,0.0,0.0,0.0,0.0,0.0,0.0,0.0,0.0,0.0,0.0,0.0,0.0,0.0,0.0,0.0,0.0,0.0,0.0,-0.0,-0.4251,-0.6473,-0.6678,-1.1627,-1.5044,-1.7197,-1.6969,-1.7053,-1.7012,-1.7012,-1.6998,-1.6978,-1.6978,-1.6944,-1.687,-1.6612,-1.649,-1.6408,0.0,0.0,0.0,0.0,0.0,0.0,0.0,0.0,0.0,0.0,0.0,0.0,0.0,0.0,0.0,0.0,0.0,0.0,0.0,0.0,0.0,0.0,0.0,0.0,0.0,0.0,0.0,0.0,0.0,0.0,0.0,0.0,0.0,0.0,0.0,0.0,0.0,0.0,0.0,0.0,0.0,0.0,0.0,0.0,0.0,0.0,0.0,0.0,0.0,0.0,0.0,0.0,0.0,0.0,0.0,0.0,0.0,0.0,0.0,0.0,0.0,0.0,0.0,0.0,0.0,0.0,0.0,0.0,0.0,0.0,0.0,0.0,0.0,0.0,0.0,0.0,0.0,0.0,0.0,0.0,0.0,0.0,0.0,0.0,0.0,0.0,0.0,0.0,0.0,0.0,0.0,0.0,0.0,0.0,0.0,-0.0674,-0.0898,-0.1122,-1.2052,-1.7686,-1.7583,-1.1781,-1.2106,-1.723,-1.7154,-1.7012,-1.6978,-1.6978,-1.6978,-1.6971,-1.6971,-1.6876,-1.672,-1.6558,-1.6415,-1.6273,0.0,0.0,0.0,0.0,0.0,0.0,0.0,0.0,0.0,0.0,0.0,0.0,0.0,0.0,0.0,0.0,0.0,0.0,0.0,0.0,0.0,0.0,0.0,0.0,0.0,0.0,0.0,0.0,0.0,0.0,0.0,0.0,0.0,0.0,0.0,0.0,0.0,0.0,0.0,0.0,0.0,0.0,0.0,0.0,0.0,0.0,0.0,0.0,0.0,0.0,0.0,0.0,0.0,0.0,0.0,0.0,0.0,0.0,0.0,0.0,0.0,0.0,0.0,0.0,0.0,0.0,0.0,0.0,0.0,0.0,0.0,0.0,0.0,0.0,0.0,0.0,0.0,0.0,0.0,0.0,0.0,0.0,0.0,0.0,0.0,0.0,0.0,0.0,0.0,0.0,0.0,0.0,0.0,0.0,0.0,-0.887,-1.3408,-1.3408,-1.1893,-1.3338,-1.7458,-1.5741,-1.5797,-1.7141,-1.7039,-1.6992,-1.6978,-1.6978,-1.691,-1.6809,-1.6809,-1.6714,-1.6544,-1.6286,-1.6171,-1.6103,0.0,0.0,0.0,0.0,0.0,0.0,0.0,0.0,0.0,0.0,0.0,0.0,0.0,0.0,0.0,0.0,0.0,0.0,0.0,0.0,0.0,0.0,0.0,0.0,0.0,0.0,0.0,0.0,0.0,0.0,0.0,0.0,0.0,0.0,0.0,0.0,0.0,0.0,0.0,0.0,0.0,0.0,0.0,0.0,0.0,0.0,0.0,0.0,0.0,0.0,0.0,0.0,0.0,0.0,0.0,0.0,0.0,0.0,0.0,0.0,0.0,0.0,0.0,0.0,0.0,0.0,0.0,0.0,0.0,0.0,0.0,0.0,0.0,0.0,0.0,0.0,-0.451,-0.4075,-0.405,0.0,-0.4024,0.0,-0.022,-0.2444,-0.5424,0.0,-0.3223,0.0,0.0,0.0,0.0,0.0,0.0,-0.2551,-0.8287,-1.4602,-1.7994,-1.7802,-1.4407,-1.4448,-1.7398,-1.7291,-1.7324,-1.71,0.0,-1.6978,-1.6978,-1.691,-1.6829,-1.6741,-1.6673,-1.6558,-1.6408,-1.6246,-1.6096,-1.5954,0.0,0.0,0.0,0.0,0.0,0.0,0.0,0.0,0.0,0.0,0.0,0.0,0.0,0.0,0.0,0.0,0.0,0.0,0.0,0.0,0.0,0.0,0.0,0.0,0.0,0.0,0.0,0.0,0.0,0.0,0.0,0.0,0.0,0.0,0.0,0.0,0.0,0.0,0.0,0.0,0.0,0.0,0.0,0.0,0.0,0.0,0.0,0.0,0.0,0.0,-0.0607,0.0,0.0,0.0,0.0,0.0,0.0,0.0,0.0,0.0,0.0,0.0,0.0,0.0,0.0,-0.0769,-0.1479,-0.1362,0.0,0.0,0.0,0.0,-0.3824,-1.5825,0.0,-1.6618,-1.1286,-1.0669,-1.0718,-1.0492,-1.0628,-0.8517,-0.2917,-0.6732,-1.2286,-1.9042,-0.9126,-0.2117,-0.1431,-0.1193,-0.1188,-0.1177,-0.1167,-0.6489,-1.7371,-1.7782,-1.7893,-1.7981,-1.7793,-1.784,-1.7684,-1.7507,-1.7338,-1.7182,0.0,0.0,-1.6971,-1.6815,-1.6734,-1.6707,-1.6551,-1.6402,-1.6279,-1.6259,-1.6069,-1.5818,0.0,0.0,0.0,0.0,0.0,0.0,0.0,0.0,0.0,0.0,0.0,0.0,0.0,0.0,0.0,0.0,0.0,0.0,0.0,0.0,0.0,0.0,0.0,0.0,0.0,0.0,0.0,0.0,0.0,0.0,0.0,0.0,0.0,0.0,0.0,0.0,0.0,0.0,0.0,0.0,0.0,0.0,0.0,0.0,0.0,0.0,0.0,0.0,0.0,0.0,-0.3493,0.0,0.0,0.0,0.0,0.0,0.0,0.0,0.0,0.0,0.0,0.0,0.0,0.0,0.0,-0.4657,0.0,0.0,-0.4073,0.0,0.0,0.0,-0.376,-1.5308,0.0,0.0,0.0,0.0,-1.7021,0.0,0.0,0.0,0.0,0.0,0.0,0.0,0.0,0.0,-0.8385,-0.7913,-0.7859,-0.7747,-0.7447,-0.8336,-1.0653,-1.5526,-1.7927,-1.7947,-1.7968,-1.7792,-1.765,-1.7494,-1.7338,-1.7182,0.0,0.0,-1.6971,-1.6815,-1.6673,-1.6544,-1.6402,-1.6252,-1.6103,-1.5981,-1.5825,-1.5662,0.0,0.0,0.0,0.0,0.0,0.0,0.0,0.0,0.0,0.0,0.0,0.0,0.0,0.0,0.0,0.0,0.0,0.0,0.0,0.0,0.0,0.0,0.0,0.0,0.0,0.0,0.0,0.0,0.0,0.0,0.0,0.0,0.0,0.0,0.0,0.0,0.0,0.0,0.0,0.0,0.0,0.0,0.0,0.0,0.0,0.0,0.0,0.0,0.0,0.0,-0.8837,-0.7187,-0.4758,-0.4054,-0.3639,-0.0789,0.0,0.0,0.0,0.0,0.0,0.0,0.0,-0.1018,-0.4706,0.0,0.0,0.0,-0.8259,-0.5225,-0.3337,-0.3103,0.0,-1.4428,-1.5779,-1.6246,-1.7635,0.0,0.0,0.0,0.0,0.0,0.0,0.0,0.0,0.0,0.0,0.0,-1.5107,-1.4521,-1.4348,-1.4363,-1.3945,-1.3904,-1.4006,-1.6658,-1.788,-1.8021,-1.7982,-1.7738,-1.7528,-1.7453,-1.7297,-1.708,-1.7012,0.0,-1.6971,-1.6815,-1.6659,-1.651,-1.6368,-1.6218,-1.6062,-1.5906,-1.5764,-1.5615,0.0,0.0,0.0,0.0,0.0,0.0,0.0,0.0,0.0,0.0,0.0,0.0,0.0,0.0,0.0,0.0,0.0,0.0,0.0,0.0,0.0,0.0,0.0,0.0,0.0,0.0,0.0,0.0,0.0,0.0,0.0,0.0,0.0,0.0,0.0,0.0,0.0,0.0,0.0,0.0,0.0,0.0,0.0,0.0,0.0,0.0,0.0,0.0,0.0,0.0,-1.2779,-1.3604,-0.9911,-0.9169,-0.8829,-0.4792,-0.2681,-0.192,-0.196,-0.1993,-0.1788,-0.176,-0.1687,-0.2776,-0.834,-1.032,0.0,0.0,-1.1287,-1.0327,-0.7567,0.0,-0.904,0.0,-1.4428,-1.518,-1.6802,-1.7114,-1.748,0.0,0.0,0.0,0.0,0.0,0.0,0.0,0.0,0.0,-1.9657,-1.92,-1.8939,-1.8884,-1.8579,-1.8531,-1.8728,-1.8179,-1.8023,-1.8213,-1.7989,-1.7724,-1.7467,-1.7439,-1.7277,-1.7026,-1.6992,0.0,0.0,-1.6761,-1.6612,-1.6463,-1.632,-1.6185,-1.6062,-1.5906,-1.5764,-1.5615,0.0,0.0,0.0,0.0,0.0,0.0,0.0,0.0,0.0,0.0,0.0,0.0,0.0,0.0,0.0,0.0,0.0,0.0,0.0,0.0,0.0,0.0,0.0,0.0,0.0,0.0,0.0,0.0,0.0,0.0,0.0,0.0,0.0,0.0,0.0,0.0,0.0,0.0,0.0,0.0,0.0,0.0,0.0,0.0,0.0,0.0,0.0,0.0,0.0,0.0,0.0,-1.2678,-1.2671,-1.3528,-1.4592,-1.4953,0.0,0.0,-0.8538,-0.8205,-0.8021,-0.7727,-0.666,-0.5792,-0.6157,0.0,0.0,-1.1259,-1.1268,-1.1166,-1.0875,0.0,0.0,0.0,0.0,-1.4875,-1.6205,-1.6856,-1.7324,-1.7684,0.0,0.0,0.0,0.0,0.0,0.0,0.0,0.0,0.0,-1.9237,-1.9081,-1.8782,-1.8477,-1.8335,-1.8375,-1.8036,-1.788,-1.7901,-1.788,-1.7772,-1.7623,-1.7487,-1.7331,-1.7168,0.0,0.0,0.0,-1.6605,-1.6456,-1.6313,-1.6164,-1.6096,-1.6062,-1.5906,-1.5764,-1.5615,0.0,0.0,0.0,0.0,0.0,0.0,0.0,0.0,0.0,0.0,0.0,0.0,0.0,0.0,0.0,0.0,0.0,0.0,0.0,0.0,0.0,0.0,0.0,0.0,0.0,0.0,0.0,0.0,0.0,0.0,0.0,0.0,0.0,0.0,0.0,0.0,0.0,0.0,0.0,0.0,0.0,0.0,0.0,0.0,0.0,0.0,0.0,0.0,0.0,0.0,0.0,0.0,-1.2447,-1.3281,0.0,0.0,-1.4928,-1.3939,-1.4565,-1.4714,-1.4407,-1.3985,-1.2719,-1.1372,-1.0446,0.0,-1.1697,-1.1389,-1.1402,-1.145,-1.1456,-1.1563,0.0,0.0,0.0,0.0,-1.5167,-1.5567,-1.613,-1.7243,-1.7704,0.0,0.0,0.0,0.0,0.0,0.0,0.0,0.0,-1.9203,-1.9061,-1.8782,-1.8477,-1.8321,-1.8321,-1.8023,-1.786,-1.786,-1.7772,-1.7609,-1.7372,-1.7311,-1.7154,-1.6924,0.0,0.0,0.0,-1.6544,-1.6435,-1.6307,-1.6246,-1.6103,-1.5927,-1.5778,-1.5628,-1.5671,0.0,0.0,0.0,0.0,0.0,0.0,0.0,0.0,0.0,0.0,0.0,0.0,0.0,0.0,0.0,0.0,0.0,0.0,0.0,0.0,0.0,0.0,0.0,0.0,0.0,0.0,0.0,0.0,0.0,0.0,0.0,0.0,0.0,0.0,0.0,0.0,0.0,0.0,0.0,0.0,0.0,0.0,0.0,0.0,0.0,0.0,0.0,0.0,0.0,0.0,0.0,0.0,0.0,0.0,0.0,0.0,-1.566,-1.675,-1.7509,-1.7916,-1.8002,-1.7512,-1.6194,-1.4931,0.0,0.0,-1.1802,-1.1565,-1.1457,-1.1491,-1.1599,-1.1701,-1.1952,-1.2508,0.0,-1.3044,-1.4414,-1.476,-1.535,0.0,0.0,0.0,0.0,0.0,0.0,0.0,0.0,0.0,0.0,-1.9115,-1.8959,-1.8708,-1.8443,-1.8287,-1.8179,-1.7935,-1.7772,-1.7738,-1.7629,-1.7446,-1.7195,-1.7195,-1.7032,-1.6748,0.0,0.0,0.0,-1.6463,-1.6374,-1.6239,-1.6191,-1.6042,-1.5832,-1.5642,-1.5876,-1.67,0.0,0.0,0.0,0.0,0.0,0.0,0.0,0.0,0.0,0.0,0.0,0.0,0.0,0.0,0.0,0.0,0.0,0.0,0.0,0.0,0.0,0.0,0.0,0.0,0.0,0.0,0.0,0.0,0.0,0.0,0.0,0.0,0.0,0.0,0.0,0.0,0.0,0.0,0.0,0.0,0.0,0.0,0.0,0.0,0.0,0.0,0.0,0.0,0.0,0.0,0.0,0.0,0.0,0.0,0.0,0.0,-1.4597,-1.5615,-1.6517,-1.7202,-1.7616,-1.746,-1.63,-1.4991,0.0,0.0,-1.1979,-1.1681,-1.1619,-1.1619,-1.1619,-1.1619,-1.1769,-1.2223,-1.2535,-1.3098,-1.4156,-1.4808,-1.535,0.0,0.0,0.0,0.0,0.0,0.0,0.0,0.0,0.0,0.0,-1.8918,-1.8694,-1.8531,-1.8389,-1.8179,-1.786,-1.7717,-1.7575,-1.7426,-1.7426,-1.7344,-1.7195,-1.7195,-1.7032,0.0,0.0,0.0,0.0,-1.6313,-1.6225,-1.6069,-1.592,-1.5859,-1.5818,-1.552,-1.6912,-1.9124,0.0,0.0,0.0,0.0,0.0,0.0,0.0,0.0,0.0,0.0,0.0,0.0,0.0,0.0,0.0,0.0,0.0,0.0,0.0,0.0,0.0,0.0,0.0,0.0,0.0,0.0,-0.2813,-0.861,-0.8521,-0.8463,-0.8265,0.0,0.0,0.0,0.0,0.0,0.0,0.0,0.0,0.0,0.0,0.0,0.0,0.0,0.0,0.0,0.0,0.0,0.0,0.0,0.0,0.0,0.0,0.0,0.0,0.0,0.0,0.0,-1.5059,-1.5662,-1.6062,-1.5811,-1.4997,-1.4122,-1.358,-1.2813,-1.2101,-1.1701,-1.1694,-1.1735,-1.164,-1.1789,-1.2067,-1.2515,-1.2759,0.0,0.0,0.0,0.0,0.0,0.0,0.0,0.0,0.0,0.0,0.0,0.0,0.0,0.0,-1.8816,-1.8694,-1.8531,-1.8199,-1.7914,-1.7717,-1.7568,-1.7412,-1.7263,-1.7263,-1.7134,-1.689,-1.689,0.0,0.0,0.0,0.0,0.0,-1.6042,-1.5967,-1.5913,-1.5764,-1.6594,-1.7994,-1.7884,-1.944,-2.1723,0.0,0.0,0.0,0.0,0.0,0.0,0.0,0.0,0.0,0.0,0.0,0.0,0.0,0.0,0.0,0.0,0.0,0.0,0.0,0.0,0.0,0.0,0.0,0.0,0.0,-0.3646,-0.6356,-1.0324,-1.1927,-1.1453,-0.8978,-1.1454,-1.2406,0.0,0.0,0.0,0.0,0.0,0.0,0.0,0.0,0.0,-1.1619,0.0,0.0,0.0,0.0,0.0,0.0,0.0,0.0,0.0,0.0,0.0,0.0,0.0,0.0,0.0,0.0,-1.474,-1.5187,-1.4943,-1.4319,0.0,0.0,0.0,-1.202,-1.1687,-1.1735,-1.1789,-1.1647,-1.1816,-1.2067,0.0,0.0,0.0,0.0,0.0,0.0,0.0,0.0,0.0,0.0,0.0,0.0,0.0,0.0,0.0,0.0,0.0,-1.8375,-1.8287,-1.8002,-1.7738,-1.748,-1.7385,-1.7256,-1.7114,-1.7114,-1.6985,-1.6748,-1.6748,0.0,0.0,0.0,0.0,0.0,-1.5832,-1.5771,-1.5952,-1.6558,-1.7756,-1.9141,-2.0002,-2.1938,-2.4204,0.0,0.0,0.0,0.0,0.0,0.0,0.0,0.0,0.0,0.0,0.0,0.0,0.0,0.0,0.0,0.0,0.0,0.0,0.0,0.0,0.0,0.0,0.0,0.0,0.0,-0.9646,-1.0058,-0.7077,-1.1042,-1.2979,-1.3075,-1.2931,-1.261,-1.2298,-1.2135,0.0,0.0,0.0,0.0,0.0,0.0,0.0,0.0,0.0,0.0,0.0,0.0,0.0,0.0,0.0,0.0,0.0,0.0,0.0,0.0,0.0,0.0,0.0,0.0,-1.4251,-1.4753,-1.459,0.0,0.0,0.0,0.0,0.0,-1.1647,-1.1735,-1.1789,-1.166,-1.1748,-1.1857,0.0,0.0,0.0,0.0,0.0,0.0,0.0,0.0,0.0,0.0,0.0,0.0,0.0,0.0,0.0,0.0,0.0,-1.7846,-1.7812,-1.7812,-1.7602,-1.7195,-1.7182,-1.7107,-1.6965,-1.6965,-1.6876,-1.672,-1.672,0.0,0.0,0.0,0.0,0.0,-1.5877,-1.5815,-1.5987,-1.846,-1.9501,-1.9859,-2.1889,-2.4387,-2.6411,0.0,0.0,0.0,0.0,0.0,0.0,0.0,0.0,0.0,0.0,0.0,0.0,0.0,0.0,0.0,0.0,0.0,0.0,0.0,0.0,0.0,0.0,0.0,0.0,-0.5808,-0.963,-1.1338,-1.073,-1.2052,-1.2574,-1.2569,-1.2684,-1.2637,-1.244,-1.2176,-1.1898,0.0,0.0,0.0,0.0,0.0,0.0,0.0,0.0,0.0,0.0,-1.1619,-1.1687,0.0,0.0,0.0,0.0,0.0,0.0,0.0,0.0,-1.2223,0.0,-1.261,0.0,-1.3017,-1.2759,-1.2467,-1.2223,0.0,0.0,0.0,0.0,0.0,-1.1823,-1.1789,-1.1904,-1.2081,0.0,0.0,0.0,0.0,0.0,0.0,0.0,0.0,0.0,0.0,0.0,0.0,0.0,0.0,0.0,0.0,0.0,-1.7704,-1.7358,-1.7243,-1.7188,-1.7195,-1.7087,-1.6951,-1.6802,-1.6802,-1.6666,-1.6415,-1.6415,0.0,0.0,0.0,0.0,-1.6028,-1.765,-1.8279,-1.8452,-2.0872,-2.2811,-2.4657,-2.515,-2.6966,-2.8989,0.0,0.0,0.0,0.0,0.0,0.0,0.0,0.0,0.0,0.0,0.0,0.0,0.0,0.0,0.0,0.0,0.0,0.0,0.0,0.0,0.0,0.0,0.0,-1.0661,-0.8564,-1.0492,-1.1809,-1.2074,-1.223,-1.2447,-1.2712,-1.2725,-1.2651,-1.2488,-1.2121,-1.183,-1.1619,0.0,0.0,0.0,0.0,0.0,0.0,0.0,0.0,0.0,-1.1619,-1.1667,0.0,-1.1735,-1.1938,-1.2169,0.0,0.0,0.0,0.0,-1.2325,-1.2386,-1.2386,-1.2393,-1.2366,-1.2203,-1.1999,-1.183,-1.183,0.0,0.0,0.0,0.0,0.0,-1.1748,0.0,0.0,0.0,0.0,0.0,0.0,0.0,0.0,0.0,0.0,0.0,0.0,0.0,0.0,0.0,0.0,0.0,0.0,0.0,-1.7412,-1.7107,-1.6951,-1.691,-1.6992,-1.6842,-1.6727,-1.6646,-1.6646,-1.653,-1.6307,-1.6239,0.0,0.0,0.0,0.0,-1.7237,-1.8543,-1.9523,-2.0732,-2.33,-2.4945,-2.6411,-2.7521,-2.8809,-2.9913,0.0,0.0,0.0,0.0,0.0,0.0,0.0,0.0,0.0,0.0,0.0,0.0,0.0,0.0,0.0,0.0,0.0,0.0,0.0,0.0,0.0,0.0,0.0,-1.1529,-1.1619,-1.164,-1.1837,-1.2216,-1.2311,-1.2562,-1.2963,-1.2895,-1.2739,-1.2481,-1.2081,-1.1796,-1.1626,-1.1748,0.0,0.0,-1.1748,0.0,0.0,0.0,0.0,0.0,0.0,0.0,0.0,-1.1619,-1.1803,-1.2033,-1.2054,0.0,0.0,0.0,0.0,0.0,-1.2528,-1.2433,-1.2318,-1.2298,-1.206,-1.183,-1.183,0.0,0.0,0.0,0.0,0.0,0.0,0.0,0.0,0.0,0.0,0.0,0.0,0.0,0.0,0.0,0.0,0.0,0.0,0.0,0.0,0.0,0.0,0.0,0.0,0.0,0.0,-1.6951,-1.6795,-1.6707,-1.668,-1.6578,-1.651,-1.649,-1.6463,-1.6381,-1.6232,-1.6083,0.0,0.0,0.0,0.0,-1.9242,-1.9727,-2.1077,-2.2955,-2.5716,-2.6749,-2.6966,-2.913,-2.9873,-2.9913,0.0,0.0,0.0,0.0,0.0,0.0,0.0,0.0,0.0,0.0,0.0,0.0,0.0,0.0,0.0,0.0,0.0,0.0,0.0,0.0,0.0,-1.0624,-1.1221,-1.1647,-1.1619,-1.1619,-1.1714,-1.1904,-1.2413,-1.2766,-1.2969,-1.3322,-1.3139,-1.2494,-1.2305,-1.1993,-1.1619,-1.164,-1.164,-1.1619,-1.164,0.0,0.0,0.0,0.0,0.0,0.0,0.0,0.0,-1.1619,-1.1728,-1.1891,-1.202,0.0,0.0,0.0,0.0,0.0,-1.2657,-1.2583,-1.244,-1.2318,-1.206,-1.183,-1.183,0.0,0.0,0.0,0.0,0.0,0.0,0.0,0.0,0.0,0.0,0.0,0.0,0.0,0.0,0.0,0.0,0.0,0.0,0.0,0.0,0.0,0.0,0.0,0.0,0.0,0.0,-1.6795,-1.6639,-1.6497,-1.6381,-1.6476,-1.6463,-1.6341,-1.6212,-1.6069,-1.592,-1.5771,-1.6838,0.0,0.0,-1.9639,-2.1965,-2.3591,-2.4788,-2.5484,-2.8067,-2.9152,-2.9335,-2.9455,-2.9713,-2.9913,0.0,0.0,0.0,0.0,0.0,0.0,0.0,0.0,0.0,0.0,0.0,0.0,0.0,0.0,0.0,0.0,0.0,0.0,0.0,0.0,0.0,-1.1509,-1.164,-1.1626,-1.1619,-1.1775,-1.1972,-1.2189,-1.2712,-1.3051,-1.32,-1.3247,-1.2996,-1.2494,-1.2352,-1.2081,-1.1735,-1.1735,-1.1687,-1.1619,0.0,0.0,0.0,0.0,0.0,0.0,0.0,0.0,0.0,0.0,-1.1714,-1.1843,-1.1911,0.0,0.0,0.0,0.0,0.0,-1.2372,-1.2318,-1.2271,-1.2284,-1.2182,-1.2033,-1.187,0.0,0.0,0.0,0.0,0.0,0.0,0.0,0.0,0.0,0.0,0.0,0.0,0.0,0.0,0.0,0.0,0.0,0.0,0.0,0.0,0.0,0.0,0.0,0.0,0.0,0.0,0.0,-1.6361,-1.6212,-1.6062,-1.6049,-1.6049,-1.6062,-1.5913,-1.5805,-1.573,-1.6914,-1.8105,-1.9116,0.0,-2.1679,-2.3785,-2.4971,-2.617,-2.7409,-2.864,-2.9325,-2.9432,-2.9299,-2.9325,-2.9446,0.0,0.0,0.0,0.0,0.0,0.0,0.0,0.0,0.0,0.0,0.0,0.0,0.0,0.0,0.0,0.0,0.0,0.0,0.0,0.0,-1.1543,-1.1647,-1.166,-1.1667,-1.1667,-1.1965,-1.2277,-1.261,-1.3091,-1.3424,-1.36,-1.3234,-1.2901,-1.2603,-1.2386,-1.2121,-1.183,-1.183,-1.1748,-1.1619,0.0,0.0,0.0,0.0,0.0,0.0,0.0,0.0,0.0,0.0,0.0,0.0,0.0,0.0,0.0,-1.2088,-1.2142,-1.2216,-1.2135,-1.2115,-1.2142,-1.2257,-1.2264,-1.2203,-1.2074,0.0,0.0,0.0,0.0,0.0,0.0,0.0,0.0,0.0,0.0,0.0,0.0,0.0,0.0,0.0,0.0,0.0,0.0,0.0,0.0,0.0,0.0,0.0,0.0,0.0,0.0,0.0,-1.6157,-1.6008,-1.5852,-1.5676,-1.5662,-1.5805,-1.6229,-1.6323,-1.6472,-1.8731,-2.0028,-2.0382,-2.1971,-2.382,-2.5771,-2.5928,-2.7144,-2.8631,-2.8858,-2.8938,-2.8951,-2.9018,-2.8991,-2.8951,0.0,0.0,0.0,0.0,0.0,0.0,0.0,0.0,0.0,0.0,0.0,0.0,0.0,0.0,0.0,0.0,0.0,0.0,0.0,0.0,-1.1536,-1.1626,-1.1748,-1.1816,-1.1816,-1.2115,-1.2488,-1.2929,-1.3505,-1.3946,-1.4224,-1.3641,-1.3214,-1.2908,-1.2481,-1.2121,-1.183,-1.183,-1.1748,-1.1619,-1.1619,0.0,0.0,0.0,0.0,0.0,0.0,0.0,0.0,0.0,0.0,0.0,0.0,0.0,-1.1891,0.0,-1.2067,-1.2108,-1.2237,-1.2277,-1.2277,-1.2284,-1.2182,0.0,-1.2576,-1.2556,0.0,0.0,0.0,0.0,0.0,0.0,0.0,0.0,0.0,0.0,0.0,0.0,0.0,0.0,0.0,0.0,0.0,0.0,0.0,0.0,0.0,0.0,0.0,0.0,0.0,0.0,0.0,-1.6008,-1.5852,-1.5567,-1.5506,-1.5655,-1.7756,-1.8706,-1.8541,-2.0904,-2.3041,-2.4971,-2.4695,-2.6154,-2.8234,-2.814,-2.8193,-2.8604,-2.8631,-2.8644,-2.8671,-2.8938,-2.8871,-2.9014,0.0,0.0,0.0,0.0,0.0,0.0,0.0,0.0,0.0,0.0,0.0,0.0,0.0,0.0,0.0,0.0,0.0,0.0,0.0,-1.0624,-1.1415,-1.1619,-1.1579,-1.1687,-1.1965,-1.2454,-1.2969,-1.3505,-1.4014,-1.4129,-1.3871,-1.3451,-1.3003,-1.2535,-1.2366,-1.2121,-1.1837,-1.1932,-1.1837,-1.1619,-1.1619,-1.1619,0.0,0.0,0.0,0.0,0.0,0.0,0.0,0.0,-1.1619,0.0,0.0,0.0,0.0,0.0,0.0,-1.1891,-1.1762,-1.1864,-1.1986,-1.1898,-1.204,0.0,0.0,0.0,0.0,0.0,0.0,0.0,0.0,0.0,0.0,0.0,0.0,0.0,0.0,0.0,0.0,0.0,0.0,0.0,0.0,0.0,0.0,0.0,0.0,0.0,0.0,0.0,0.0,0.0,0.0,-1.5594,-1.5438,-1.6718,-1.732,-1.7289,-1.8231,-1.9253,-2.0686,-2.3125,-2.4572,-2.5208,-2.6525,-2.7615,-2.831,-2.819,-2.8217,-2.8323,-2.8323,-2.8323,-2.8337,-2.8444,-2.9239,-3.0461,0.0,0.0,0.0,0.0,0.0,0.0,0.0,0.0,0.0,0.0,0.0,0.0,0.0,0.0,0.0,0.0,0.0,0.0,-1.1355,-1.1214,-1.1268,-1.1545,-1.1491,-1.1674,-1.2121,-1.2718,-1.3275,-1.3777,-1.4272,-1.4211,-1.362,-1.3315,-1.2881,-1.2352,-1.2311,-1.2176,-1.1979,-1.204,-1.1918,-1.1681,-1.164,-1.1647,0.0,0.0,0.0,0.0,0.0,0.0,0.0,0.0,0.0,0.0,0.0,0.0,0.0,0.0,0.0,0.0,-1.1443,-1.1504,-1.1606,0.0,0.0,0.0,-1.2759,0.0,0.0,0.0,0.0,0.0,0.0,0.0,0.0,0.0,0.0,0.0,0.0,0.0,0.0,0.0,0.0,0.0,0.0,0.0,0.0,0.0,0.0,0.0,0.0,0.0,0.0,0.0,0.0,0.0,-1.6219,-1.8417,-1.9671,-2.0365,-2.0318,-2.1204,-2.2839,-2.5337,-2.6252,-2.5983,-2.7748,-2.8337,-2.8136,-2.8136,-2.8136,-2.8136,-2.8136,-2.8642,-2.9286,-2.9286,-3.0592,-3.2546,0.0,0.0,0.0,0.0,0.0,0.0,0.0,0.0,0.0,0.0,0.0,0.0,0.0,0.0,0.0,0.0,0.0,0.0,-1.106,-1.1067,-1.1121,-1.1389,-1.1538,-1.1823,-1.2277,-1.2861,-1.3315,-1.3627,-1.4217,-1.4204,-1.3614,-1.3308,-1.2929,-1.2488,-1.2352,-1.2291,-1.2277,-1.2128,-1.1972,-1.1823,-1.1681,-1.1708,-1.1816,0.0,0.0,0.0,0.0,0.0,0.0,0.0,0.0,0.0,0.0,0.0,0.0,0.0,-1.1511,-1.1389,-1.1389,0.0,0.0,0.0,0.0,0.0,0.0,0.0,0.0,0.0,0.0,0.0,0.0,0.0,0.0,0.0,0.0,0.0,0.0,0.0,0.0,0.0,0.0,0.0,0.0,0.0,0.0,0.0,0.0,0.0,0.0,0.0,0.0,0.0,0.0,0.0,-1.84,-2.0554,-2.2829,-2.487,-2.487,-2.487,-2.5055,-2.7534,-2.843,-2.8136,-2.8136,-2.8136,-2.8136,-2.8136,-2.8136,-2.8136,-2.8136,-2.9453,-3.1392,-3.1392,-3.2858,-3.4975,0.0,0.0,0.0,0.0,0.0,0.0,0.0,0.0,0.0,0.0,0.0,0.0,0.0,0.0,0.0,0.0,0.0,0.0,-1.1172,-1.0946,-1.1138,-1.1382,-1.1335,-1.1504,-1.1959,-1.2447,-1.3003,-1.3627,-1.3905,-1.3627,-1.2834,-1.2854,-1.2623,-1.2196,-1.2366,-1.2325,-1.2128,-1.2081,-1.2033,-1.1979,-1.183,-1.1857,-1.1979,0.0,0.0,0.0,0.0,0.0,0.0,0.0,0.0,0.0,0.0,0.0,0.0,-1.1491,-1.1423,-1.1348,-1.1138,0.0,0.0,0.0,0.0,0.0,0.0,0.0,0.0,0.0,0.0,0.0,0.0,0.0,0.0,0.0,0.0,0.0,0.0,0.0,0.0,0.0,0.0,0.0,0.0,0.0,0.0,0.0,0.0,0.0,0.0,0.0,0.0,0.0,0.0,0.0,-2.0514,-2.2744,-2.4164,-2.4796,-2.6361,-2.7225,-2.7225,-2.7931,-2.823,-2.8136,-2.8136,-2.8136,-2.8136,-2.8136,-2.8136,-2.8136,-2.8136,-2.9453,-3.1392,-3.1392,-3.3839,-3.7082,0.0,0.0,0.0,0.0,0.0,0.0,0.0,0.0,0.0,0.0,0.0,-0.1076,0.0,0.0,0.0,0.0,0.0,0.0,0.0,-1.0962,-1.1056,-1.1294,-1.1267,-1.1491,-1.1999,-1.2277,-1.2644,-1.3098,-1.3363,-1.3152,-1.2508,-1.2779,-1.2664,-1.2257,-1.2671,-1.2657,-1.2325,-1.2264,-1.2203,-1.2135,-1.1918,-1.1959,-1.2128,0.0,0.0,0.0,0.0,0.0,0.0,0.0,0.0,0.0,0.0,0.0,0.0,-1.1416,-1.1348,-1.126,0.0,0.0,0.0,0.0,0.0,0.0,0.0,0.0,0.0,0.0,0.0,0.0,0.0,0.0,0.0,0.0,0.0,0.0,0.0,0.0,0.0,0.0,0.0,0.0,0.0,0.0,0.0,0.0,0.0,0.0,0.0,0.0,0.0,0.0,0.0,0.0,-2.2652,-2.5086,-2.6215,-2.6066,-2.7448,-2.8136,-2.8136,-2.8136,-2.8136,-2.8136,-2.8136,-2.8136,-2.8136,-2.8136,-2.8136,-2.8305,-2.9118,-3.0744,-3.2858,-3.3676,-3.6281,-3.9198,0.0,0.0,0.0,0.0,0.0,0.0,0.0,0.0,0.0,0.0,-0.0538,-0.3499,0.0,0.0,0.0,0.0,0.0,0.0,0.0,0.0,-1.1016,-1.1158,-1.1321,-1.1667,-1.2216,-1.223,-1.223,-1.223,-1.2678,-1.2752,-1.2474,-1.2908,-1.2901,-1.2549,-1.3112,-1.3125,-1.2718,-1.2556,-1.2413,-1.2284,-1.1993,-1.204,-1.2257,-1.1965,0.0,0.0,0.0,0.0,0.0,0.0,0.0,0.0,0.0,0.0,0.0,-1.1375,-1.126,0.0,0.0,0.0,0.0,0.0,0.0,0.0,0.0,0.0,0.0,0.0,0.0,0.0,0.0,0.0,0.0,0.0,0.0,0.0,0.0,0.0,0.0,0.0,0.0,0.0,0.0,0.0,0.0,0.0,0.0,0.0,0.0,0.0,0.0,0.0,0.0,0.0,-2.5032,-2.7096,-2.8136,0.0,-2.8136,-2.8136,-2.8136,-2.8136,-2.8136,-2.8136,-2.8136,-2.8136,-2.8136,-2.8473,-2.8473,-2.8628,-3.091,-3.3022,-3.5298,-3.7241,-3.9355,-4.1172,0.0,0.0,0.0,0.0,0.0,0.0,0.0,0.0,0.0,0.0,0.0,0.0,0.0,0.0,0.0,0.0,0.0,0.0,0.0,0.0,-1.1016,-1.1158,-1.1423,-1.1633,-1.1762,-1.1762,-1.1762,-1.1762,-1.2216,-1.2338,-1.2162,-1.2494,-1.2657,-1.2691,-1.2942,-1.2935,-1.2712,-1.2447,-1.2379,-1.244,-1.2264,-1.223,-1.2271,-1.2081,-1.1959,0.0,0.0,0.0,0.0,0.0,0.0,0.0,0.0,-1.1511,-1.1369,-1.1246,-1.1111,0.0,0.0,0.0,0.0,0.0,0.0,0.0,0.0,0.0,0.0,0.0,0.0,0.0,0.0,0.0,0.0,0.0,0.0,0.0,0.0,0.0,0.0,0.0,0.0,0.0,0.0,0.0,0.0,0.0,0.0,0.0,0.0,0.0,0.0,0.0,0.0,-2.7448,-2.7448,-2.7968,-2.8136,0.0,-2.8136,-2.8136,-2.8136,-2.8136,-2.8136,-2.8136,-2.8136,-2.8136,-2.8305,-3.0107,-3.0744,-3.091,-3.3186,-3.5298,-3.7259,-3.7737,-3.9355,-4.1172,0.0,0.0,0.0,0.0,0.0,0.0,0.0,0.0,0.0,0.0,0.0,0.0,0.0,0.0,0.0,0.0,0.0,0.0,0.0,0.0,-1.1043,-1.126,-1.1497,-1.1619,-1.1619,-1.1619,-1.1619,-1.1619,-1.1925,-1.2067,-1.2067,-1.2366,-1.2583,-1.2745,-1.3037,-1.301,-1.2718,-1.2488,-1.2393,-1.2379,-1.2162,-1.2115,-1.2155,-1.1932,-1.1803,-1.1708,-1.1565,0.0,0.0,0.0,0.0,0.0,0.0,0.0,-1.1267,-1.1185,0.0,0.0,0.0,0.0,0.0,0.0,0.0,0.0,0.0,0.0,0.0,0.0,0.0,0.0,0.0,0.0,0.0,0.0,0.0,0.0,0.0,0.0,0.0,0.0,0.0,0.0,0.0,0.0,0.0,0.0,0.0,0.0,0.0,0.0,0.0,0.0,-2.7341,-2.7869,-2.7722,-2.7722,-2.7722,-2.7722,-2.7722,-2.7789,-2.7936,-2.8083,-2.8136,-2.8305,-2.9286,-2.9774,-2.9941,-3.2052,-3.3022,-3.3186,-3.5298,-3.6922,-3.8054,-3.904,-4.0197,-4.1172,0.0,0.0,0.0,0.0,0.0,0.0,0.0,0.0,0.0,0.0,0.0,0.0,0.0,0.0,0.0,0.0,0.0,0.0,0.0,0.0,0.0,-1.1382,-1.1511,-1.1592,-1.1619,-1.1619,-1.1619,-1.1619,-1.1762,-1.1925,-1.2108,-1.2379,-1.2583,-1.2745,-1.3119,-1.3064,-1.2678,-1.2528,-1.2379,-1.223,-1.1945,-1.1891,-1.1959,-1.1681,-1.1565,-1.1525,-1.1396,-1.1369,-1.1409,-1.1538,0.0,0.0,0.0,0.0,-1.171,-1.171,0.0,0.0,0.0,0.0,0.0,0.0,0.0,0.0,0.0,0.0,0.0,0.0,0.0,0.0,0.0,0.0,0.0,0.0,0.0,0.0,0.0,0.0,0.0,0.0,0.0,0.0,0.0,0.0,0.0,0.0,0.0,0.0,0.0,0.0,-2.7776,-2.7281,-2.7495,-2.7509,-2.7268,-2.7268,-2.7268,-2.7268,-2.7581,-2.7867,-2.8111,-2.8855,-2.8994,-2.8728,-3.0987,-3.1766,-3.1884,-3.4147,-3.4953,-3.5274,-3.7381,-3.8225,-3.8614,-4.0413,-4.1113,-4.1172,0.0,0.0,0.0,0.0,0.0,0.0,0.0,0.0,0.0,0.0,-1.0238,-1.0212,0.0,0.0,0.0,0.0,0.0,0.0,0.0,0.0,0.0,-1.1382,-1.1409,-1.1484,-1.1613,-1.1619,-1.1619,-1.1619,-1.1762,-1.1979,-1.2264,-1.2427,-1.2583,-1.2732,-1.2793,-1.2712,-1.2522,-1.2379,-1.223,-1.2081,-1.1904,-1.1769,-1.166,-1.1491,-1.1341,-1.1219,-1.1199,-1.128,-1.1396,-1.1416,-1.1511,0.0,0.0,0.0,0.0,-1.3464,0.0,0.0,0.0,0.0,0.0,0.0,0.0,0.0,0.0,0.0,0.0,0.0,0.0,0.0,0.0,0.0,0.0,0.0,0.0,0.0,0.0,0.0,0.0,0.0,0.0,0.0,0.0,0.0,0.0,0.0,0.0,0.0,0.0,-2.7362,-2.7348,-2.7268,-2.7308,-2.7308,-2.7268,-2.7268,-2.7268,-2.7268,-2.9001,-2.9968,-3.0013,-3.1806,-3.1833,-3.0498,-3.2743,-3.3529,-3.3253,-3.5453,-3.6403,-3.6558,-3.8785,-3.9816,-4.0125,-4.0452,-4.084,-4.1463,0.0,0.0,0.0,0.0,0.0,0.0,0.0,0.0,0.0,0.0,0.0,-1.0738,0.0,0.0,0.0,0.0,0.0,0.0,0.0,0.0,0.0,-1.1138,-1.1301,-1.1423,-1.1491,-1.1572,-1.1619,-1.1619,-1.1762,-1.1986,-1.2298,-1.2522,-1.2664,-1.2725,-1.2637,-1.2522,-1.2372,-1.2223,-1.2074,-1.1911,-1.1681,-1.1545,-1.1463,-1.1233,-1.1104,-1.1043,-1.1043,-1.1084,-1.1165,-1.1335,-1.2129,-1.3043,-1.3136,0.0,0.0,0.0,0.0,0.0,0.0,0.0,0.0,0.0,0.0,0.0,0.0,0.0,0.0,0.0,0.0,0.0,0.0,0.0,0.0,0.0,0.0,0.0,0.0,0.0,0.0,0.0,0.0,0.0,0.0,0.0,0.0,0.0,0.0,0.0,-2.68,-2.7081,-2.7041,-2.6547,-2.6694,-2.6694,-2.6533,-2.6373,-2.6279,-2.6279,-2.8273,-2.9279,-2.9613,-3.2806,-3.3547,-3.2379,-3.4239,-3.5107,-3.5297,-3.7251,-3.8236,-3.8614,-3.9581,-4.0563,-4.1732,-4.1732,-4.2431,-4.3616,0.0,0.0,0.0,0.0,0.0,0.0,0.0,0.0,0.0,0.0,0.0,0.0,0.0,0.0,0.0,0.0,0.0,0.0,0.0,0.0,0.0,-1.0948,-1.1158,-1.1294,-1.1335,-1.1443,-1.1525,-1.1558,-1.1708,-1.1993,-1.2406,-1.2623,-1.2813,-1.2949,-1.2759,-1.2549,-1.2332,-1.2182,-1.2033,-1.1857,-1.1525,-1.1369,-1.1307,-1.1043,-1.0948,-1.0941,-1.0907,-1.0941,-1.1036,-1.181,-1.3013,-1.4318,-1.4929,-1.626,0.0,0.0,0.0,0.0,0.0,0.0,0.0,0.0,0.0,0.0,0.0,0.0,0.0,0.0,0.0,0.0,0.0,0.0,0.0,0.0,0.0,0.0,0.0,0.0,0.0,0.0,0.0,0.0,0.0,0.0,0.0,0.0,0.0,0.0,-2.6199,-2.6587,-2.652,-2.5865,-2.6052,-2.6066,-2.5838,-2.5558,-2.5661,-2.602,-2.7925,-2.9236,-2.9915,-3.3599,-3.4827,-3.4126,-3.5822,-3.6567,-3.6865,-3.824,-3.8926,-3.9238,-3.9662,-4.0919,-4.2354,-4.2788,-4.3925,-4.543,0.0,0.0,0.0,0.0,0.0,0.0,0.0,0.0,0.0,0.0,0.0,0.0,-1.0717,-1.0717,-1.0717,-1.0717,-1.0717,-1.0717,-1.0717,-1.0724,-1.0799,-1.0941,-1.0962,0.0,-1.1172,-1.1185,-1.126,-1.1402,-1.1558,-1.1999,-1.2705,-1.2725,-1.3037,-1.3566,-1.3268,-1.2895,-1.2481,-1.2338,-1.2189,-1.2013,-1.1572,-1.1307,-1.1158,-1.1002,-1.0948,-1.0928,-1.0785,-1.0914,-1.1427,-1.3215,-1.4009,-1.4597,-1.6477,-1.8207,-1.9391,0.0,0.0,0.0,0.0,0.0,0.0,0.0,0.0,0.0,0.0,0.0,0.0,0.0,0.0,0.0,0.0,0.0,0.0,0.0,0.0,0.0,0.0,0.0,0.0,0.0,0.0,0.0,0.0,0.0,0.0,0.0,0.0,0.0,-2.5585,-2.5585,-2.5585,-2.5545,-2.5545,-2.5545,-2.5531,-2.5251,-2.5824,-2.723,-2.9234,-3.1101,-3.2841,-3.4978,-3.5879,-3.5995,-3.7177,-3.7631,-3.728,-3.7402,-3.7402,-3.7563,-3.9322,-4.0515,-4.1551,-4.3193,-4.4486,-4.5714,0.0,0.0,0.0,0.0,0.0,0.0,0.0,0.0,0.0,0.0,0.0,0.0,0.0,-1.0717,-1.0717,-1.0717,-1.0717,-1.0717,-1.0717,-1.0717,-1.0744,-1.0799,-1.0894,-1.0968,-1.1023,-1.1118,-1.1192,-1.1246,-1.1396,-1.1708,-1.2162,-1.2549,-1.2847,-1.3051,-1.3044,-1.2895,-1.2623,-1.2284,-1.2054,-1.1884,-1.1531,-1.1355,-1.128,-1.1043,-1.0948,-1.1077,0.0,0.0,0.0,-1.5201,-1.6706,-1.7908,-1.8849,-2.0269,-2.1693,-2.1513,-2.1309,-2.1117,-2.0938,0.0,0.0,0.0,0.0,0.0,0.0,0.0,0.0,0.0,0.0,0.0,0.0,0.0,0.0,0.0,0.0,0.0,0.0,0.0,0.0,0.0,0.0,0.0,0.0,0.0,0.0,0.0,0.0,0.0,-2.497,-2.4943,-2.4863,-2.4676,-2.4676,-2.5144,-2.607,-2.5956,-2.6825,-2.8364,-3.0462,-3.1714,-3.2413,-3.4337,-3.5176,-3.5195,-3.5664,-3.6094,-3.6484,-3.6484,-3.7291,-3.863,-3.9583,-4.1516,-4.3822,-4.451,-4.588,-4.7714,0.0,0.0,0.0,0.0,0.0,0.0,0.0,0.0,0.0,-1.0717,0.0,0.0,0.0,0.0,-1.0717,-1.0717,-1.0717,-1.0717,-1.0717,-1.0717,-1.0717,-1.0717,-1.0819,-1.0873,-1.0873,-1.1016,-1.109,-1.109,-1.124,-1.1491,-1.1837,-1.2892,-1.3501,-1.3654,-1.372,-1.3404,-1.2705,-1.2359,-1.2094,-1.1884,-1.2287,-1.1959,-1.144,-1.1891,-1.1617,0.0,0.0,0.0,0.0,-1.7056,-1.8834,-1.9983,-2.0808,-2.1949,-2.2979,-2.2779,-2.2645,-2.2525,-2.2338,-2.1991,0.0,0.0,0.0,0.0,0.0,0.0,0.0,0.0,0.0,0.0,0.0,0.0,0.0,0.0,0.0,0.0,0.0,0.0,0.0,0.0,0.0,0.0,0.0,0.0,0.0,0.0,0.0,0.0,-2.4369,-2.4342,-2.4499,-2.4745,-2.5187,-2.5798,-2.6679,-2.6679,-2.7566,-2.9175,-3.0513,-3.1447,-3.2004,-3.3315,-3.3926,-3.4062,-3.4664,-3.5131,-3.5566,-3.6103,-3.7156,-3.8618,-4.0104,-4.2243,-4.4777,-4.5309,-4.6806,-4.8485,0.0,0.0,0.0,0.0,0.0,0.0,0.0,0.0,-1.0724,-1.0724,0.0,0.0,0.0,0.0,0.0,-1.0731,-1.0731,-1.0731,-1.0724,-1.0724,-1.0724,-1.0717,-1.0717,-1.0717,-1.0717,-1.0867,-1.0941,-1.0941,-1.1084,-1.1516,-1.1955,-1.4,-1.511,-1.5466,-1.5462,-1.4415,-1.2855,-1.2704,-1.2471,-1.2331,-1.3874,-1.3247,-1.1621,0.0,0.0,0.0,-1.3612,-1.4311,0.0,-1.8619,-1.9935,-2.0267,-2.2206,-2.3073,-2.3327,-2.3327,-2.3113,-2.2886,0.0,0.0,0.0,0.0,0.0,0.0,0.0,0.0,0.0,0.0,0.0,0.0,0.0,0.0,0.0,0.0,0.0,0.0,0.0,0.0,0.0,0.0,0.0,0.0,0.0,0.0,0.0,0.0,0.0,-2.4165,-2.3883,-2.387,-2.4539,-2.5844,-2.6981,-2.7572,-2.736,-2.736,-2.8077,-2.9599,-2.9599,-3.0501,-3.2289,-3.2289,-3.2505,-3.3001,-3.4531,-3.5025,-3.4871,-3.6552,-3.7191,-3.7572,-4.0808,-4.278,-4.3931,-4.5646,-4.6954,-4.7982,0.0,0.0,0.0,0.0,0.0,0.0,0.0,-1.0792,-1.0758,0.0,0.0,0.0,-1.0941,-1.1002,-1.1043,-1.1043,-1.1043,-1.0995,-1.0894,-1.0887,-1.0833,-1.0724,-1.0717,-1.0717,-1.0717,-1.0765,-1.0785,-1.0785,-1.2127,0.0,0.0,0.0,-1.6462,-1.6783,-1.688,-1.6787,-1.6247,-1.4728,-1.4088,-1.4228,-1.4297,-1.5017,0.0,0.0,0.0,0.0,0.0,-1.8233,-1.863,0.0,-2.203,-2.2193,-2.2696,-2.3073,-2.3327,-2.3327,-2.342,-2.3514,-2.3514,0.0,0.0,0.0,0.0,0.0,0.0,0.0,0.0,0.0,0.0,0.0,0.0,0.0,0.0,0.0,0.0,0.0,0.0,0.0,0.0,0.0,0.0,0.0,0.0,0.0,0.0,0.0,-2.4246,-2.4617,-2.4665,-2.5484,-2.6221,-2.6647,-2.6939,-2.7721,-2.8885,-2.8867,-2.9725,-3.1398,-3.1398,-3.2231,-3.3752,-3.3752,-3.4407,-3.5574,-3.6042,-3.6143,-3.6242,-3.7767,-3.9164,-4.0278,-4.1659,-4.307,-4.4507,-4.5429,-4.6815,-4.838,0.0,0.0,0.0,0.0,0.0,0.0,-1.0934,-1.0921,-1.0934,0.0,0.0,0.0,-1.1036,-1.128,-1.1369,-1.1179,-1.1165,-1.1104,-1.0955,-1.0948,-1.088,-1.0724,-1.0717,-1.0717,-1.0717,-1.0785,-1.1045,-1.1762,0.0,0.0,0.0,0.0,0.0,0.0,-1.8481,-1.8763,-1.8624,-1.7501,0.0,0.0,-1.6216,0.0,0.0,-1.6656,-1.6877,0.0,0.0,0.0,-1.9163,-2.21,-2.314,0.0,0.0,-2.3447,-2.3688,-2.3688,-2.3808,-2.3955,-2.3955,-2.3607,-2.3247,-2.3247,0.0,0.0,0.0,-2.2378,0.0,0.0,0.0,0.0,0.0,0.0,0.0,0.0,0.0,0.0,0.0,0.0,0.0,0.0,0.0,0.0,0.0,0.0,0.0,0.0,-2.4009,-2.496,-2.5742,-2.7057,-2.7736,-2.7736,-2.8218,-2.9008,-3.0121,-3.0121,-3.0964,-3.2532,-3.2532,-3.3314,-3.4776,-3.4776,-3.5343,-3.634,-3.7019,-3.7359,-3.7724,-3.9836,-4.0703,-4.0874,-4.1789,-4.3358,-4.5181,-4.554,-4.7022,-4.9099,0.0,0.0,0.0,0.0,0.0,0.0,-1.0968,-1.1084,-1.1165,0.0,-1.1206,-1.1233,-1.128,-1.1613,-1.1681,-1.1294,-1.1233,-1.1151,-1.1009,-1.0982,-1.0907,-1.0751,-1.0744,-1.0744,-1.0744,-1.1008,-1.194,-1.335,0.0,0.0,0.0,0.0,0.0,0.0,0.0,-2.0221,-2.0257,-2.0281,0.0,-1.5274,-1.8787,-1.8111,0.0,0.0,-1.9161,-1.7684,-1.9901,-1.9431,-1.8412,-2.2078,-2.3527,0.0,0.0,0.0,0.0,-2.4209,-2.4249,-2.4302,-2.4302,-2.4115,-2.3915,-2.3875,0.0,0.0,-2.2886,-2.2686,-2.2485,0.0,0.0,0.0,0.0,0.0,0.0,0.0,0.0,0.0,0.0,0.0,0.0,0.0,0.0,0.0,0.0,-2.2111,-2.2069,-2.2187,-2.381,-2.5579,-2.7227,-2.8535,-2.9071,-2.9071,-3.023,-3.0995,-3.1112,-3.1112,-3.1883,-3.3304,-3.3304,-3.4069,-3.5508,-3.5508,-3.5866,-3.6385,-3.8034,-3.8839,-3.9358,-4.2163,-4.2021,-4.0483,-4.1973,-4.4054,-4.6058,-4.6137,-4.7649,-4.9824,-1.0717,0.0,0.0,0.0,0.0,0.0,0.0,-1.1145,-1.1206,-1.1328,-1.1457,-1.1667,-1.2033,-1.1925,-1.1843,-1.1884,-1.1667,-1.1463,-1.1314,-1.1192,-1.1056,-1.0907,-1.0907,-1.0907,-1.0907,-1.2262,-1.3193,-1.3419,0.0,0.0,0.0,0.0,0.0,0.0,0.0,0.0,0.0,0.0,0.0,-1.9066,-1.9773,0.0,-2.1443,-2.0685,-2.0926,-2.1769,-2.2458,-2.2267,-2.1923,-2.2941,-2.3527,-2.3768,0.0,0.0,0.0,-2.4209,-2.4543,-2.4903,-2.4903,-2.4863,-2.477,0.0,0.0,0.0,-2.3033,-2.3006,-2.2953,0.0,0.0,0.0,0.0,0.0,0.0,0.0,0.0,0.0,0.0,0.0,0.0,0.0,0.0,0.0,0.0,-2.1804,-2.2277,-2.3519,-2.6117,-2.83,-3.003,-3.0329,-3.0526,-3.0526,-3.0801,-3.1441,-3.2644,-3.2644,-3.3417,-3.4847,-3.4847,-3.5617,-3.7026,-3.7026,-3.7761,-3.9069,-4.0338,-4.1,-4.1204,-4.2771,-4.3386,-4.3516,-4.4778,-4.5934,-4.6928,-4.7315,-4.859,-5.0399,-1.0717,-1.0717,-1.0717,0.0,0.0,0.0,0.0,-1.1294,-1.147,-1.1694,-1.1986,-1.2142,-1.2067,-1.206,-1.1999,-1.1857,-1.1708,-1.1525,-1.1294,-1.1206,-1.1097,-1.0955,-1.0948,-1.1347,-1.215,-1.3076,-1.4352,-1.5954,0.0,0.0,0.0,0.0,0.0,0.0,0.0,0.0,0.0,0.0,-2.2258,-2.1672,-2.1672,0.0,-2.1885,-2.1885,-2.2267,-2.2886,-2.3033,-2.3193,-2.3213,-2.2497,-2.3065,0.0,0.0,-2.4302,-2.4449,0.0,-2.485,-2.5117,0.0,0.0,0.0,-2.5117,0.0,0.0,0.0,-2.342,-2.3153,0.0,0.0,0.0,0.0,0.0,0.0,0.0,0.0,0.0,0.0,0.0,0.0,0.0,0.0,0.0,0.0,-2.2171,-2.3562,-2.6019,-2.7556,-2.9157,-3.0762,-3.0898,-3.0898,-3.0898,-3.1652,-3.2301,-3.3077,-3.3845,-3.4958,-3.6379,-3.6379,-3.7156,-3.8582,-3.9237,-3.9982,-4.0743,-4.1985,-4.2544,-4.2641,-4.3882,-4.4797,-4.5327,-4.563,-4.6528,-4.7744,-4.8291,-4.9994,-5.2222,-1.0717,-1.0717,-1.0717,-1.0717,0.0,0.0,0.0,-1.1396,-1.1694,-1.202,-1.2379,-1.244,-1.2006,-1.2128,-1.2135,-1.1857,-1.1701,-1.1538,-1.1348,-1.1226,-1.1097,-1.0955,-1.124,-1.2195,-1.3528,-1.4191,-1.5982,-1.8735,0.0,0.0,0.0,0.0,0.0,0.0,0.0,0.0,0.0,0.0,0.0,-2.334,0.0,-2.255,-2.1157,-2.2741,-2.314,-2.2859,-2.2859,-2.322,-2.343,-2.1655,-2.2655,-2.4409,-2.4166,-2.4327,0.0,0.0,0.0,0.0,0.0,0.0,0.0,0.0,0.0,-2.4783,0.0,0.0,0.0,0.0,0.0,0.0,0.0,0.0,0.0,0.0,0.0,0.0,0.0,0.0,0.0,0.0,0.0,0.0,0.0,-2.3325,-2.5635,-2.817,-2.8664,-2.953,-3.0879,-3.1228,-3.1325,-3.1325,-3.2758,-3.362,-3.3957,-3.5178,-3.6487,-3.7902,-3.8194,-3.8951,-4.0083,-4.1419,-4.1985,-4.2084,-4.3313,-4.3882,-4.3975,-4.545,-4.64,-4.6836,-4.6509,-4.7387,-4.9033,-4.9963,-5.1816,-5.4095,-1.0717,-1.0717,-1.0717,-1.0717,-1.086,0.0,-1.1145,-1.1307,-1.1572,-1.2006,-1.2108,-1.221,-1.2406,-1.2223,-1.223,-1.2576,-1.1999,-1.1714,-1.1945,-1.1457,-1.1097,-1.0955,-1.2686,-1.3721,-1.3985,-1.6954,-1.8799,-1.9534,-2.0679,0.0,0.0,0.0,0.0,0.0,-2.2017,0.0,0.0,0.0,-2.3046,0.0,-2.3888,-2.3638,0.0,-2.3187,-2.314,-2.2859,-2.2859,-2.3086,-2.3126,0.0,-2.2369,-2.3997,0.0,-2.3116,-2.4649,-2.4676,0.0,0.0,0.0,0.0,0.0,0.0,-2.5852,0.0,0.0,0.0,0.0,0.0,0.0,0.0,0.0,0.0,0.0,0.0,0.0,0.0,0.0,0.0,0.0,0.0,0.0,0.0,0.0,0.0,-2.8051,-2.8408,-2.9766,-3.0645,-3.0898,-3.2092,-3.2851,-3.2851,-3.4292,-3.5727,-3.7026,-3.7133,-3.8031,-3.9465,-4.0617,-4.1193,-4.1419,-4.2738,-4.3313,-4.3409,-4.4627,-4.5207,-4.5389,-4.7528,-4.846,-4.8644,-4.9788,-5.0795,-5.1678,-5.3373,-5.42,-5.4781,-1.0704,-1.0717,-1.0717,-1.0717,-1.0846,-1.0968,-1.1029,-1.1538,-1.1918,-1.1925,-1.2379,-1.2684,-1.2637,-1.2522,0.0,-1.2474,0.0,-1.1782,0.0,0.0,-1.1138,-1.1077,-1.2893,-1.4472,-1.554,-1.8003,-1.9747,-2.0939,-2.1359,0.0,0.0,0.0,0.0,0.0,-2.2418,0.0,-2.2792,0.0,-2.3567,0.0,0.0,0.0,0.0,-2.3581,-2.3287,-2.2859,-2.2859,-2.318,-2.3453,0.0,-2.3326,0.0,0.0,0.0,0.0,0.0,0.0,0.0,0.0,0.0,0.0,0.0,0.0,0.0,-2.505,0.0,-2.4396,0.0,0.0,0.0,0.0,0.0,0.0,0.0,0.0,0.0,0.0,0.0,0.0,0.0,0.0,0.0,0.0,0.0,0.0,0.0,0.0,-3.2427,-3.2902,-3.3806,-3.4403,-3.4403,-3.5836,-3.6918,-3.7453,-3.9109,-4.0185,-4.0844,-4.2084,-4.2738,-4.2738,-4.3975,-4.4938,-4.5576,-4.681,-4.7698,-4.8419,-4.9345,-4.9694,-4.9868,-5.1531,-5.2205,-5.2396,-5.4007,-5.5002,-5.573,-1.069,-1.0717,-1.0717,-1.0717,-1.0812,-1.0914,-1.0995,-1.1599,-1.2006,-1.1904,-1.2461,0.0,-1.2739,-1.2732,0.0,0.0,-1.2406,-1.204,0.0,0.0,-1.1233,-1.1111,-1.3448,0.0,-1.6766,-1.8936,-2.0781,-2.2231,-2.1937,-2.1937,0.0,0.0,0.0,0.0,0.0,-2.3113,-2.3354,0.0,0.0,-2.4195,-2.4062,-2.3915,-2.3754,-2.3581,-2.33,-2.2993,-2.2993,-2.3327,-2.3781,-2.3275,-2.372,0.0,-2.4005,0.0,0.0,0.0,0.0,0.0,-2.5651,0.0,0.0,0.0,0.0,0.0,0.0,0.0,0.0,0.0,0.0,0.0,0.0,0.0,-2.3462,-2.439,0.0,0.0,0.0,0.0,0.0,0.0,0.0,0.0,0.0,0.0,0.0,0.0,-3.3044,-3.3528,-3.4133,-3.5143,-3.5631,-3.5631,-3.757,-3.8613,-3.8613,-4.0941,-4.2084,-4.2181,-4.3409,-4.4135,-4.445,-4.5781,-4.6867,-4.7882,-4.8829,-4.9694,-5.0397,-5.0703,-5.0973,-5.1271,-5.308,-5.385,-5.4179,-5.5193,-5.6326,-5.7465,-1.069,-1.0717,-1.0717,-1.0717,0.0,0.0,0.0,0.0,0.0,0.0,0.0,0.0,0.0,0.0,0.0,0.0,0.0,-1.2637,-1.2467,0.0,-1.1409,-1.0975,-1.4585,-1.6817,0.0,-2.0478,-2.2539,-2.2832,-2.2539,-2.2539,0.0,0.0,0.0,0.0,0.0,-2.3313,-2.3367,-2.3941,-2.4195,-2.4222,-2.4502,-2.4275,-2.3701,0.0,-2.3073,-2.3313,-2.3313,0.0,0.0,-2.1861,-2.2556,0.0,0.0,0.0,0.0,0.0,0.0,0.0,0.0,0.0,0.0,-2.5611,0.0,0.0,0.0,0.0,-2.4903,0.0,0.0,0.0,0.0,-2.4394,-2.5457,-2.5891,-2.6593,0.0,0.0,0.0,0.0,0.0,0.0,0.0,0.0,0.0,0.0,-3.3431,-3.3621,-3.3621,-3.3599,-3.5573,-3.6716,-3.6716,-3.9778,-4.1492,-4.1492,-4.2738,-4.3409,-4.3409,-4.472,-4.5842,-4.6834,-4.8087,-4.9296,-5.032,-5.032,-5.0397,-5.0474,-5.1451,-5.232,-5.3179,-5.4922,-5.6544,-5.7928,-5.792,-5.8945,-6.0273,-1.0541,-1.0649,-1.0717,-1.0717,0.0,0.0,0.0,-1.1321,0.0,0.0,0.0,0.0,0.0,-1.3682,-1.3661,0.0,0.0,-1.2983,-1.2528,-1.223,0.0,0.0,0.0,-1.7056,0.0,-2.0576,-2.2565,-2.2859,-2.2565,-2.2565,0.0,0.0,0.0,0.0,0.0,-2.3621,0.0,0.0,0.0,0.0,0.0,-2.4235,-2.3995,0.0,0.0,-2.3354,-2.3554,-2.3808,0.0,-2.3417,-2.3732,-2.4356,-2.3696,-2.4031,-2.4636,-2.4636,-2.485,0.0,0.0,0.0,-2.5638,-2.5545,0.0,0.0,0.0,0.0,0.0,0.0,0.0,0.0,0.0,-2.6786,-2.8057,-2.8269,-2.8593,-2.9101,0.0,0.0,0.0,0.0,0.0,0.0,0.0,0.0,0.0,-3.4518,-3.4876,-3.5333,0.0,-3.8116,-3.9418,-3.9418,-4.1639,-4.2834,-4.2834,-4.4163,-4.4748,-4.4748,-4.6753,-4.7867,-4.8171,-4.9345,-5.0397,-5.1451,-5.1971,-5.2602,-5.3246,-5.4058,-5.4556,-5.4895,-5.5448,-5.7043,-5.8892,-5.8825,-5.9479,-6.0458,-1.0555,-1.0649,0.0,0.0,0.0,0.0,0.0,0.0,0.0,0.0,-1.3057,0.0,-1.4156,0.0,-1.4055,0.0,-1.3783,-1.3342,-1.263,-1.2596,0.0,-1.185,-1.4805,0.0,0.0,-2.0119,-2.1978,-2.2859,-2.2672,-2.2726,0.0,0.0,0.0,0.0,0.0,0.0,-2.3808,0.0,-2.4636,0.0,0.0,-2.4048,0.0,0.0,-2.3394,-2.3514,0.0,-2.3955,-2.4222,-2.4329,-2.4476,-2.4636,-2.4636,-2.4636,-2.4636,-2.4636,-2.477,-2.4917,-2.4917,-2.513,0.0,-2.5224,-2.5718,0.0,-2.5133,0.0,0.0,0.0,0.0,0.0,0.0,-2.8419,-2.955,-2.9726,-3.0408,-3.1324,0.0,-3.3304,0.0,0.0,0.0,0.0,0.0,0.0,-3.4843,-3.5427,-3.6137,-3.687,0.0,0.0,-4.1072,-4.1072,-4.3062,-4.4208,-4.4294,-4.5814,-4.6634,-4.6796,-4.8573,-4.9536,-4.9899,-5.0627,-5.1638,-5.2908,-5.3445,-5.4155,-5.5059,-5.5495,-5.5893,-5.615,-5.6435,-5.7978,-5.993,-5.9434,-6.0203,-6.1625,-1.0717,0.0,0.0,0.0,-1.0839,0.0,0.0,0.0,-1.2223,0.0,-1.3146,-1.3593,-1.4055,-1.4095,-1.415,-1.4299,-1.417,0.0,-1.2854,-1.3051,0.0,0.0,-1.3769,-1.5745,-1.7477,-1.9193,-2.1057,-2.2749,-2.2873,0.0,0.0,0.0,0.0,0.0,-2.3661,0.0,-2.3834,-2.4396,-2.4636,-2.4583,-2.4022,-2.3794,-2.3754,-2.3447,0.0,-2.3754,-2.3781,-2.3968,-2.4249,-2.4543,-2.4636,-2.4636,-2.4636,-2.4636,-2.4636,-2.4623,-2.4609,-2.4609,-2.4596,-2.4796,-2.5093,-2.4811,0.0,0.0,0.0,0.0,-2.9595,0.0,0.0,0.0,0.0,0.0,-3.0447,-3.0392,-3.2255,-3.4133,-3.5245,0.0,0.0,0.0,0.0,0.0,0.0,-3.5532,-3.5623,-3.6477,-3.7586,0.0,0.0,0.0,-4.1744,-4.1862,-4.4219,-4.5698,-4.5992,-4.7916,-4.9031,-4.9405,-5.0153,-5.1005,-5.196,-5.196,-5.2977,-5.4634,-5.4695,-5.5084,-5.578,-5.5836,-5.6313,-5.7087,-5.781,-5.9417,-6.113,-5.9967,-6.13,-6.3723,-1.0697,-1.0717,-1.0717,0.0,-1.0751,-1.09,0.0,0.0,0.0,0.0,-1.3451,-1.3946,-1.4509,-1.4468,-1.4414,-1.4455,-1.4326,0.0,0.0,0.0,0.0,-1.2854,-1.4493,-1.5404,-1.558,-1.8646,-2.0485,-2.1047,0.0,0.0,-2.3647,0.0,0.0,0.0,0.0,0.0,-2.4115,-2.4476,-2.4636,-2.4609,-2.4235,-2.4088,0.0,0.0,-2.338,-2.35,-2.3941,-2.4142,-2.4249,-2.4543,-2.4636,-2.4636,-2.4636,-2.4636,-2.4596,-2.4382,-2.4315,-2.4262,-2.4048,-2.5013,-2.6026,-2.5939,-2.7366,-2.8519,0.0,0.0,0.0,0.0,0.0,0.0,0.0,0.0,0.0,-3.2953,-3.3925,-3.5423,-3.6727,0.0,0.0,0.0,0.0,0.0,-3.8794,-3.8255,-3.8251,-3.897,-3.9271,0.0,0.0,0.0,0.0,-4.4141,-4.6154,-4.7835,-4.919,-4.9726,-4.9992,-5.0141,-5.1057,-5.1966,-5.2774,-5.3545,-5.4475,-5.5437,-5.6039,-5.6456,-5.6616,-5.7216,-5.7757,-5.8258,-5.848,-5.9831,-6.1808,-6.2773,-6.3566,-6.4217,-1.0717,0.0,0.0,-1.09,0.0,0.0,-1.1545,0.0,0.0,-1.2969,-1.3471,0.0,-1.4217,-1.4407,-1.4489,-1.4428,-1.4346,0.0,-1.3899,0.0,0.0,-1.32,-1.4026,-1.4798,-1.5094,-1.7739,0.0,-2.0274,0.0,0.0,-2.3581,0.0,0.0,0.0,0.0,-2.4209,0.0,-2.4516,-2.4636,-2.4596,-2.4182,0.0,0.0,-2.3354,-2.3126,-2.318,-2.3647,-2.3901,-2.4035,-2.4209,-2.4342,-2.4422,-2.4302,-2.4262,-2.4222,-2.4062,-2.4569,-2.5072,-2.5045,-2.6224,-2.7585,-2.7585,-2.8963,-3.0055,-2.9237,-3.0693,-3.1847,0.0,0.0,0.0,0.0,0.0,0.0,-3.54,-3.6386,-3.757,0.0,0.0,0.0,0.0,0.0,0.0,-4.163,-4.024,-3.9687,-4.0463,0.0,0.0,0.0,0.0,0.0,-4.6453,-4.7778,-4.9152,-5.0519,-5.1263,-5.1625,-5.1752,-5.301,-5.3802,-5.4275,-5.4809,-5.5495,-5.6259,-5.6721,-5.718,-5.7721,-5.8157,-5.8591,-5.9065,-6.0039,-6.1609,-6.3441,-6.4628,-6.4904,-6.4731,0.0,0.0,0.0,0.0,0.0,0.0,0.0,-1.1986,0.0,-1.2956,0.0,-1.3715,-1.3715,-1.4177,-1.4434,-1.4312,0.0,-1.4136,-1.3743,-1.4061,-1.3966,-1.3288,-1.3329,-1.3901,-1.4952,-1.6805,-1.8422,0.0,0.0,0.0,0.0,0.0,0.0,0.0,0.0,0.0,0.0,-2.4449,-2.4583,0.0,-2.3995,-2.3768,-2.3701,-2.31,-2.2859,-2.2899,-2.3166,-2.346,-2.3714,-2.3754,-2.3941,-2.4102,-2.3848,-2.391,-2.4181,-2.414,-2.5354,-2.6677,-2.6601,-2.7794,-2.9141,-2.9091,-3.0705,-3.1788,-3.0152,-3.3135,-3.5728,-3.3749,-3.5318,0.0,0.0,0.0,0.0,-3.8113,0.0,0.0,0.0,0.0,0.0,0.0,0.0,0.0,0.0,-4.1926,0.0,0.0,0.0,0.0,0.0,0.0,0.0,-4.8587,-4.9199,0.0,-5.1458,0.0,-5.3524,-5.3783,-5.5062,-5.578,-5.5836,-5.5913,-5.6349,-5.713,-5.7193,-5.7822,-5.8796,-5.8796,-5.9065,-5.9677,-6.1835,-6.3588,-6.4955,-6.564,-6.5635,-6.5329,0.0,0.0,0.0,0.0,0.0,-1.1823,-1.2311,-1.2807,-1.322,-1.3478,-1.3905,-1.4183,-1.4183,-1.4278,-1.4326,-1.4299,-1.4299,0.0,0.0,0.0,0.0,-1.3736,-1.3397,-1.315,-1.2972,-1.6071,-1.7784,0.0,0.0,0.0,0.0,0.0,0.0,0.0,0.0,0.0,-2.3861,-2.4155,0.0,-2.4249,-2.3915,-2.3768,-2.3701,-2.31,-2.2859,-2.2873,-2.2926,-2.314,-2.3447,-2.3688,-2.3808,-2.3834,-2.3781,-2.472,-2.59,-2.5637,-2.6907,-2.8121,-2.7406,-2.868,-2.9899,-2.9454,-3.1722,-3.3821,-3.3558,-3.5058,-3.6406,-3.6063,-3.6346,-3.6906,-3.7496,0.0,0.0,0.0,0.0,0.0,0.0,0.0,0.0,0.0,0.0,0.0,0.0,0.0,0.0,0.0,0.0,0.0,0.0,0.0,0.0,0.0,0.0,0.0,0.0,0.0,-5.5273,-5.5341,-5.5596,-5.6059,-5.6721,-5.7097,-5.7666,-5.8429,-5.8799,-5.9065,-5.9284,-5.9284,-5.9559,-6.0197,-6.2322,-6.3335,-6.3822,-6.5333,-6.591,-6.6012,0.0,0.0,0.0,0.0,0.0,0.0,0.0,-1.3478,0.0,-1.3539,-1.3702,-1.3831,-1.3831,-1.4116,-1.4299,-1.4299,-1.4299,-1.4299,-1.4299,-1.4231,-1.4082,-1.3851,-1.3566,0.0,-1.2515,-1.6019,-1.7659,-1.7228,0.0,0.0,0.0,0.0,0.0,0.0,0.0,-2.3848,0.0,0.0,0.0,-2.4182,-2.3888,-2.3674,-2.3487,-2.3033,-2.2859,-2.2996,-2.3924,-2.4295,-2.4313,-2.3525,-2.408,-2.4861,-2.4705,-2.5859,-2.7264,-2.6934,-2.8015,-2.9336,-2.8639,-3.0475,-3.2285,-3.207,-3.3809,-3.5475,-3.5475,-3.6543,-3.7576,-3.8256,-3.8827,-3.9519,-4.0594,-4.1637,0.0,0.0,0.0,0.0,0.0,0.0,0.0,0.0,0.0,0.0,0.0,0.0,0.0,0.0,0.0,0.0,0.0,0.0,0.0,0.0,0.0,0.0,0.0,0.0,0.0,-5.6313,-5.6935,-5.7423,-5.7859,-5.8322,-5.8723,-5.9103,-5.9284,-5.9526,-5.9792,-6.0044,-6.0551,-6.1287,-6.2708,-6.3628,-6.4205,-6.5513,-6.609,-6.6346,0.0,-1.1145,0.0,0.0,-1.2461,0.0,-1.3254,-1.3817,-1.4055,-1.3648,-1.3593,-1.3593,-1.3593,-1.4014,-1.4299,-1.4299,-1.4299,-1.4299,-1.4299,-1.4238,-1.4095,-1.3851,-1.3641,-1.3384,-1.3176,-1.6286,-1.7854,0.0,0.0,0.0,0.0,0.0,0.0,0.0,0.0,0.0,0.0,0.0,-2.4048,-2.4088,-2.4208,-2.4077,-2.383,-2.405,-2.406,-2.4196,-2.5517,-2.5993,-2.568,-2.4352,-2.4931,-2.6298,-2.6023,-2.7078,-2.8404,-2.7972,-2.9401,-3.0959,-3.0549,-3.2475,-3.4742,-3.4636,-3.5747,-3.6884,-3.7175,-3.8091,-3.9177,-4.0438,-4.1576,-4.2834,-4.4013,-4.4478,0.0,0.0,0.0,0.0,0.0,0.0,0.0,0.0,0.0,0.0,0.0,0.0,0.0,0.0,0.0,-4.9457,-5.0167,-5.077,0.0,0.0,0.0,-5.4525,-5.6062,0.0,-5.7448,0.0,-5.8392,-5.8835,-5.8874,-5.9319,-5.9526,-5.9559,-5.9625,-5.9916,-6.0283,-6.0685,-6.1358,-6.2228,-6.3075,-6.3998,-6.4985,-6.5836,-6.6406,-6.6808,0.0,0.0,0.0,0.0,0.0,0.0,0.0,-1.3505,-1.3966,-1.419,-1.4217,-1.4217,-1.4217,-1.4265,-1.4299,-1.4299,-1.4299,-1.4299,-1.4299,-1.4041,-1.3871,-1.3844,-1.3437,-1.4011,-1.5499,-1.7114,-1.8592,0.0,0.0,0.0,0.0,0.0,0.0,0.0,0.0,0.0,0.0,-2.3407,-2.3567,-2.3924,-2.525,-2.5766,-2.5844,-2.7248,-2.7635,-2.7768,-2.79,-2.7687,-2.7279,-2.7149,-2.7182,-2.7328,-2.7296,-2.8205,-2.9315,-2.9279,-3.1584,-3.3927,-3.3472,-3.4482,-3.5624,-3.5313,-3.63,-3.7679,-3.8822,-4.0185,-4.1644,-4.2889,-4.4191,-4.5331,-4.643,-4.7522,-4.8697,0.0,0.0,0.0,0.0,0.0,0.0,0.0,0.0,0.0,0.0,0.0,0.0,0.0,0.0,-5.0894,-5.0981,-5.1034,-5.1785,-5.3243,0.0,-5.5779,-5.7316,-5.854,0.0,-5.9138,-5.9284,-5.9319,-5.9354,-5.9823,-6.0006,-6.0074,-6.0482,-6.0671,-6.0734,-6.0896,-6.1497,-6.2367,-6.3353,-6.4277,-6.5172,-6.6057,-6.696,-6.7872,0.0,0.0,0.0,0.0,0.0,0.0,0.0,-1.3688,-1.3919,-1.4136,-1.4163,-1.4197,-1.4292,-1.4299,-1.4299,-1.4299,-1.4299,-1.4265,-1.417,-1.4048,-1.3899,-1.3722,-1.4765,-1.5361,-1.5836,-1.8471,-2.0005,0.0,0.0,0.0,0.0,0.0,0.0,0.0,0.0,-2.3327,-2.334,-2.4596,-2.5183,-2.525,-2.6876,-2.7502,-2.7429,-2.7965,-2.8163,-2.8279,-2.9086,-2.9299,-2.9379,-3.1095,-3.0277,-2.8811,-2.9743,-3.1134,-3.2555,-3.3223,-3.4328,-3.5185,-3.4818,-3.5801,-3.7045,-3.7594,-3.8852,-4.0337,-4.1558,-4.2296,-4.3122,-4.4349,-4.6138,-4.7782,-4.8767,-4.9393,-5.0087,0.0,0.0,0.0,0.0,0.0,0.0,0.0,0.0,-5.2197,0.0,0.0,0.0,0.0,0.0,0.0,-5.1692,-5.2327,-5.3476,-5.5054,0.0,-5.7005,-5.8614,-5.9168,-5.9389,-5.9389,-5.9696,-5.9823,-5.9855,-6.0311,-6.0508,-6.0546,-6.081,-6.0896,-6.0935,-6.1112,-6.1695,-6.2555,-6.3463,-6.4426,-6.5365,-6.62,-6.7178,-6.8206,-1.1993,0.0,-1.225,0.0,-1.3091,-1.3227,-1.3648,-1.3709,-1.377,-1.3919,-1.3939,-1.4014,-1.4211,-1.4231,-1.4231,-1.4231,-1.4272,-1.4251,-1.4143,-1.4743,-1.4929,-1.4703,-1.646,0.0,-1.7776,-2.008,-2.1281,-2.1139,-2.2388,0.0,0.0,0.0,0.0,0.0,-2.3086,-2.3512,-2.4136,-2.5608,-2.6405,-2.6935,-2.8576,-2.9121,-2.8799,-2.9319,-2.9508,-2.9497,-3.0983,-3.1294,-3.1635,-3.3962,-3.3284,-3.1382,-3.2534,-3.3713,-3.4769,-3.5557,-3.6026,-3.6379,-3.6511,-3.7618,-3.898,-4.0336,-4.1386,-4.2517,-4.4172,-4.4542,-4.5001,-4.6549,-4.8171,-4.9615,-5.0627,-5.0853,-5.127,-5.2461,0.0,0.0,0.0,0.0,0.0,0.0,-5.2857,-5.2785,-5.2615,0.0,0.0,0.0,0.0,0.0,-5.2846,-5.3794,0.0,0.0,0.0,0.0,0.0,-5.9608,-5.9823,-5.9823,-6.0161,-6.0311,-6.0311,-6.0685,-6.0858,-6.0858,-6.1012,-6.1087,-6.1098,-6.1566,-6.2258,-6.3114,-6.3974,-6.4932,-6.5885,-6.6472,-6.748,-6.8661,-1.2379,-1.2494,-1.2684,-1.3288,-1.3397,-1.3397,-1.3403,-1.3403,-1.3458,-1.3614,-1.3634,-1.3743,-1.4041,-1.4075,-1.4075,-1.4075,-1.4211,-1.4299,-1.4299,-1.6066,-1.7053,0.0,0.0,-2.0655,-2.2233,-2.1697,-2.2227,-2.3754,0.0,0.0,-2.2859,0.0,-2.2859,-2.2859,-2.2859,-2.4106,-2.5996,-2.5667,-2.6641,-2.8675,-3.0153,-3.0555,-3.0339,-3.2152,-3.2539,-3.2289,-3.3772,-3.4031,-3.3865,-3.5351,-3.558,-3.5268,-3.5759,-3.558,-3.5311,-3.5311,-3.6379,-3.7772,-3.8985,-4.0387,-4.1887,-4.3122,-4.3504,-4.4107,-4.6313,-4.6834,-4.7516,-4.9867,-5.032,-5.0703,-5.1704,-5.1794,-5.2363,-5.4247,0.0,0.0,0.0,0.0,0.0,0.0,-5.3026,-5.2535,-5.3683,0.0,0.0,0.0,0.0,0.0,0.0,0.0,0.0,-5.5724,-5.7756,0.0,-5.8911,-6.015,-6.0781,-6.0781,-6.0781,-6.0781,-6.0819,-6.0935,-6.0973,-6.1012,-6.1228,-6.1292,-6.1369,-6.2354,-6.3276,-6.4205,-6.5172,-6.6093,-6.6875,-6.6875,-6.8007,-6.9492,-1.2467,-1.2583,-1.2718,-1.2908,-1.3112,-1.3247,-1.3247,-1.3336,-1.3458,-1.3607,-1.3539,-1.3546,-1.3749,-1.3953,-1.4075,0.0,-1.4211,-1.4906,0.0,-1.6779,-1.7608,-1.8989,-2.0803,-2.193,-2.2233,-2.3091,-2.3598,-2.3768,0.0,0.0,0.0,-2.2859,-2.3529,-2.4738,-2.4955,-2.5922,-2.7531,-2.8592,-2.9258,-2.9749,-3.1183,-3.1703,-3.1712,-3.3256,-3.3776,-3.3829,-3.5013,-3.5347,-3.5398,-3.6616,-3.7524,-3.8307,-3.9465,-3.8951,-3.8258,-3.9265,-4.0488,-4.1683,-4.2048,-4.249,-4.3381,-4.5277,-4.5814,-4.643,-4.8767,-4.9282,-4.9679,-5.1155,-5.1861,-5.2568,-5.3579,-5.366,-5.3812,-5.4419,-5.4526,0.0,0.0,0.0,0.0,-5.401,-5.4316,-5.4501,0.0,-5.4777,0.0,0.0,0.0,0.0,0.0,0.0,0.0,0.0,-5.8807,0.0,-6.0175,-6.058,-6.0781,-6.0781,-6.0896,-6.1012,-6.1151,-6.1189,-6.1193,-6.1213,-6.1366,-6.1764,-6.2356,-6.2774,-6.3819,-6.5159,-6.5463,-6.6133,-6.6914,-6.6914,-6.7969,-6.9336,-1.2576,-1.2712,-1.282,-1.282,-1.3057,-1.3241,-1.318,-1.3302,-1.3437,-1.3532,-1.3458,-1.3437,-1.3532,-1.3763,0.0,-1.3905,-1.4728,-1.5932,-1.7069,-1.8411,-1.9861,-2.105,-2.28,-2.3593,-2.3335,0.0,0.0,-2.3768,-2.4038,-2.3983,-2.3924,-2.4588,-2.5517,-2.6588,-2.6532,-2.7519,-2.8991,-2.9882,-3.0806,-3.1788,-3.2693,-3.3214,-3.3623,-3.4657,-3.4876,-3.4912,-3.6071,-3.6795,-3.7355,-3.8582,-3.988,-4.1136,-4.203,-4.1977,-4.1701,-4.2226,-4.2834,-4.3665,-4.4514,-4.479,-4.5306,-4.763,-4.8214,-4.8786,-5.0918,-5.1717,-5.2217,-5.3179,-5.3703,-5.4275,-5.4904,-5.4762,-5.4563,-5.4902,-5.4809,-5.4501,-5.3953,0.0,0.0,0.0,0.0,0.0,0.0,-5.583,0.0,0.0,0.0,0.0,0.0,0.0,0.0,-5.9102,-5.9725,0.0,-6.0858,-6.0935,-6.0973,-6.0997,-6.1078,-6.1176,-6.1292,-6.1357,-6.1541,-6.1873,-6.1648,-6.226,-6.3351,-6.3451,-6.4336,-6.5625,-6.5976,-6.6406,-6.6914,-6.6914,-6.7773,-6.8867,-1.2684,-1.2827,0.0,0.0,-1.3173,0.0,-1.318,-1.3295,-1.3403,-1.3403,-1.3403,-1.3403,-1.3403,-1.3526,-1.3614,-1.3775,0.0,0.0,0.0,-2.0937,-2.2945,-2.307,-2.4649,0.0,-2.505,-2.4476,-2.4022,-2.3843,-2.5135,-2.5591,-2.5576,-2.7306,-2.8229,-2.8212,-2.7864,-2.8742,-3.05,-2.9956,-3.1609,-3.4517,-3.4475,-3.4992,-3.5848,-3.596,-3.578,-3.5813,-3.724,-3.8644,-3.9906,-4.1241,-4.2544,-4.3693,-4.3665,-4.4599,-4.5389,-4.4135,-4.376,-4.4386,-4.6604,-4.7091,-4.7714,-4.9946,-5.0627,-5.1164,-5.2876,-5.3994,-5.4809,-5.5517,-5.5709,-5.5709,-5.5745,-5.5131,-5.4845,-5.5605,-5.5306,-5.4988,-5.4988,0.0,0.0,0.0,0.0,0.0,0.0,-5.703,-5.6741,0.0,0.0,0.0,0.0,0.0,-5.9634,-5.9627,-6.0512,-6.0997,-6.1004,-6.1196,-6.1312,-6.1304,-6.1314,-6.1316,-6.1351,-6.1523,-6.2056,-6.2797,-6.2161,-6.2851,-6.4375,-6.4375,-6.4883,-6.5781,-6.6562,-6.6914,-6.6914,-6.6914,-6.7461,-6.8203,0.0,0.0,-1.261,-1.261,-1.2861,-1.3051,-1.3017,-1.3234,-1.3403,-1.3403,-1.3403,-1.3403,-1.3403,-1.3431,-1.4109,-1.5734,-1.6692,-1.8429,-2.1373,-2.2384,-2.344,-2.4778,-2.4842,-2.481,-2.4743,-2.4168,-2.43,-2.4955,-2.6401,-2.6841,-2.6584,-2.697,-2.7976,-2.9242,-2.9028,-3.0698,-3.3355,-3.291,-3.3759,-3.5483,-3.5222,-3.5224,-3.5578,-3.665,-3.7713,-3.857,-4.0109,-4.1439,-4.256,-4.2903,-4.3882,-4.5087,-4.5843,-4.6924,-4.7782,-4.646,-4.6808,-4.7836,-4.9202,-4.9521,-4.9867,-5.1197,-5.26,-5.3871,-5.486,-5.477,-5.4732,-5.5525,-5.5705,-5.5897,-5.6508,-5.6134,-5.5849,-5.6034,-5.5286,-5.4623,-5.4623,-5.5004,0.0,0.0,-5.711,-5.7785,-5.8127,-5.8649,-5.8773,0.0,0.0,0.0,0.0,-6.0434,-6.0859,-6.0881,-6.1112,-6.1232,-6.1235,-6.1274,-6.1346,-6.1458,-6.1439,-6.1522,-6.1626,-6.2345,-6.2764,-6.2959,-6.3473,-6.4297,-6.5273,-6.5273,-6.582,-6.6601,-6.6836,-6.6914,-6.6914,-6.6914,-6.7461,-6.8086,-1.2501,-1.2556,-1.2603,-1.2603,-1.2854,-1.3057,-1.3057,-1.3254,-1.3403,-1.3403,-1.3403,-1.3728,-1.4698,-1.4795,-1.5878,-1.9101,-1.8664,-1.9509,-2.2658,-2.3417,-2.4035,-2.498,-2.4556,-2.4182,-2.4035,-2.4272,-2.494,-2.599,-2.7599,-2.8289,-2.81,-2.9668,-3.0776,-3.1769,-3.2256,-3.3479,-3.5013,-3.4653,-3.5335,-3.6639,-3.7049,-3.757,-3.8331,-3.9676,-4.0663,-4.1334,-4.2226,-4.3313,-4.4442,-4.4881,-4.5902,-4.71,-4.8193,-4.896,-4.9504,-4.9299,-4.9362,-4.9773,-5.0779,-5.1386,-5.1971,-5.3279,-5.4378,-5.532,-5.6059,-5.5937,-5.5812,-5.6613,-5.6928,-5.7171,-5.7647,-5.7056,-5.6518,-5.6518,-5.5541,-5.476,-5.476,-5.5477,0.0,-5.7161,-5.8189,-5.905,-5.9473,-5.9688,-5.9644,-5.922,0.0,0.0,-6.0073,-6.0994,-6.1433,-6.1289,-6.1362,-6.1383,-6.138,-6.1432,-6.1517,-6.1603,-6.1603,-6.1837,-6.2305,-6.2773,-6.3437,-6.418,-6.4258,-6.5039,-6.6172,-6.5742,-6.6094,-6.6914,-6.6914,-6.6914,-6.6914,-6.6914,-6.7187,-6.7617,-1.2501,-1.261,-1.2698,-1.2698,-1.2922,-1.3105,-1.3105,-1.3234,-1.3494,-1.3823,-1.3823,-1.4616,-1.6683,-1.6699,-1.8182,-2.2107,-2.0797,-2.063,-2.29,-2.3971,-2.4596,-2.4516,-2.4228,-2.3923,-2.3664,-2.5172,-2.6367,-2.7134,-2.9119,-3.007,-3.0137,-3.315,-3.4583,-3.4562,-3.5417,-3.5893,-3.6094,-3.5995,-3.6788,-3.8194,-3.9523,-4.0763,-4.1985,-4.3122,-4.3665,-4.4013,-4.4013,-4.4938,-4.6315,-4.7152,-4.811,-4.9215,-5.032,-5.0671,-5.1048,-5.1999,-5.175,-5.1353,-5.207,-5.2909,-5.3862,-5.5482,-5.5893,-5.6114,-5.6942,-5.7107,-5.7231,-5.8023,-5.8433,-5.8646,-5.8758,-5.7822,-5.7035,-5.7035,-5.5969,-5.5186,-5.5186,0.0,-5.7319,-5.8204,-5.905,-5.9935,-6.0935,-6.0458,-6.0112,-6.0201,-6.0351,-6.0423,0.0,-6.1264,-6.1588,-6.1354,-6.1452,-6.1524,-6.1524,-6.1641,-6.1719,-6.1719,-6.1719,-6.2148,-6.3008,-6.3125,-6.4062,-6.5586,-6.4961,-6.5547,-6.6836,-6.6094,-6.6211,-6.6914,-6.6914,-6.6914,-6.6914,-6.6914,-6.6992,-6.7187,-1.2501,-1.2522,-1.2535,-1.2535,-1.2684,-1.28,-1.28,-1.2929,-1.3661,-1.5393,-1.5545,-1.6273,-1.8135,-1.8242,-1.908,-2.1325,-2.1107,-2.168,-2.4214,-2.4555,-2.4422,-2.3928,-2.4677,-2.4989,-2.4931,-2.7569,-2.8799,-2.8623,-3.1584,-3.2834,-3.258,-3.4398,-3.518,-3.518,-3.5335,-3.6059,-3.7358,-3.8331,-3.9651,-4.1067,-4.2296,-4.2999,-4.3218,-4.3409,-4.4698,-4.6401,-4.6401,-4.7798,-4.9663,-4.9789,-4.9977,-5.032,-5.1303,-5.2146,-5.291,-5.3871,-5.4503,-5.4739,-5.4287,-5.4748,-5.5482,-5.6474,-5.6721,-5.6993,-5.8171,-5.7909,-5.7739,-5.8953,-5.8721,-5.8493,-5.9171,-5.8299,-5.7472,-5.7472,-5.6422,-5.5599,-5.5599,0.0,-5.7379,-5.8341,-5.9226,-6.015,-6.1151,-6.1228,-6.1235,-6.1263,-6.1383,-6.1478,-6.1464,-6.1625,-6.1674,-6.1635,-6.1665,-6.1658,-6.1658,-6.1677,-6.1719,-6.1719,-6.1719,-6.2148,-6.3008,-6.375,-6.4648,-6.5625,-6.625,-6.664,-6.6875,-6.6758,-6.6797,-6.6914,-6.6914,-6.6914,-6.6914,-6.6914,-6.7383,-6.8,-1.2406,-1.2386,-1.2386,-1.2386,-1.3355,-1.4037,-1.4129,-1.4975,-1.6104,-1.7025,-1.7088,-1.7588,-1.9607,-1.9521,-2.0635,-2.3549,-2.3413,-2.408,-2.5899,-2.4553,-2.3909,-2.4408,-2.4596,-2.5559,-2.7161,-2.8377,-2.9702,-3.1152,-3.2683,-3.3721,-3.4292,-3.5836,-3.6871,-3.7546,-3.8331,-3.9471,-4.0789,-4.136,-4.1977,-4.2834,-4.4578,-4.5306,-4.5486,-4.6778,-4.7882,-4.8767,-4.8767,-4.9441,-5.055,-5.154,-5.1867,-5.208,-5.3508,-5.4247,-5.4583,-5.5049,-5.5437,-5.5724,-5.5816,-5.6095,-5.6632,-5.7591,-5.7859,-5.8091,-5.8876,-5.8803,-5.8688,-5.9279,-5.929,-5.9336,-5.9716,-5.914,-5.8464,-5.8042,-5.7075,0.0,0.0,-5.7264,-5.8187,-5.921,-6.0075,-6.0809,-6.1366,-6.1458,-6.1524,-6.1612,-6.1651,-6.1704,-6.1685,-6.1697,-6.1719,-6.1719,-6.1719,-6.1719,-6.1719,-6.1719,-6.1953,-6.2383,-6.2383,-6.3086,-6.4414,-6.4805,-6.5469,-6.6328,-6.6719,-6.6914,-6.6914,-6.6914,-6.6914,-6.6914,-6.6914,-6.6914,-6.6953,-6.7422,-6.7793,-6.8163,-1.221,-1.2477,-1.2764,-1.2735,-1.434,-1.5563,-1.5561,-1.6927,-1.7961,-1.8407,-1.8265,-1.9155,-2.1545,-2.1463,-2.2566,-2.5802,-2.5829,-2.6067,-2.7003,-2.5039,-2.4185,-2.5312,-2.572,-2.7226,-2.9822,-2.996,-3.1186,-3.362,-3.3957,-3.4803,-3.6333,-3.7748,-3.9162,-4.0411,-4.1512,-4.2544,-4.3504,-4.4107,-4.4265,-4.4542,-4.6748,-4.7714,-4.7882,-4.971,-5.055,-5.0747,-5.0746,-5.0904,-5.131,-5.2704,-5.3259,-5.3685,-5.5004,-5.5695,-5.5948,-5.5948,-5.6187,-5.6525,-5.7143,-5.7328,-5.758,-5.8598,-5.8874,-5.899,-5.9458,-5.9408,-5.9257,-5.9425,-5.971,-5.9977,-5.9977,-5.9728,-5.9242,-5.8473,0.0,0.0,0.0,-5.8181,-5.9127,-5.9948,-6.0824,-6.1399,-6.1539,-6.156,-6.159,-6.1678,-6.1719,-6.1719,-6.1719,-6.1719,-6.1719,-6.1719,-6.1719,-6.1719,-6.1719,-6.1719,-6.2148,-6.3008,-6.3008,-6.3906,-6.5586,-6.5586,-6.6094,-6.6914,-6.6914,-6.6914,-6.6914,-6.6914,-6.6914,-6.6914,-6.6914,-6.6982,-6.7201,-6.7865,-6.8253,-6.8627,-1.1898,-1.316,-1.4268,-1.4104,-1.5488,-1.6622,-1.6642,-1.6783,-1.7631,-1.9469,-1.9598,-2.0869,-2.4271,-2.4598,-2.5111,-2.6728,-2.6807,-2.6628,-2.6487,-2.6238,-2.6275,-2.6742,-2.9288,-3.127,-3.2778,-3.4069,-3.4958,-3.5178,-3.6487,-3.7829,-3.9166,-4.0614,-4.1959,-4.319,-4.3313,-4.3409,-4.3665,-4.5725,-4.6661,-4.6834,-4.9171,-5.0133,-5.0133,-5.032,-5.1005,-5.1789,-5.173,-5.2326,-5.3184,-5.3274,-5.3802,-5.4402,-5.455,-5.5633,-5.6809,-5.6809,-5.7591,-5.8512,-5.8553,-5.8553,-5.8716,-5.9212,-5.9354,-5.9458,-5.9946,-5.9397,-5.8977,-5.9407,-5.9542,-5.9542,-5.9542,-5.9527,-5.9281,-5.8604,0.0,0.0,-5.7478,-5.8816,-5.9968,-6.0149,-6.0971,-6.1535,-6.1665,-6.1674,-6.1677,-6.1719,-6.1719,-6.1719,-6.1719,-6.1719,-6.1719,-6.1719,-6.1719,-6.1719,-6.1719,-6.1719,-6.2148,-6.3008,-6.3008,-6.3906,-6.5586,-6.5586,-6.6094,-6.6914,-6.6914,-6.6914,-6.6914,-6.6914,-6.6914,-6.6914,-6.6914,-6.7296,-6.7834,-6.7898,-6.8837,-7.0005,-1.2993,-1.3665,-1.4446,-1.5358,-1.7107,-1.8347,-1.8347,-1.9298,-2.065,-2.2378,-2.2481,-2.3233,-2.5548,-2.5739,-2.6091,-2.7332,-2.8206,-2.8954,-2.9585,-3.0438,-3.0391,-2.9214,-3.214,-3.3974,-3.4403,-3.4958,-3.6117,-3.7839,-3.8387,-3.9829,-4.195,-4.2517,-4.3798,-4.5636,-4.5636,-4.6194,-4.7189,-4.8035,-4.8355,-4.8513,-5.007,-5.0913,-5.1386,-5.2029,-5.247,-5.2796,-5.2753,-5.2986,-5.3422,-5.3904,-5.4255,-5.4574,-5.5062,-5.6145,-5.742,-5.8248,-5.8387,-5.8424,-5.8665,-5.8528,-5.8573,-5.9576,-5.9406,-5.9147,-5.9625,-5.9473,-5.9139,-5.8835,-5.8781,-5.8934,-5.9573,-5.9688,-5.9627,-5.945,0.0,-5.937,-5.9163,-5.9708,-6.039,-6.1041,-6.1439,-6.1648,-6.1718,-6.1719,-6.1719,-6.1719,-6.1719,-6.1719,-6.1719,-6.1719,-6.1719,-6.1719,-6.1719,-6.1719,-6.1719,-6.1719,-6.2422,-6.3828,-6.3828,-6.4726,-6.6406,-6.6406,-6.6601,-6.6914,-6.6914,-6.6914,-6.6914,-6.6914,-6.6914,-6.6873,-6.6747,-6.7212,-6.7972,-6.8356,-6.9155,-7.0104,-1.4294,-1.5074,-1.5817,-1.6809,-1.8576,-1.9875,-2.0459,-2.159,-2.2993,-2.4711,-2.4779,-2.5357,-2.7522,-2.7434,-2.793,-2.9756,-3.0598,-3.1375,-3.2125,-3.3847,-3.3883,-3.1687,-3.4381,-3.6108,-3.6377,-3.693,-3.8255,-4.0352,-4.0352,-4.17,-4.4231,-4.4231,-4.5434,-4.7629,-4.7629,-4.8258,-4.9341,-4.9641,-4.9872,-5.017,-5.099,-5.1665,-5.2435,-5.3134,-5.338,-5.3334,-5.3316,-5.33,-5.3333,-5.4049,-5.4437,-5.4756,-5.5438,-5.6402,-5.7492,-5.8551,-5.8419,-5.8028,-5.8519,-5.8397,-5.8441,-5.9606,-5.9469,-5.9102,-5.9427,-5.9319,-5.8896,-5.8127,-5.7973,-5.8165,-5.8918,-5.9493,-5.9842,-5.9665,-6.0113,-6.0414,-6.0289,-6.0483,-6.0923,-6.1638,-6.1719,-6.1719,-6.1719,-6.1719,-6.1719,-6.1719,-6.1719,-6.1719,-6.1719,-6.1719,-6.1719,-6.1719,-6.1719,-6.1836,-6.2109,-6.2109,-6.2851,-6.4297,-6.457,-6.5469,-6.6914,-6.6914,-6.6914,-6.6914,-6.6914,-6.6914,-6.6914,-6.6823,-6.6814,-6.6789,-6.6609,-6.7186,-6.8164,-6.8652,-6.941,-7.0294,-1.5766,-1.7566,-1.8676,-1.8547,-1.9714,-2.1383,-2.3281,-2.329,-2.3779,-2.5797,-2.5968,-2.7262,-3.0277,-3.0139,-3.1014,-3.4073,-3.3972,-3.3682,-3.3682,-3.6146,-3.6448,-3.3765,-3.6247,-3.7891,-3.8642,-4.0481,-4.1865,-4.2499,-4.2499,-4.3669,-4.5933,-4.5848,-4.7038,-4.9341,-4.9341,-4.9309,-4.9384,-5.034,-5.119,-5.186,-5.2165,-5.2695,-5.3278,-5.3278,-5.3278,-5.3281,-5.3225,-5.3183,-5.3266,-5.3674,-5.4354,-5.5063,-5.5563,-5.6262,-5.697,-5.7481,-5.7596,-5.7679,-5.815,-5.828,-5.8511,-5.9319,-5.9511,-5.9511,-5.9511,-5.8896,-5.8088,-5.7357,-5.7203,-5.7264,-5.7362,-5.8839,-5.976,-5.904,-6.0358,-6.1268,-6.0498,-6.1133,-6.1719,-6.1719,-6.1719,-6.1719,-6.1719,-6.1719,-6.1719,-6.1719,-6.1719,-6.1719,-6.1719,-6.1719,-6.1719,-6.1719,-6.1719,-6.2109,-6.3008,-6.3008,-6.3437,-6.4336,-6.5195,-6.6055,-6.6914,-6.6914,-6.6914,-6.6914,-6.6914,-6.6914,-6.6871,-6.6689,-6.6615,-6.6588,-6.6461,-6.7289,-6.8602,-6.8602,-6.959,-7.0898,-1.7466,-1.8093,-1.9145,-2.1644,-2.2011,-2.2601,-2.4474,-2.4476,-2.4874,-2.6516,-2.764,-2.8975,-3.1055,-3.2011,-3.277,-3.3331,-3.4809,-3.6405,-3.795,-3.8804,-3.9177,-3.9024,-3.9838,-4.0455,-4.0643,-4.1841,-4.2995,-4.4093,-4.4768,-4.592,-4.7418,-4.7418,-4.8211,-4.9622,-5.0085,-5.0425,-5.0667,-5.1434,-5.1906,-5.2101,-5.2187,-5.2654,-5.3262,-5.3258,-5.3423,-5.3717,-5.364,-5.3827,-5.4129,-5.4262,-5.4439,-5.4806,-5.5852,-5.6349,-5.6778,-5.7813,-5.768,-5.7205,-5.7335,-5.7456,-5.7841,-5.9165,-5.9511,-5.955,-5.9688,-5.9534,-5.8957,-5.7632,-5.7327,-5.7405,-5.76,-5.851,-5.9398,-5.988,-6.0893,-6.1554,-6.1327,-6.1523,-6.1719,-6.1719,-6.1719,-6.1719,-6.1719,-6.1719,-6.1719,-6.1719,-6.1719,-6.1719,-6.1719,-6.1719,-6.1719,-6.1719,-6.1719,-6.2109,-6.3008,-6.3008,-6.375,-6.5234,-6.5469,-6.6055,-6.6914,-6.6914,-6.6914,-6.6914,-6.6914,-6.6805,-6.6669,-6.6607,-6.6538,-6.6448,-6.6267,-6.7186,-6.8564,-6.8513,-6.9513,-7.0898,-1.9587,-1.9944,-2.0726,-2.349,-2.3572,-2.3997,-2.6528,-2.6478,-2.7078,-2.9394,-3.0388,-3.1674,-3.3698,-3.4452,-3.5135,-3.5991,-3.7184,-3.8682,-4.0292,-4.0887,-4.1579,-4.2456,-4.3071,-4.3215,-4.3025,-4.382,-4.4739,-4.5738,-4.633,-4.7352,-4.8707,-4.8707,-4.9425,-5.073,-5.1123,-5.1395,-5.1633,-5.204,-5.236,-5.2585,-5.2299,-5.2709,-5.3483,-5.3417,-5.3718,-5.4166,-5.4089,-5.4255,-5.4516,-5.4671,-5.4819,-5.5102,-5.5874,-5.6116,-5.628,-5.712,-5.6973,-5.6588,-5.6686,-5.6956,-5.7503,-5.8433,-5.8953,-5.9127,-5.8912,-5.9125,-5.8935,-5.7328,-5.7541,-5.7945,-5.7806,-5.8726,-5.9708,-6.0309,-6.1133,-6.1719,-6.1719,-6.1719,-6.1719,-6.1719,-6.1719,-6.1719,-6.1719,-6.1719,-6.1719,-6.1719,-6.1719,-6.1719,-6.1719,-6.1719,-6.1875,-6.2187,-6.2226,-6.2812,-6.4023,-6.4023,-6.457,-6.5586,-6.5937,-6.6406,-6.6914,-6.6914,-6.6852,-6.68,-6.68,-6.6684,-6.6513,-6.6444,-6.6346,-6.6269,-6.609,-6.6821,-6.8013,-6.7936,-6.8975,-7.0437,-2.2154,-2.2691,-2.3135,-2.4778,-2.4794,-2.5761,-2.9036,-2.9253,-3.0084,-3.306,-3.3653,-3.4727,-3.7196,-3.7232,-3.7971,-4.0392,-4.0364,-4.0633,-4.1709,-4.2733,-4.3747,-4.4778,-4.5801,-4.6262,-4.595,-4.6223,-4.6673,-4.7348,-4.749,-4.8329,-4.978,-4.9752,-5.0573,-5.2095,-5.2148,-5.2201,-5.2201,-5.2306,-5.2681,-5.323,-5.2552,-5.2931,-5.3832,-5.3832,-5.4153,-5.4547,-5.4547,-5.4579,-5.464,-5.5053,-5.5399,-5.5703,-5.5703,-5.5703,-5.5742,-5.5895,-5.5938,-5.5979,-5.6133,-5.6806,-5.7409,-5.734,-5.7976,-5.844,-5.7712,-5.8139,-5.8309,-5.683,-5.7757,-5.8599,-5.7918,-5.9101,-6.0195,-6.0273,-6.1015,-6.1601,-6.168,-6.1719,-6.1719,-6.1719,-6.1719,-6.1719,-6.1719,-6.1719,-6.1719,-6.1719,-6.1719,-6.1719,-6.1797,-6.1836,-6.2226,-6.3086,-6.3125,-6.3906,-6.5586,-6.5586,-6.5625,-6.5742,-6.6523,-6.6874,-6.6867,-6.6867,-6.679,-6.6574,-6.6563,-6.6492,-6.6358,-6.6174,-6.609,-6.6051,-6.5936,-6.6397,-6.709,-6.7167,-6.8282,-6.9706,-2.3873,-2.4101,-2.4778,-2.777,-2.7748,-2.8359,-3.1634,-3.1832,-3.1775,-3.252,-3.4355,-3.579,-3.6363,-3.8057,-3.9407,-3.9991,-4.1446,-4.3157,-4.5039,-4.5362,-4.6153,-4.7633,-4.7955,-4.8646,-4.985,-4.868,-4.8152,-4.8319,-4.9605,-5.0418,-5.0784,-5.0784,-5.0981,-5.1334,-5.1893,-5.2125,-5.2186,-5.306,-5.3555,-5.3714,-5.3905,-5.4115,-5.4355,-5.4355,-5.4609,-5.496,-5.496,-5.5186,-5.5446,-5.5554,-5.5621,-5.5703,-5.5818,-5.5857,-5.5895,-5.6071,-5.6111,-5.6136,-5.6214,-5.688,-5.7482,-5.6811,-5.7357,-5.8141,-5.8517,-5.871,-5.8621,-5.7765,-5.7851,-5.7867,-5.7031,-5.7734,-5.8672,-5.9336,-6.0156,-6.0937,-6.1601,-6.1719,-6.1719,-6.1719,-6.1719,-6.1719,-6.1719,-6.1719,-6.1719,-6.1719,-6.1719,-6.1992,-6.2695,-6.2734,-6.3125,-6.3984,-6.4023,-6.4531,-6.5586,-6.5586,-6.5937,-6.6601,-6.6797,-6.6837,-6.669,-6.669,-6.6591,-6.6439,-6.6444,-6.6343,-6.6167,-6.6126,-6.6051,-6.5936,-6.5897,-6.6397,-6.7167,-6.7859,-6.8783,-6.9783,-2.5933,-2.6185,-2.7085,-3.013,-3.0308,-3.1003,-3.3557,-3.4048,-3.4318,-3.4916,-3.6379,-3.7643,-3.8148,-3.9816,-4.1453,-4.2763,-4.3884,-4.5372,-4.7209,-4.7342,-4.8085,-4.9711,-4.9803,-5.023,-5.1086,-5.0786,-5.0346,-4.9803,-5.0646,-5.1241,-5.1593,-5.1593,-5.185,-5.2417,-5.2761,-5.3015,-5.3302,-5.3868,-5.4118,-5.4153,-5.4387,-5.4609,-5.479,-5.479,-5.5053,-5.5399,-5.5399,-5.5531,-5.5703,-5.578,-5.578,-5.5818,-5.5994,-5.604,-5.6068,-5.6269,-5.6309,-5.6301,-5.6379,-5.6783,-5.7054,-5.6609,-5.6886,-5.7368,-5.7737,-5.8129,-5.8218,-5.7456,-5.8242,-5.8828,-5.8008,-5.8867,-5.9844,-6.0312,-6.0742,-6.1172,-6.164,-6.1719,-6.1719,-6.1719,-6.1719,-6.1719,-6.1719,-6.1719,-6.1719,-6.1719,-6.2109,-6.2539,-6.2969,-6.3398,-6.4023,-6.4883,-6.4825,-6.5193,-6.6061,-6.5987,-6.6193,-6.6661,-6.6712,-6.6655,-6.6516,-6.653,-6.6399,-6.6264,-6.6237,-6.6167,-6.6013,-6.6397,-6.632,-6.5974,-6.6782,-6.6859,-6.6667,-6.7936,-6.8936,-6.9821,-2.8357,-2.8805,-2.9642,-3.2464,-3.2818,-3.3473,-3.5445,-3.6131,-3.6779,-3.7754,-3.87,-3.9589,-4.0516,-4.1692,-4.331,-4.5827,-4.6136,-4.6848,-4.8335,-4.8541,-4.9343,-5.0977,-5.1063,-5.1251,-5.1522,-5.2477,-5.2433,-5.1372,-5.162,-5.1957,-5.2498,-5.2498,-5.3015,-5.3905,-5.3905,-5.4118,-5.4484,-5.4547,-5.4579,-5.4609,-5.4671,-5.4905,-5.5212,-5.5212,-5.5399,-5.5703,-5.5703,-5.5703,-5.5742,-5.5895,-5.5959,-5.5981,-5.6169,-5.6244,-5.6278,-5.6394,-5.6441,-5.6451,-5.6582,-5.6619,-5.6613,-5.6613,-5.6689,-5.6836,-5.6836,-5.7383,-5.7695,-5.6953,-5.8633,-6.0,-5.9336,-6.0351,-6.1328,-6.1445,-6.1484,-6.1523,-6.168,-6.1719,-6.1719,-6.1719,-6.1719,-6.1719,-6.1719,-6.1719,-6.1758,-6.1914,-6.2578,-6.3125,-6.3437,-6.414,-6.4919,-6.575,-6.5622,-6.5859,-6.6577,-6.6456,-6.6368,-6.6368,-6.6466,-6.6527,-6.6547,-6.656,-6.6513,-6.6474,-6.632,-6.6282,-6.6359,-6.6898,-6.6782,-6.6474,-6.7859,-6.7552,-6.6513,-6.8052,-6.9167,-7.0014,-3.117,-3.1702,-3.2564,-3.5135,-3.5145,-3.5537,-3.8033,-3.7939,-3.7697,-3.7896,-3.947,-4.0642,-4.0825,-4.2561,-4.4221,-4.5374,-4.6034,-4.6693,-4.7748,-4.8364,-4.9351,-5.0843,-5.0926,-5.1718,-5.3378,-5.357,-5.3302,-5.2571,-5.3572,-5.4078,-5.4183,-5.4183,-5.4251,-5.4387,-5.4387,-5.442,-5.4516,-5.4848,-5.5026,-5.5053,-5.5399,-5.5577,-5.5621,-5.5621,-5.5643,-5.5703,-5.5703,-5.578,-5.5895,-5.6109,-5.6167,-5.6201,-5.6329,-5.6365,-5.642,-5.653,-5.6585,-5.6591,-5.6601,-5.6598,-5.6585,-5.6585,-5.7184,-5.7734,-5.7734,-5.7812,-5.7851,-5.7734,-5.8594,-5.9336,-5.9219,-5.9375,-5.9765,-6.0469,-6.0586,-6.0859,-6.1601,-6.1719,-6.1719,-6.1719,-6.1719,-6.1719,-6.1719,-6.1719,-6.1992,-6.2773,-6.293,-6.3672,-6.5156,-6.5351,-6.5751,-6.6432,-6.642,-6.6423,-6.6423,-6.642,-6.6314,-6.6159,-6.614,-6.6563,-6.7253,-6.7256,-6.759,-6.8052,-6.7282,-6.7359,-6.8013,-6.7359,-6.7475,-6.809,-6.8321,-6.8282,-6.8167,-6.9167,-7.0052,-7.0744,-3.2959,-3.3434,-3.4186,-3.6645,-3.6902,-3.7273,-3.9139,-3.9485,-3.9751,-4.0141,-4.1321,-4.2062,-4.2062,-4.4008,-4.579,-4.7146,-4.7914,-4.8469,-4.8785,-4.9911,-5.089,-5.1522,-5.215,-5.2927,-5.3758,-5.4284,-5.4377,-5.41,-5.4345,-5.4484,-5.4484,-5.4484,-5.4609,-5.4819,-5.4819,-5.4933,-5.5186,-5.5375,-5.5423,-5.5446,-5.5621,-5.5742,-5.5818,-5.5818,-5.5857,-5.5994,-5.5994,-5.602,-5.6078,-5.6251,-5.631,-5.6327,-5.6453,-5.6514,-5.6519,-5.6595,-5.6601,-5.6719,-5.7187,-5.7344,-5.7422,-5.793,-5.8359,-5.8633,-5.8633,-5.8984,-5.918,-5.8711,-5.9297,-5.9883,-5.9883,-6.0273,-6.0703,-6.1055,-6.1133,-6.125,-6.164,-6.1719,-6.1719,-6.1719,-6.1719,-6.1719,-6.1719,-6.2148,-6.2578,-6.2969,-6.3906,-6.4739,-6.54,-6.5892,-6.626,-6.6475,-6.636,-6.6307,-6.623,-6.6167,-6.609,-6.5974,-6.6436,-6.6859,-6.7244,-6.7244,-6.7667,-6.8398,-6.7975,-6.8052,-6.8398,-6.8513,-6.8475,-6.8513,-6.9436,-6.9821,-6.9783,-6.9706,-7.0206,-7.0898]}]]